[[{"header":{"parameterUnit":"m.s-1","parameterCategory":1,"la1":30.6,"la2":28.766,"lo1":-90.7593,"lo2":-88.6598,"dy":0.0162,"dx":0.0183,"nx":116,"ny":114,"refTime":"2023-03-28T06:00:00:Z","depth":0,"parameterNumber":2,"parameterNumberName":"U-component_of_WINDS"},"data":[0.0,0.0,0.0,0.0,0.0,0.0,0.0,0.0,0.0,0.0,0.0,0.0,0.0,0.0,0.0,0.0,0.0,0.0,0.0,0.0,0.0,0.0,0.0,0.0,0.0,0.0,0.0,0.0,0.0,0.0,0.0,0.0,0.0,0.0,0.0,0.0,0.0,0.0,0.0,0.0,0.0,0.0,0.0,0.0,0.0,0.0,0.0,0.0,0.0,0.0,0.0,0.0,0.0,0.0,0.0,0.0,0.0,0.0,0.0,0.0,0.0,0.0,0.0,0.0,0.0,0.0,0.0,0.0,0.0,0.0,0.0,0.0,0.0,0.0,0.0,0.0,0.0,0.0,0.0,0.0,0.0,0.0,0.0,0.0,0.0,0.0,0.0,0.0,0.0,0.0,0.0,0.0,0.0,0.0,0.0,0.0,0.0,0.0,0.0,0.0,0.0,0.0,0.0,0.0,0.0,0.0,0.0,0.0,0.0,0.0,0.0,0.0,0.0,0.0,0.0,0.0,0.0,0.0,0.0,0.0,0.0,0.0,0.0,0.0,0.0,0.0,0.0,0.0,0.0,0.0,0.0,0.0,0.0,0.0,0.0,0.0,0.0,0.0,0.0,0.0,0.0,0.0,0.0,0.0,0.0,0.0,0.0,0.0,0.0,0.0,0.0,0.0,0.0,0.0,0.0,0.0,0.0,0.0,0.0,0.0,0.0,0.0,0.0,0.0,0.0,0.0,0.0,0.0,0.0,0.0,0.0,0.0,0.0,0.0,0.0,0.0,0.0,0.0,0.0,0.0,0.0,0.0,0.0,0.0,0.0,0.0,0.0,0.0,0.0,0.0,0.0,0.0,0.0,0.0,0.0,0.0,0.0,0.0,0.0,0.0,0.0,0.0,0.0,0.0,0.0,0.0,0.0,0.0,0.0,0.0,0.0,0.0,0.0,0.0,0.0,0.0,0.0,0.0,0.0,0.0,0.0,0.0,0.0,0.0,0.0,0.0,0.0,0.0,0.0,0.0,0.0,0.0,0.0,0.0,0.0,0.0,0.0,0.0,0.0,0.0,0.0,0.0,0.0,0.0,0.0,0.0,0.0,0.0,0.0,0.0,0.0,0.0,0.0,0.0,0.0,0.0,0.0,0.0,0.0,0.0,0.0,0.0,0.0,0.0,0.0,0.0,0.0,0.0,0.0,0.0,0.0,0.0,0.0,0.0,0.0,0.0,0.0,0.0,0.0,0.0,0.0,0.0,0.0,0.0,0.0,0.0,0.0,0.0,0.0,0.0,0.0,0.0,0.0,0.0,0.0,0.0,0.0,0.0,0.0,0.0,0.0,0.0,0.0,0.0,0.0,0.0,0.0,0.0,0.0,0.0,0.0,0.0,0.0,0.0,0.0,0.0,0.0,0.0,0.0,0.0,0.0,0.0,0.0,0.0,0.0,0.0,0.0,0.0,0.0,0.0,0.0,0.0,0.0,0.0,0.0,0.0,0.0,0.0,0.0,0.0,0.0,0.0,0.0,0.0,0.0,0.0,0.0,0.0,0.0,0.0,0.0,0.0,0.0,0.0,0.0,0.0,0.0,0.0,0.0,0.0,0.0,0.0,0.0,0.0,0.0,0.0,0.0,0.0,0.0,0.0,0.0,0.0,0.0,0.0,0.0,0.0,0.0,0.0,0.0,0.0,0.0,0.0,0.0,0.0,0.0,0.0,0.0,0.0,0.0,0.0,0.0,0.0,0.0,0.0,0.0,0.0,0.0,0.0,0.0,0.0,0.0,0.0,0.0,0.0,0.0,0.0,0.0,0.0,0.0,0.0,0.0,0.0,0.0,0.0,0.0,0.0,0.0,0.0,0.0,0.0,0.0,0.0,0.0,0.0,0.0,0.0,0.0,0.0,0.0,0.0,0.0,0.0,0.0,0.0,0.0,0.0,0.0,0.0,0.0,0.0,0.0,0.0,0.0,0.0,0.0,0.0,0.0,0.0,0.0,0.0,0.0,0.0,0.0,0.0,0.0,0.0,0.0,0.0,0.0,0.0,0.0,0.0,0.0,0.0,0.0,0.0,0.0,0.0,0.0,0.0,0.0,0.0,0.0,0.0,0.0,0.0,0.0,0.0,0.0,0.0,0.0,0.0,0.0,0.0,0.0,0.0,0.0,0.0,0.0,0.0,0.0,0.0,0.0,0.0,0.0,0.0,0.0,0.0,0.0,0.0,0.0,0.0,0.0,0.0,0.0,0.0,0.0,0.0,0.0,0.0,0.0,0.0,0.0,0.0,0.0,0.0,0.0,0.0,0.0,0.0,0.0,0.0,0.0,0.0,0.0,0.0,0.0,0.0,0.0,0.0,0.0,0.0,0.0,0.0,0.0,0.0,0.0,0.0,0.0,0.0,0.0,0.0,0.0,0.0,0.0,0.0,0.0,0.0,0.0,0.0,0.0,0.0,0.0,0.0,0.0,0.0,0.0,0.0,0.0,0.0,0.0,0.0,0.0,0.0,0.0,0.0,0.0,0.0,0.0,0.0,0.0,0.0,0.0,0.0,0.0,0.0,0.0,0.0,0.0,0.0,0.0,0.0,0.0,0.0,0.0,0.0,0.0,0.0,0.0,0.0,0.0,0.0,0.0,0.0,0.0,0.0,0.0,0.0,0.0,0.0,0.0,0.0,0.0,0.0,0.0,0.0,0.0,0.0,0.0,0.0,0.0,0.0,0.0,0.0,0.0,0.0,0.0,0.0,0.0,0.0,0.0,0.0,0.0,0.0,0.0,0.0,0.0,0.0,0.0,0.0,0.0,0.0,0.0,0.0,0.0,0.0,0.0,0.0,0.0,0.0,0.0,0.0,0.0,0.0,0.0,0.0,0.0,0.0,0.0,0.0,0.0,0.0,0.0,0.0,0.0,0.0,0.0,0.0,0.0,0.0,0.0,0.0,0.0,0.0,0.0,0.0,0.0,0.0,0.0,0.0,0.0,0.0,0.0,0.0,0.0,0.0,0.0,0.0,0.0,0.0,0.0,0.0,0.0,0.0,0.0,0.0,0.0,0.0,0.0,0.0,0.0,0.0,0.0,0.0,0.0,0.0,0.0,0.0,0.0,0.0,0.0,0.0,0.0,0.0,0.0,0.0,0.0,0.0,0.0,0.0,0.0,0.0,0.0,0.0,0.0,0.0,0.0,0.0,0.0,0.0,0.0,0.0,0.0,0.0,0.0,0.0,0.0,0.0,0.0,0.0,0.0,0.0,0.0,0.0,0.0,0.0,0.0,0.0,0.0,0.0,0.0,0.0,0.0,0.0,0.0,0.0,0.0,0.0,0.0,0.0,0.0,0.0,0.0,0.0,0.0,0.0,0.0,0.0,0.0,0.0,0.0,0.0,0.0,0.0,0.0,0.0,0.0,0.0,0.0,0.0,0.0,0.0,0.0,0.0,0.0,0.0,0.0,0.0,0.0,0.0,0.0,0.0,0.0,0.0,0.0,0.0,0.0,0.0,0.0,0.0,0.0,0.0,0.0,0.0,0.0,0.0,0.0,0.0,0.0,0.0,0.0,0.0,0.0,0.0,0.0,0.0,0.0,0.0,0.0,0.0,0.0,0.0,0.0,0.0,0.0,0.0,0.0,0.0,0.0,0.0,0.0,0.0,0.0,0.0,0.0,0.0,0.0,0.0,0.0,0.0,0.0,0.0,0.0,0.0,0.0,0.0,0.0,0.0,0.0,0.0,0.0,0.0,0.0,0.0,0.0,0.0,0.0,0.0,0.0,0.0,0.0,0.0,0.0,0.0,0.0,0.0,0.0,0.0,0.0,0.0,0.0,0.0,0.0,0.0,0.0,0.0,0.0,0.0,0.0,0.0,0.0,0.0,0.0,0.0,0.0,0.0,0.0,0.0,0.0,0.0,0.0,0.0,0.0,0.0,0.0,0.0,0.0,0.0,0.0,0.0,0.0,0.0,0.0,0.0,0.0,0.0,0.0,0.0,0.0,0.0,0.0,0.0,0.0,0.0,0.0,0.0,0.0,0.0,0.0,0.0,0.0,0.0,0.0,0.0,0.0,0.0,0.0,0.0,0.0,0.0,0.0,0.0,0.0,0.0,0.0,0.0,0.0,0.0,0.0,0.0,0.0,0.0,0.0,0.0,0.0,0.0,0.0,0.0,0.0,0.0,0.0,0.0,0.0,0.0,0.0,0.0,0.0,0.0,0.0,0.0,0.0,0.0,0.0,0.0,0.0,0.0,0.0,0.0,0.0,0.0,0.0,0.0,0.0,0.0,0.0,0.0,0.0,0.0,0.0,0.0,0.0,0.0,0.0,0.0,0.0,0.0,0.0,0.0,0.0,0.0,0.0,0.0,0.0,0.0,0.0,0.0,0.0,0.0,0.0,0.0,0.0,0.0,0.0,0.0,0.0,0.0,0.0,0.0,0.0,0.0,0.0,0.0,0.0,0.0,0.0,0.0,0.0,0.0,0.0,0.0,0.0,0.0,0.0,0.0,0.0,0.0,0.0,0.0,0.0,0.0,0.0,0.0,0.0,0.0,0.0,0.0,0.0,0.0,0.0,0.0,0.0,0.0,0.0,0.0,0.0,0.0,0.0,0.0,0.0,0.0,0.0,0.0,0.0,0.0,0.0,0.0,0.0,0.0,0.0,0.0,0.0,0.0,0.0,0.0,0.0,0.0,0.0,0.0,0.0,0.0,0.0,0.0,0.0,0.0,0.0,0.0,0.0,0.0,0.0,0.0,0.0,0.0,0.0,0.0,0.0,0.0,0.0,0.0,0.0,0.0,0.0,0.0,0.0,0.0,0.0,0.0,0.0,0.0,0.0,0.0,0.0,0.0,0.0,0.0,0.0,0.0,0.0,0.0,0.0,0.0,0.0,0.0,0.0,0.0,0.0,0.0,0.0,0.0,0.0,0.0,0.0,0.0,0.0,0.0,0.0,0.0,0.0,0.0,0.0,0.0,0.0,0.0,0.0,0.0,0.0,0.0,0.0,0.0,0.0,0.0,0.0,0.0,0.0,0.0,0.0,0.0,0.0,0.0,0.0,0.0,0.0,0.0,0.0,0.0,0.0,0.0,0.0,0.0,0.0,0.0,0.0,0.0,0.0,0.0,0.0,0.0,0.0,0.0,0.0,0.0,0.0,0.0,0.0,0.0,0.0,0.0,0.0,0.0,0.0,0.0,0.0,0.0,0.0,0.0,0.0,0.0,0.0,0.0,0.0,0.0,0.0,0.0,0.0,0.0,0.0,0.0,0.0,0.0,0.0,0.0,0.0,0.0,0.0,0.0,0.0,0.0,0.0,0.0,0.0,0.0,0.0,0.0,0.0,0.0,0.0,0.0,0.0,0.0,0.0,0.0,0.0,0.0,0.0,0.0,0.0,0.0,0.0,0.0,0.0,0.0,0.0,0.0,0.0,0.0,0.0,0.0,0.0,0.0,0.0,0.0,0.0,0.0,0.0,0.0,0.0,0.0,0.0,0.0,0.0,0.0,0.0,0.0,0.0,0.0,0.0,0.0,0.0,0.0,0.0,0.0,0.0,0.0,0.0,0.0,0.0,0.0,0.0,0.0,0.0,0.0,0.0,0.0,0.0,0.0,0.0,0.0,0.0,0.0,0.0,0.0,0.0,0.0,0.0,0.0,0.0,0.0,0.0,0.0,0.0,0.0,0.0,0.0,0.0,0.0,0.0,0.0,0.0,0.0,0.0,0.0,0.0,0.0,0.0,0.0,0.0,0.0,0.0,0.0,0.0,0.0,0.0,0.0,0.0,0.0,0.0,0.0,0.0,0.0,0.0,0.0,0.0,0.0,0.0,0.0,0.0,0.0,0.0,0.0,0.0,0.0,0.0,0.0,0.0,0.0,0.0,0.0,0.0,0.0,0.0,0.0,0.0,0.0,0.0,0.0,0.0,0.0,0.0,0.0,0.0,0.0,0.0,0.0,0.0,0.0,0.0,0.0,0.0,0.0,0.0,0.0,0.0,0.0,0.0,0.0,0.0,0.0,0.0,0.0,0.0,0.0,0.0,0.0,0.0,0.0,0.0,0.0,0.0,0.0,0.0,0.0,0.0,0.0,0.0,0.0,0.0,0.0,0.0,0.0,0.0,0.0,0.5445,0.0,0.0,0.0,0.0,0.0,0.0,0.0,0.0,0.0,0.0,0.0,0.0,0.0,0.0,0.0,0.0,0.0,0.0,0.0,0.0,0.0,0.0,0.0,0.0,0.0,0.0,0.0,0.0,0.0,0.0,0.0,0.0,0.0,0.0,0.0,0.0,0.0,0.0,0.0,0.0,0.0,0.0,0.0,0.0,0.0,0.0,0.0,0.0,0.0,0.0,0.0,0.0,0.0,0.0,0.0,0.0,0.0,0.0,0.0,0.0,0.0,0.0,0.0,0.0,0.0,0.0,0.0,0.0,0.0,0.0,0.0,0.0,0.0,0.0,0.0,0.0,0.0,0.0,0.0,0.0,0.0,0.0,0.0,0.0,0.0,0.0,0.0,0.0,0.0,0.0,0.0,0.0,0.0,0.0,0.0,0.0,0.0,0.0,0.0,0.0,0.0,0.0,0.0,0.0,0.0,0.0,0.0,0.0,0.0,0.0,0.0,0.0,0.0,0.0,0.0,0.0,0.6367,0.0,0.0,0.0,0.0,0.0,0.0,0.0,0.0,0.0,0.0,0.0,0.0,0.0,0.0,0.0,0.0,0.0,0.0,0.0,0.0,0.0,0.0,0.0,0.0,0.0,0.0,0.0,0.0,0.0,0.0,0.0,0.0,0.0,0.0,0.0,0.0,0.0,0.0,0.0,0.0,0.0,0.0,0.0,0.0,0.0,0.0,0.0,0.0,0.0,0.0,0.0,0.0,0.0,0.0,0.0,0.0,0.0,0.0,0.0,0.0,0.0,0.0,0.0,0.0,0.0,0.0,0.0,0.0,0.0,0.0,0.0,0.0,0.0,0.0,0.0,0.0,0.0,0.0,0.0,0.0,0.0,0.0,0.0,0.0,0.0,0.0,0.0,0.0,0.0,0.0,0.0,0.0,0.0,0.0,0.0,0.0,0.0,0.0,0.0,0.0,0.0,0.0,0.0,0.0,0.0,0.0,0.0,0.0,0.8037,0.8076,0.8029,0.8446,0.8381,0.7913,0.775,0.7506,0.7214,0.7078,0.0,0.0,0.0,0.0,0.0,0.0,0.0,0.0,0.0,0.0,0.0,0.0,0.0,0.0,0.0,0.0,0.0,0.0,0.0,0.0,0.0,0.0,0.0,0.0,0.0,0.0,0.0,0.0,0.0,0.0,0.0,0.0,0.0,0.0,0.0,0.0,0.0,0.0,0.0539,0.1179,0.1408,0.123,0.0193,0.0,0.0,0.0,0.0,0.0,0.0,0.0,0.0,0.0,0.0,0.0,0.0,0.0,0.0,0.0,0.0,0.0,0.0,0.0,0.0,0.0,0.0,0.0,0.0,0.0,0.0,0.0,0.0,0.0,0.0,0.0,0.0,0.0,0.0,0.0,0.0,0.0,0.0,0.0,0.0,0.0,0.0,0.0,0.3441,0.3505,0.0,0.0,0.0,0.0,0.0,0.0,0.0,0.0,0.0,0.0,0.0,0.0,0.0,0.732,0.8701,0.8582,0.8702,0.9077,0.9283,0.9174,0.8849,0.9088,0.9181,0.9133,0.8604,0.0,0.8128,0.7985,0.0,0.0,0.0,0.0,0.0,0.0,0.0,0.0,0.0,0.0,0.0,0.0,0.0,0.0,0.0,0.0,0.0,0.0,0.0,0.0,0.0,0.0,0.0,0.0,0.0,0.0,0.0,0.0,0.0,0.0,0.0,0.0,0.0,0.0,0.0,0.0,0.0461,0.096,0.1113,0.1633,0.188,0.1845,0.0921,0.0411,0.0221,-0.0337,0.0,0.0,0.0,0.0,0.0,0.0,0.0,0.0,0.0,0.0,0.0,0.0,0.0,0.0,0.0,0.0,0.0,0.0,0.0,0.0,0.0,0.0,0.0,0.0,0.0,0.0,0.0,0.0,0.0,0.0,0.0,0.0,0.0,0.0,0.0,0.0,0.0,0.0,0.0,0.3566,0.4238,0.4123,0.4291,0.4354,0.0,0.0,0.0,0.0,0.0,0.0,0.0,0.0,0.0,0.6135,0.6384,0.7098,0.8294,0.8978,0.9453,0.9757,1.0751,1.0945,1.0428,1.0818,1.0842,1.0563,1.0298,1.0052,0.9759,0.8968,0.8772,0.8953,0.0,0.0,0.0,0.0,0.9338,0.9696,0.0,0.0,0.0,0.0,0.0,0.0,0.0,0.0,0.0,0.0,0.0,0.0,0.0,0.0,0.0,-0.0549,0.0,0.0,0.0,0.0,0.0,0.0,0.0,0.0,0.0,0.0,0.0,0.0182,0.0797,0.1174,0.1335,0.1825,0.2018,0.1949,0.1459,0.1068,0.0751,0.0136,-0.0305,0.0,0.0,0.0,0.0,0.0,0.0,0.0,0.0,0.0,0.0,0.0,0.0,0.0,0.0,0.0,0.0,0.0,0.0,0.0,0.0,0.0,0.0,0.0,0.0,0.0,0.0,0.0,0.0,0.0,0.0,0.0,0.0,0.0,0.0,0.0,0.0,0.0,0.0,0.3955,0.4675,0.4571,0.4674,0.4792,0.0,0.0,0.0,0.0,0.0,0.0,0.494,0.5178,0.5738,0.6696,0.6854,0.7398,0.8381,0.9324,0.9947,1.0278,1.1524,1.1993,1.1767,1.2119,1.2087,1.1786,1.1662,1.1495,1.1177,1.0044,0.9443,0.9295,0.9767,1.0058,1.0222,1.0296,1.0683,1.1159,0.0,0.0,0.0,0.0,0.0,0.0,0.0,0.0,0.0,0.0,0.0,0.0,0.0,0.0,-0.0334,-0.0144,-0.0123,-0.0151,0.0,0.0,0.0,0.0,0.0,0.0,0.0,0.0,0.0,0.0391,0.0868,0.1017,0.0855,0.1579,0.1818,0.1647,0.1986,0.1426,0.0211,-0.0265,-0.0487,-0.0568,0.0,0.0,0.0,0.0,0.0,0.0,0.0,0.0,0.0,0.0,0.0,0.0,0.0,0.0,0.0,0.0,0.0,0.0,0.0,0.0,0.0,0.0,0.0,0.0,0.0,0.0,0.0,0.0,0.0,0.0,0.0,0.0,0.0,0.0,0.0,0.0,0.0,0.0,0.0,0.4423,0.5025,0.0,0.0,0.0,0.0,0.4742,0.4989,0.5462,0.6164,0.6525,0.7386,0.8891,0.8892,0.9312,1.0261,1.0143,1.0288,1.0677,1.0942,1.157,1.2438,1.2293,1.2332,1.2519,1.2139,1.1962,1.19,1.1193,1.1142,1.1396,1.0045,1.003,1.0798,1.1125,1.1509,1.2015,0.0,0.0,0.0,0.0,0.0,0.0,0.0,0.0,0.0,0.0,0.0,0.0,0.0,0.0212,0.0538,0.0778,0.0804,0.0694,0.0455,0.0,0.0,0.0,0.0,0.0,0.0,0.0,0.0582,0.0846,0.1053,0.1069,0.0869,0.0996,0.0947,0.0763,0.0782,0.0528,0.0088,0.0306,0.0248,-0.0038,-0.0575,-0.0901,0.0,0.0,0.0,0.0,0.0,0.0,0.0,0.0,0.0,0.0,0.0,0.0,0.0,0.0,0.0,0.0,0.0,0.0,0.0,0.0,0.0,0.0,0.0,0.0,0.0,0.0,0.0,0.0,0.0,0.0,0.0,0.0,0.0,0.0,0.0,0.0,0.0,0.5236,0.5529,0.0,0.5698,0.5574,0.5546,0.5686,0.6029,0.6473,0.7045,0.7307,0.775,0.8432,0.8548,0.8985,0.9739,1.0153,1.0719,1.148,1.1861,1.2181,1.2489,1.2374,1.2148,1.1837,1.2036,1.2151,1.22,1.2249,1.2358,1.2423,1.1893,1.222,1.3013,1.3115,1.3528,1.4143,0.0,0.0,0.0,0.0,0.0,0.0,0.0,0.0,0.0,0.0,0.0,0.0103,0.0277,0.0675,0.1027,0.1284,0.1278,0.1111,0.076,0.0,0.0,0.0,0.0,0.0,0.0,0.068,0.0863,0.1134,0.1193,0.1144,0.0957,0.0729,0.0524,0.0333,0.0105,0.0,0.002,0.0427,0.054,0.039,-0.0177,-0.063,-0.0983,0.0,0.0,0.0,0.0,0.0,0.0,0.0,0.0,0.0,0.0,0.0,0.0,0.0,0.0,0.0,0.0,0.0,0.0,0.0,0.0,0.0,0.0,0.0,0.0,0.0,0.0,0.0,0.0,0.0,0.0,0.0,0.0,0.0,0.0,0.4654,0.5308,0.5959,0.6169,0.6393,0.6714,0.6726,0.6798,0.7021,0.7429,0.7824,0.8182,0.8083,0.8221,0.8704,0.851,0.8774,0.9547,0.9916,1.0601,1.1583,1.1797,1.2085,1.2462,1.2218,1.1981,1.1781,1.2332,1.2657,1.2838,1.3335,1.3659,1.3805,1.3407,1.3557,1.3999,1.4275,1.4756,1.5327,0.0,0.0,0.0,0.0,0.0,0.0,0.0,0.0,0.0,0.0,0.0135,0.036,0.0502,0.0811,0.1086,0.1273,0.1235,0.1022,0.0627,0.0231,0.0,0.0,0.0,0.0,0.0887,0.0845,0.0949,0.1197,0.1275,0.1229,0.1087,0.0821,0.0599,0.0392,0.0134,0.0022,0.0021,0.0,0.0259,0.062,-0.0102,-0.0427,-0.0548,0.0,0.0,0.0,0.0,0.0,0.0,0.0,0.0,0.0,0.0,0.0,0.0,0.0,0.0,0.0,0.0,0.0,0.0,0.0,0.0,0.0,0.0,0.0,0.0,0.0,0.0,0.0,0.0,0.0,0.0,0.0,0.0,0.0,0.47,0.5626,0.6304,0.6535,0.6986,0.7436,0.7845,0.8286,0.86,0.8755,0.9163,0.9475,0.9612,0.8888,0.8895,0.9879,0.8961,0.8924,0.9938,0.954,0.9884,1.0957,1.0675,1.1187,1.2369,1.1748,1.1793,1.2382,1.3001,1.3468,1.3818,1.439,1.5047,1.559,1.4467,1.3845,1.3654,1.4435,1.5024,1.5493,0.0,0.0,0.0,0.0,0.0,0.0,0.0,0.0,0.0,0.0,0.0181,0.0477,0.0755,0.1043,0.1216,0.1232,0.1125,0.09,0.0549,0.0,0.0,0.0,0.0,0.0,0.0974,0.1046,0.1143,0.1269,0.1286,0.1197,0.102,0.0956,0.081,0.061,0.0378,0.029,0.0286,0.0086,0.0083,0.0178,-0.0034,-0.023,-0.0439,0.0,0.0,0.0,0.0,0.0,0.0,0.0,0.0,0.0,0.0,0.0,0.0,0.0,0.0,0.0,0.0,0.0,0.0,0.0,0.0,0.0,0.0,0.0,0.0,0.0,0.0,0.0,0.0,0.0,0.0,0.0,0.4755,0.5824,0.5555,0.6161,0.7018,0.8049,0.8672,0.9187,0.9648,0.9614,0.9738,1.0112,0.9953,0.9902,1.0097,0.9905,0.9814,0.9908,0.9627,0.9948,1.0909,1.0612,1.1061,1.2195,1.1544,1.1513,1.2018,1.1458,1.1192,1.1227,1.2476,1.3095,1.3303,1.4538,1.5299,1.5643,1.5036,1.4937,1.5118,1.5339,1.5804,1.6398,0.0,0.0,0.0,0.0,0.0,0.0,0.0,0.0,0.0,0.0,0.0299,0.0555,0.0871,0.0858,0.0895,0.1054,0.0663,0.0427,0.0461,0.0,0.0,0.0,0.0,0.0855,0.1282,0.1257,0.1268,0.1345,0.1345,0.1292,0.1207,0.1089,0.0983,0.0849,0.0548,0.0389,0.0386,0.0113,0.0,0.0,0.0,-0.0222,-0.0558,-0.0445,-0.0635,-0.0957,-0.0837,-0.0871,-0.0973,-0.0962,0.0,0.0,0.0,0.0,0.0,0.0,0.0,0.0,0.0,0.0,0.0,0.0,0.0,0.0,0.0,0.0,0.0,0.0,0.0,0.0,0.0,0.0,0.0,0.0,0.5131,0.6257,0.6553,0.7422,0.8324,0.9198,0.9778,1.0256,1.0623,1.0692,1.0808,1.1053,1.0849,1.0792,1.0968,1.0649,1.0555,1.0722,1.0412,1.0662,1.1545,1.1223,1.1572,1.2509,1.1834,1.1653,1.1882,1.134,1.107,1.1071,1.2453,1.3347,1.3873,1.4934,1.5798,0.0,0.0,0.0,0.0,0.0,1.6248,1.6686,0.0,0.0,0.0,0.0,0.0,0.0,0.0,0.0,0.0,0.0,0.0,0.0584,0.0791,0.0472,0.0369,0.0694,0.0014,-0.0231,0.0,0.0,0.0,0.0298,0.029,0.0728,0.1654,0.1426,0.134,0.1395,0.1395,0.1423,0.1475,0.1245,0.1132,0.1135,0.0636,0.0448,0.042,0.0118,0.0,0.0,0.0,-0.0287,-0.0689,-0.0453,-0.0654,-0.1034,-0.0795,-0.0731,-0.0755,-0.0809,0.0,0.0,0.0,0.0,0.0,0.0,0.0,0.0,0.0,0.0,0.0,0.0,0.0,0.0,0.0,0.0,0.0,0.0,0.0,0.0,0.0,0.0,0.0,0.0,0.4993,0.594,0.7439,0.8836,0.9774,0.9948,1.0453,1.085,1.1025,1.1465,1.1737,1.1725,1.1737,1.1787,1.1946,0.0,0.0,0.0,0.0,1.1203,1.1942,1.158,1.1729,1.2328,1.1834,1.1725,1.197,1.1482,1.1352,1.159,1.2841,1.3918,1.4838,1.5363,1.6295,1.7297,1.6619,1.6156,1.5881,1.6248,1.6494,1.6695,0.0,0.0,0.0,0.0,0.0,0.0,0.0,0.0,0.0,0.0446,0.0535,0.0502,0.0279,0.0411,0.0283,-0.0341,-0.0495,-0.0609,0.0,0.0,-0.0327,0.0357,0.0283,0.0599,0.1437,0.141,0.1391,0.1404,0.1404,0.141,0.1421,0.1376,0.1366,0.1411,0.0882,0.0662,0.0679,0.0216,0.0,0.0,0.0,-0.0068,-0.015,-0.0103,-0.0138,-0.0228,-0.0179,-0.0265,-0.0388,-0.0357,-0.0395,-0.0471,-0.0437,0.0,0.0,0.0,0.0,0.0,0.0,0.0,0.0,0.0,0.0,0.0,0.0,0.0,0.0,0.0,0.0,0.0,0.0,0.0,0.0,0.4637,0.6216,0.7426,0.7374,0.8766,0.976,0.9687,1.0574,1.1209,1.123,1.1669,1.2095,1.2457,1.2159,1.2022,1.2211,1.2084,1.1948,1.1906,1.1754,1.1861,1.2219,1.2158,1.229,1.2626,0.0,0.0,1.2535,1.2214,1.2183,1.2419,1.3424,1.3982,1.4253,1.5152,1.5877,1.6467,1.6684,1.6743,1.6688,1.6762,1.69,1.7106,0.0,0.0,0.0,0.0,0.0,0.0,0.0,0.0,0.0,0.0,0.0263,0.0181,-0.0115,-0.0239,-0.0417,-0.0726,-0.0718,0.0,0.0,-0.0971,-0.0376,0.0551,0.0403,0.0799,0.1888,0.1695,0.1611,0.1595,0.1465,0.1428,0.1457,0.1443,0.1474,0.148,0.0973,0.0771,0.0761,0.0221,0.0,0.0,0.0,0.0,0.0,0.0,0.0,0.0,0.0,-0.0059,-0.0153,-0.0108,-0.0139,-0.0187,-0.0161,-0.0225,-0.0235,0.0,0.0,0.0,0.0,0.0,0.0,0.0,0.0,0.0,0.0,0.0,0.0,0.0,0.0,0.3307,0.3677,0.0,0.4851,0.5187,0.6211,0.7066,0.7454,0.8208,0.895,0.9489,1.0639,1.1369,1.1316,1.195,1.2443,1.2689,1.2485,1.2395,1.2497,1.2506,1.2445,1.2292,1.2292,1.2352,1.2506,1.2506,1.2578,1.2699,1.2433,1.2374,1.2498,1.235,1.2406,1.2677,1.3852,1.4405,1.4509,1.5431,1.6078,1.6519,1.6752,1.6974,1.7238,1.7547,1.7764,1.7978,0.0,0.0,0.0,0.0,0.0,0.0,0.0,0.0,0.0,0.0,-0.0079,-0.0197,-0.0517,-0.0899,-0.1068,0.0,0.0,0.0,0.0,-0.122,-0.0522,0.0688,0.0452,0.0881,0.2112,0.1966,0.1823,0.1653,0.1603,0.157,0.1573,0.1601,0.1538,0.1424,0.0981,0.0768,0.0699,0.0202,0.0,0.0,0.0,0.0,0.0,0.0,0.0,0.0,0.0,0.0,0.0,0.0,0.0,0.0,0.0,-0.0084,-0.0129,0.0188,-0.0042,0.0,0.0,0.0,0.0,0.0,0.0,0.0,0.0,0.3157,0.3256,0.3422,0.3563,0.3816,0.4262,0.457,0.5002,0.5808,0.6042,0.6464,0.7458,0.7636,0.8027,0.8974,1.0287,1.11,1.1024,1.1703,1.2229,1.24,1.2468,1.248,1.2433,1.2652,1.2759,1.2711,1.2699,1.2699,1.2699,1.2699,1.2699,1.2699,1.2535,1.248,1.253,1.2547,1.269,1.2945,1.4102,1.4648,1.4796,1.5624,1.6236,1.668,1.6977,1.7392,1.7825,1.8248,1.8507,1.8673,0.0,0.0,0.0,0.0,0.0,0.0,0.0,0.0,0.0,0.0,0.0,0.0,0.0,0.0,0.0,0.0,0.0,0.0,-0.1479,-0.1562,-0.0962,0.0462,0.0172,0.0337,0.1148,0.1873,0.1893,0.1188,0.1874,0.209,0.1861,0.1913,0.17,0.123,0.0931,0.0667,0.0423,0.013,0.0,0.0,0.0,0.0,0.0,0.0,0.0,0.0,0.0,0.0,0.0,0.0,0.0,0.0,0.0,-0.0091,-0.019,-0.015,-0.026,-0.0356,-0.0123,0.0631,0.1513,0.2171,0.2748,0.3276,0.0,0.3878,0.4045,0.4301,0.4512,0.4771,0.5179,0.5415,0.5747,0.6334,0.6684,0.6969,0.7216,0.7453,0.7625,0.7634,0.8878,0.9803,1.0028,1.0139,1.0551,1.1392,1.1674,1.1718,1.1467,1.2483,1.2942,1.2711,1.2699,1.2699,1.2699,1.2699,1.2699,1.2699,1.2908,1.3099,1.3277,1.3463,1.3694,1.3946,1.4099,1.4189,1.4259,1.5122,1.5756,1.6316,1.7621,1.8422,1.8806,1.8527,1.8397,1.8489,0.0,0.0,0.0,0.0,0.0,0.0,0.0,0.0,0.0,0.0,0.0,0.0,0.0,0.0,0.0,0.0,0.0,0.0,-0.1433,-0.1425,-0.0983,0.0,-0.0156,0.0046,0.0753,0.1471,0.1677,0.1332,0.199,0.2172,0.1948,0.1993,0.1712,0.1187,0.091,0.0641,0.0394,0.0104,0.0,0.0,0.0,0.0,0.0,0.0,0.0,0.0,0.0,0.0,0.0,0.0,0.0,0.0,0.0,-0.0035,-0.0083,-0.0079,-0.0119,0.0014,0.0855,0.1805,0.2742,0.3509,0.4001,0.4391,0.4705,0.4757,0.4826,0.5132,0.5206,0.5351,0.584,0.599,0.6241,0.6805,0.6959,0.7106,0.7389,0.7453,0.738,0.7143,0.7636,0.8271,0.9017,0.9496,0.9971,1.0443,1.1109,1.1424,1.1305,1.229,1.2831,1.2711,1.2699,1.2699,1.2699,1.2699,1.2699,1.2699,1.2966,1.3137,1.3243,1.354,1.411,1.4824,1.4313,1.4398,1.4845,1.4699,1.5362,1.6512,1.7143,1.8174,1.9347,1.9468,1.9507,1.9545,0.0,0.0,0.0,0.0,0.0,0.0,0.0,0.0,0.0,0.0,0.0,0.0,0.0,0.0,0.0,0.0,0.0,0.0,0.0,-0.1275,-0.0934,-0.0294,-0.0336,-0.0163,0.031,0.0964,0.1316,0.1309,0.1927,0.2187,0.212,0.2129,0.1758,0.1095,0.0916,0.0617,0.0288,0.0078,0.0,0.0,0.0,0.0,0.0,0.0,0.0,0.0,0.0,0.0,0.0,0.0,0.0,0.0,0.0,0.0,0.0,0.0,0.0,0.0282,0.1597,0.2563,0.3437,0.4429,0.4962,0.5327,0.5545,0.5585,0.5633,0.587,0.5825,0.5874,0.6257,0.635,0.6565,0.712,0.7177,0.728,0.7614,0.7519,0.7301,0.6992,0.6857,0.7126,0.7977,0.8593,0.9222,0.9945,1.0629,1.1162,1.1488,1.2394,1.2928,1.2928,1.2856,1.2841,1.2915,1.2854,1.2839,1.2903,1.3158,1.3264,1.3285,1.3638,1.4258,1.5013,1.4377,1.4502,1.5127,1.4657,1.5417,1.6949,1.7139,1.8278,1.9843,2.0235,2.0352,2.0333,0.0,0.0,0.0,0.0,0.0,0.0,0.0,0.0,0.0,0.0,0.0,0.0,0.0,0.0,0.0,0.0,0.0,0.0,0.0,-0.1293,-0.0964,-0.0235,-0.0263,-0.0327,-0.0357,0.042,0.083,0.0831,0.1611,0.2142,0.2397,0.2466,0.1891,0.0804,0.0882,0.0577,0.0,0.0,0.0,0.0,0.0,0.0,0.0,0.0,0.0,0.0,0.0,0.0,0.0,0.0,0.0,0.0,0.0,0.0,0.0,0.0,0.0,0.0268,0.1472,0.226,0.302,0.4294,0.5146,0.5755,0.6013,0.6279,0.647,0.647,0.641,0.6372,0.64,0.6492,0.6718,0.7143,0.7426,0.7645,0.7787,0.758,0.7335,0.7105,0.6749,0.6627,0.6927,0.6975,0.791,1.0117,1.0311,1.0848,1.2007,1.2973,1.3495,1.3495,1.322,1.3219,1.347,1.3231,1.3179,1.337,1.3582,1.3667,1.3688,1.3955,1.4116,1.4145,1.4103,1.4263,1.4569,1.5127,1.6198,1.7558,1.8256,1.9253,2.0313,2.0508,2.0469,2.0333,0.0,0.0,0.0,0.0,0.0,0.0,0.0,0.0,0.0,0.0,0.0,0.0,0.0,0.0,0.0,0.0,-0.1315,0.0,0.0,-0.1139,-0.0966,-0.0798,-0.0909,-0.0795,-0.0417,0.0394,0.1,0.1406,0.2292,0.26,0.2335,0.2349,0.1817,0.081,0.0834,0.0525,0.0,0.0,0.0,0.0,0.0,0.0047,0.0133,0.0141,0.0128,0.0133,0.0,0.0,0.0,0.0,0.0,0.0,0.0,0.0,0.0025,0.0154,0.0232,0.0649,0.2384,0.3177,0.3926,0.5683,0.6485,0.6873,0.7049,0.696,0.6837,0.6897,0.6394,0.5942,0.5996,0.604,0.6205,0.6672,0.7139,0.7525,0.7651,0.7584,0.7353,0.6884,0.6803,0.6776,0.6755,0.6755,0.741,0.8984,0.9834,1.0753,1.179,1.2892,1.3588,1.3746,1.3683,1.3768,1.4024,1.3945,1.3929,1.3995,1.4194,1.4265,1.4246,1.4554,1.4477,1.4116,1.4295,1.4322,1.4271,1.4593,1.5348,1.6396,1.7363,1.8439,1.9529,2.0157,2.0605,2.0916,0.0,0.0,0.0,0.0,0.0,0.0,0.0,0.0,0.0,0.0,0.0,0.0,0.0,0.0,0.0,0.0,0.0,-0.1163,0.0,0.0,-0.0913,-0.0858,-0.0995,-0.0849,-0.0336,0.0125,0.0705,0.1369,0.1768,0.1995,0.208,0.1552,0.0933,0.0277,-0.0023,-0.0446,-0.0871,-0.0593,-0.0447,-0.0374,-0.0044,0.0147,0.0277,0.0246,0.0257,0.0,0.0,0.0,0.0,0.0,0.0101,0.0148,0.0148,0.0146,0.0178,0.0356,0.0441,0.0851,0.2637,0.3592,0.449,0.6247,0.7129,0.757,0.7719,0.7439,0.7118,0.6991,0.6311,0.5692,0.5575,0.5504,0.565,0.6171,0.6668,0.7103,0.7394,0.7411,0.7312,0.698,0.6958,0.6965,0.6946,0.6939,0.7599,0.9175,0.9989,1.1061,1.2552,1.3353,1.3907,1.4167,1.4195,1.4292,1.4553,1.4463,1.4456,1.4546,1.4681,1.467,1.4501,1.4723,1.4571,1.4116,1.4282,1.4322,1.4271,1.4614,1.5295,1.6266,1.727,1.8415,1.9574,2.0246,2.0914,2.1425,0.0,0.0,0.0,0.0,0.0,0.0,0.0,0.0,0.0,0.0,0.0,0.0,0.0,0.0,0.0,0.0,0.0,0.0,0.0,0.0,0.0,-0.0429,-0.0595,-0.0523,-0.0173,-0.0285,0.0054,0.0851,0.0279,0.0571,0.1658,0.0259,-0.0453,-0.0579,-0.1393,-0.1995,-0.2299,-0.1538,-0.1132,-0.0943,-0.0115,0.0287,0.0397,0.0337,0.0,0.0,0.0,0.0,0.0,0.0233,0.0294,0.0404,0.041,0.0408,0.0444,0.0579,0.0628,0.0917,0.2257,0.3465,0.4656,0.5988,0.7032,0.7771,0.7948,0.7678,0.724,0.6763,0.6166,0.5603,0.5137,0.4955,0.5085,0.5705,0.6103,0.6532,0.7058,0.7146,0.7222,0.7403,0.7256,0.7229,0.7403,0.7446,0.8352,1.0505,0.0,1.1672,1.4076,1.4299,1.4451,1.4723,1.4733,1.4849,1.5034,1.4796,1.4801,1.5026,1.5026,1.4879,1.4541,1.4554,1.4416,1.4156,1.4191,1.433,1.4566,1.5155,1.6002,1.7009,1.7858,1.9035,2.028,2.0717,2.1279,2.1793,0.0,0.0,0.0,0.0,0.0,0.0,0.0,0.0,0.0,0.0,0.0,0.0,0.0,0.0,0.0,0.0,0.0,0.0,0.0,0.0,0.0,0.0,0.0,0.0,0.0,0.0,0.0,0.1464,0.137,0.1376,0.1472,0.1094,0.0713,0.0362,0.0145,-0.011,-0.0318,-0.0128,-0.0018,0.0036,0.0,0.0429,0.0542,0.0,0.0,0.0,0.0,0.0,0.0508,0.0385,0.0401,0.0483,0.0532,0.0587,0.0668,0.0846,0.0977,0.1325,0.2615,0.3263,0.4079,0.6092,0.6713,0.7014,0.7689,0.7418,0.6864,0.6296,0.5454,0.4749,0.4476,0.4612,0.4979,0.5684,0.6411,0.71,0.7678,0.7909,0.7909,0.7719,0.7868,0.7909,0.7719,0.7969,0.8702,1.0068,1.0772,1.1694,1.3036,1.4254,1.503,1.5272,1.5302,1.5381,1.5594,1.5527,1.5534,1.5605,1.5605,1.5458,1.5177,1.5368,1.5217,1.4794,1.5201,1.5192,1.4896,1.5152,1.5445,1.5822,1.6639,1.7414,1.8251,1.9706,2.07,2.1393,0.0,0.0,0.0,0.0,0.0,0.0,0.0,0.0,0.0,0.0,0.0,0.0,0.0,0.0,0.0,0.0,0.0,0.0,0.0,0.0,0.0,0.0,0.0,0.0,0.0,0.0,0.0,0.0,0.0,0.0,0.1123,0.053,0.0217,0.0111,-0.0302,-0.0564,-0.0678,-0.0322,0.0,0.0,0.0,0.0,0.0,0.0,0.0,0.0,0.0,0.0611,0.0686,0.0633,0.0677,0.0768,0.0834,0.0905,0.0992,0.1171,0.1247,0.1595,0.2997,0.3753,0.4634,0.6547,0.714,0.7357,0.7656,0.708,0.6309,0.5572,0.4762,0.4137,0.3969,0.424,0.4706,0.5383,0.6207,0.6987,0.7651,0.8052,0.8303,0.8274,0.8568,0.8713,0.8528,0.8718,0.9295,1.0398,1.1185,1.2031,1.2996,1.4482,1.5333,1.5499,1.5594,1.5689,1.5808,1.5808,1.5808,1.5808,1.5808,1.5648,1.5404,1.5565,1.5391,1.5022,0.0,1.5282,1.5017,1.5196,1.5351,1.5576,1.6279,1.6976,1.7797,1.9418,2.024,2.0771,0.0,0.0,0.0,0.0,0.0,0.0,0.0,0.0,0.0,0.0,0.0,0.0,0.0,0.0,0.0,0.0,0.0,0.0,0.0,0.0,0.0,0.0,0.0,0.0,0.0,0.0,0.0,0.0,0.0,0.0,0.0,0.0,0.0,0.0,0.0,0.0,0.0,0.0,0.0,0.0,0.0,0.0,0.0,0.0,0.0,0.0,0.0634,0.0696,0.0818,0.0896,0.1018,0.1133,0.1196,0.1285,0.1366,0.1481,0.1489,0.1778,0.3297,0.4385,0.5446,0.7015,0.7714,0.7937,0.7597,0.6688,0.568,0.4851,0.4191,0.3756,0.3695,0.4003,0.4476,0.516,0.5886,0.6634,0.7449,0.8022,0.851,0.8958,0.9286,0.9452,0.9452,0.9482,0.9957,1.1088,1.1798,1.2593,1.3556,1.4869,1.5586,1.5547,1.5713,1.5808,1.5808,1.5808,1.5808,1.5808,1.5808,1.5675,1.5458,1.5458,1.5347,1.5106,1.5151,1.5151,1.5115,1.5286,1.5554,1.5846,1.6273,1.6988,1.7918,1.9239,1.972,1.9985,0.0,0.0,0.0,0.0,0.0,0.0,0.0,0.0,0.0,0.0,0.1032,0.0959,0.0,0.0,0.0,0.0,0.0,0.0,0.0,0.0,0.0,0.0,0.0,0.0,0.0,0.0963,0.1053,0.1031,0.0946,0.0,0.0,0.0,0.0,0.0,0.0,0.0,0.0,0.0,0.0,0.0,0.0,0.0,0.0,0.0,0.0,0.0,0.0683,0.0734,0.0832,0.1007,0.1146,0.1268,0.1354,0.1454,0.1551,0.1579,0.1641,0.2028,0.3424,0.3827,0.4467,0.6801,0.7027,0.6744,0.7096,0.6315,0.5324,0.4668,0.4054,0.3735,0.4045,0.4382,0.4931,0.5926,0.6403,0.7059,0.829,0.8557,0.8892,0.9559,0.9707,0.9734,0.9734,0.9815,1.0371,1.1504,1.2581,1.3459,1.4128,1.5425,1.6037,1.5761,1.5784,1.5808,1.5808,1.5808,1.5808,1.5808,1.5808,1.5781,1.5728,1.5728,1.5701,1.5685,1.5896,0.0,1.5658,1.5708,1.5753,1.5796,1.5662,1.5989,1.6669,1.7887,1.8479,1.8934,0.0,0.0,0.0,0.0,0.0,0.0,0.0,0.1234,0.1264,0.1295,0.1217,0.1152,0.1152,0.101,0.0908,0.0,0.0,0.0,0.0,0.0,0.0,0.0,0.0,0.0,0.0,0.1142,0.1176,0.1098,0.0,0.1098,0.09,0.0976,0.0898,0.0697,0.0697,0.0,0.0,0.0,0.0,0.0,0.0,0.0,0.0,0.0,0.0,0.0,0.0,0.0737,0.0923,0.1409,0.172,0.1863,0.1546,0.1522,0.1722,0.2355,0.2172,0.2169,0.4138,0.4609,0.4987,0.6824,0.7199,0.7007,0.6744,0.5874,0.4933,0.4184,0.3775,0.3641,0.3941,0.4587,0.5259,0.5842,0.6363,0.7077,0.8177,0.8549,0.8987,0.9823,1.0112,1.0284,1.0284,1.0342,1.1091,1.2829,1.3472,1.4057,1.472,1.575,1.623,1.6072,1.5888,1.5808,1.5808,1.5808,1.5808,1.5808,1.5808,1.5808,1.5808,1.5808,1.5808,1.5808,1.5927,1.5998,1.6021,1.6004,1.6088,1.6197,1.607,1.6088,1.6343,1.7428,1.7684,1.7731,0.0,0.0,0.0,0.0,0.0,0.0,0.0,0.1269,0.1301,0.1325,0.1262,0.1223,0.1223,0.1157,0.1127,0.0,0.0,0.0,0.0,0.0,0.0,0.0,0.0,0.0,0.0,0.0,0.0,0.1165,0.1266,0.0,0.0,0.0,0.0,0.0,0.0697,0.0697,0.0697,0.0,0.0,0.0,0.0,0.0697,0.0,0.0,0.0,0.0,0.0,0.0875,0.1163,0.1902,0.2358,0.2519,0.1972,0.2015,0.2373,0.2999,0.2845,0.2855,0.4647,0.5446,0.6018,0.6953,0.7455,0.7461,0.6525,0.5532,0.4592,0.3803,0.3555,0.3573,0.389,0.4661,0.5335,0.5609,0.623,0.6976,0.7864,0.8429,0.9081,0.9949,1.0422,1.0688,1.0688,1.0688,1.1528,1.3572,1.4191,1.4828,1.5579,1.6064,1.6297,1.6297,1.5955,1.5808,1.5808,1.5808,1.5808,1.5808,1.5808,1.5808,1.5808,1.5808,1.5832,1.5879,1.5832,1.5974,1.6295,1.6177,1.6305,1.6588,1.6471,1.6376,1.6376,1.7162,1.7138,1.6941,0.0,0.0,0.0,0.0,0.0,0.0,0.0,0.13,0.1323,0.1389,0.1333,0.1296,0.1296,0.1226,0.1219,0.0,0.0,0.0,0.0,0.0,0.0,0.0,0.0,0.0,0.0,0.0,0.0,0.1377,0.1389,0.0,0.0,0.0,0.0,0.0,0.0,0.0697,0.0697,0.0697,0.0,0.0,0.0,0.0,0.0,0.0,0.0,0.0,0.0,0.1366,0.1642,0.2387,0.2773,0.2931,0.2818,0.3479,0.4073,0.2854,0.3663,0.4815,0.4139,0.5455,0.7053,0.7098,0.7275,0.7233,0.6477,0.5385,0.4395,0.3885,0.358,0.3625,0.4312,0.4611,0.4984,0.567,0.6242,0.6906,0.7799,0.8528,0.9273,1.0093,1.0485,1.0688,1.0688,1.0688,1.1236,1.2472,1.454,1.611,1.6974,1.6555,1.6297,1.6297,1.5955,1.5808,1.5808,1.5808,1.5808,1.5808,1.5808,1.5808,1.5808,1.5808,1.5927,1.6153,1.5903,1.6092,0.0,1.6045,1.614,1.6541,1.6069,1.6163,1.6565,1.6683,1.68,1.712,0.0,0.0,0.0,0.0,0.0,0.0,0.1295,0.1338,0.1373,0.1397,0.1338,0.1315,0.136,0.1301,0.127,0.1298,0.0,0.0,0.0,0.0,0.0,0.0,0.0,0.0,0.0,0.0,0.14,0.14,0.14,0.0,0.0,0.0,0.0,0.0,0.0,0.0697,0.0697,0.0697,0.0,0.0,0.0,0.0,0.0,0.0,0.0,0.0,0.0,0.0,0.2195,0.2978,0.332,0.3458,0.3676,0.4339,0.4909,0.4362,0.441,0.4806,0.5541,0.6416,0.7103,0.6903,0.7201,0.726,0.6239,0.5355,0.4531,0.3824,0.3721,0.3906,0.4409,0.4841,0.5253,0.567,0.5988,0.6484,0.7363,0.784,0.8545,0.9713,1.0178,1.0487,1.0672,1.0688,1.113,1.2194,1.4516,1.5917,1.5986,1.6531,1.6739,1.654,1.6246,1.6099,1.6099,1.5888,1.5808,1.5808,1.5808,1.5808,1.5808,1.5808,1.595,1.6201,1.6106,1.6366,0.0,1.6447,1.6574,1.6988,1.6636,1.6636,1.6838,1.6838,1.6909,1.705,0.0,0.0,0.0,0.0,0.0,0.1304,0.1301,0.1357,0.14,0.14,0.1362,0.1354,0.1394,0.1362,0.1333,0.1334,0.1331,0.0,0.0,0.0,0.0,0.0,0.0,0.0,0.0,0.0,0.14,0.14,0.1377,0.1299,0.0,0.0,0.0943,0.0754,0.0,0.0,0.0,0.0,0.0,0.0,0.0,0.0,0.0,0.0,0.0,0.0,0.0,0.0,0.0,0.0,0.0,0.3922,0.4134,0.4569,0.4992,0.4919,0.501,0.5295,0.6081,0.6891,0.7396,0.6839,0.7027,0.7054,0.5983,0.5193,0.4504,0.3803,0.3793,0.4046,0.4475,0.4993,0.5409,0.5641,0.5931,0.6343,0.6958,0.7447,0.8122,0.9185,0.9721,1.017,1.0528,1.0631,1.113,1.2192,1.4185,1.5352,1.5273,1.6575,1.7086,1.6593,1.6286,1.6139,1.6139,1.5915,1.5808,1.5808,1.5808,1.5808,1.5808,1.5879,1.6021,1.6201,1.6295,1.6579,0.0,1.6706,1.688,1.7255,1.6988,1.6979,1.7073,1.7026,1.705,1.7097,0.0,0.0,0.0,0.0,0.0,0.0,0.1301,0.136,0.14,0.14,0.14,0.14,0.14,0.14,0.14,0.1397,0.1397,0.0,0.0,0.0,0.0,0.0,0.0,0.0,0.0,0.0,0.14,0.14,0.1333,0.1299,0.1288,0.1021,0.09,0.0888,0.0,0.0,0.0,0.0,0.0,0.0,0.0,0.0,0.0,0.0,0.0,0.0,0.0,0.0,0.0,0.0,0.0,0.0,0.0,0.4142,0.4237,0.3834,0.5405,0.6887,0.5101,0.6555,0.8279,0.7015,0.6705,0.6512,0.5766,0.4882,0.4126,0.3853,0.3749,0.3905,0.4576,0.4975,0.5284,0.5559,0.6221,0.6693,0.67,0.7618,0.8378,0.8574,0.9202,0.977,1.0162,1.0512,1.1181,1.2309,1.3464,0.0,1.5345,1.6807,1.7207,1.6324,1.5992,1.5808,1.5808,1.5808,1.5808,1.5808,1.5808,1.5808,1.5808,1.6069,1.6201,1.6224,1.6471,1.6753,0.0,1.6706,1.688,1.7255,1.68,1.6894,1.7255,1.7073,1.7129,1.7302,0.0,0.0,0.0,0.0,0.0,0.0,0.0,0.2389,0.2422,0.2422,0.2422,0.2422,0.2422,0.2422,0.2422,0.2422,0.1802,0.0,0.0,0.0,0.0,0.0,0.0,0.0,0.0,0.0,0.1355,0.14,0.1377,0.1344,0.1299,0.121,0.1077,0.09,0.0855,0.0787,0.0,0.0,0.0,0.0,0.0,0.0,0.0,0.0,0.0,0.0,0.0,0.0,0.0,0.0,0.0,0.0,0.0,0.0,0.0,0.4225,0.5173,0.6213,0.6238,0.6993,0.7602,0.6884,0.6626,0.6314,0.5401,0.4819,0.4389,0.4122,0.4124,0.4351,0.4936,0.5208,0.5438,0.576,0.6009,0.6286,0.6643,0.732,0.8053,0.8859,0.977,1.0715,1.163,1.1801,1.2307,1.3365,1.4611,1.5326,1.5285,1.6575,1.7086,1.658,1.6473,1.6339,1.6139,1.5901,1.5808,1.5808,1.5808,1.5915,1.615,1.5997,1.6143,1.6549,1.6592,1.6753,1.7003,1.7059,1.7162,1.7279,1.7138,1.7162,1.7279,1.7223,1.7246,1.7302,0.0,0.0,0.0,0.0,0.0,0.0,0.0,0.2871,0.2898,0.2898,0.2898,0.2898,0.2898,0.2898,0.2898,0.2898,0.2322,0.0,0.0,0.0,0.0,0.0,0.0,0.0,0.0,0.1721,0.1636,0.1706,0.1477,0.134,0.1294,0.1226,0.108,0.09,0.0843,0.0776,0.0,0.0,0.0,0.0,0.0,0.0,0.1721,0.0,0.0,0.0,0.0,0.0,0.0,0.0,0.0,0.0,0.0,0.0,0.0,0.0,0.4912,0.5547,0.6421,0.6817,0.6918,0.6615,0.6291,0.5868,0.5195,0.4763,0.4506,0.4402,0.4439,0.4618,0.5076,0.5274,0.5489,0.5832,0.6002,0.6229,0.6652,0.7279,0.8057,0.9095,0.9991,1.0969,1.2101,1.2323,1.3035,1.4552,1.542,1.5954,1.6099,1.6898,1.7207,1.6913,1.6685,1.6406,1.6112,1.5901,1.5808,1.5808,1.5808,1.5901,1.6099,1.5983,1.6221,1.6711,1.6728,1.6895,0.0,1.7267,1.7302,1.7302,1.7302,1.7302,1.7302,1.7302,1.7302,1.7302,0.0,0.0,0.0,0.0,0.0,0.0,0.0,0.2998,0.2998,0.2998,0.2998,0.2998,0.2998,0.2998,0.2998,0.2998,0.0,0.0,0.0,0.0,0.0,0.0,0.0,0.0,0.0,0.2355,0.2105,0.2141,0.1592,0.1309,0.1309,0.1157,0.1054,0.0971,0.0869,0.0823,0.0,0.0,0.0,0.0,0.0,0.0,0.0,0.0,0.0,0.0,0.0,0.0,0.0,0.0,0.0,0.0,0.0,0.0,0.0,0.0,0.0,0.0,0.0,0.6116,0.6224,0.6185,0.5728,0.524,0.5077,0.4703,0.0,0.4665,0.4651,0.4727,0.5064,0.5231,0.5448,0.5863,0.6205,0.6505,0.6701,0.7521,0.8422,0.9299,0.9961,1.0785,1.1925,1.2421,1.3599,1.5861,1.6021,1.6472,1.7529,1.7608,1.7474,1.7206,1.6618,1.6166,1.5835,1.5835,1.5821,1.5808,1.5808,1.5821,1.5835,1.6059,1.6341,0.0,1.6861,1.708,0.0,1.7269,1.7255,1.7279,1.7279,1.7279,1.7302,1.7302,1.7302,1.7302,0.0,0.0,0.0,0.0,0.0,0.0,0.0,0.0,0.0,0.0,0.3976,0.3976,0.3976,0.3976,0.3976,0.0,0.0,0.0,0.0,0.0,0.0,0.0,0.0,0.0,0.0,0.211,0.1876,0.1591,0.1501,0.1452,0.1466,0.1826,0.1878,0.1683,0.195,0.196,0.0,0.0,0.0,0.0,0.0,0.0,0.0,0.0,0.0,0.0,0.3839,0.3826,0.0,0.0,0.0,0.0,0.0,0.0,0.0,0.0,0.4525,0.4642,0.5014,0.0,0.5435,0.503,0.5038,0.503,0.0,0.4399,0.4411,0.4722,0.4766,0.4911,0.5388,0.5504,0.5654,0.6057,0.6416,0.6725,0.7031,0.824,0.9193,0.9518,1.0923,1.229,1.3336,1.4427,1.5675,1.7094,1.7199,1.7318,1.7582,1.7608,1.7474,1.7206,1.6819,1.646,1.6203,1.6166,1.6059,1.5808,1.5808,1.5928,1.619,1.5986,1.6064,1.6381,1.6395,1.6431,1.6487,1.6687,1.6894,1.7073,1.7073,1.7153,1.7302,1.7302,1.7302,1.7302,0.0,0.0,0.0,0.0,0.0,0.0,0.0,0.0,0.0,0.0,0.0,0.4294,0.4294,0.4294,0.0,0.0,0.0,0.0,0.0,0.0,0.0,0.0,0.0,0.3109,0.3109,0.2865,0.2671,0.2553,0.2367,0.2303,0.2326,0.2628,0.2567,0.2219,0.2284,0.237,0.0,0.0,0.0,0.0,0.3153,0.0,0.0,0.0,0.0,0.0,0.3847,0.3897,0.0,0.4005,0.403,0.4094,0.0,0.0,0.0,0.0,0.4626,0.4779,0.48,0.4864,0.4863,0.4574,0.467,0.4747,0.4455,0.4459,0.4584,0.4767,0.4873,0.5043,0.5397,0.5462,0.5679,0.6326,0.7129,0.7924,0.8652,0.9128,0.9721,1.0548,1.164,1.2963,1.4654,1.5459,1.6366,1.7503,1.7608,1.7608,1.7608,1.7608,1.7541,1.7381,1.7086,1.6725,1.6297,1.6163,1.5992,1.5808,1.5808,1.5888,1.6059,1.5875,1.604,1.6478,1.6419,1.6507,1.6751,1.6881,1.7012,1.7129,1.7129,1.72,1.7302,1.7302,1.7302,1.7302,0.0,0.0,0.0,0.0,0.0,0.0,0.0,0.0,0.0,0.0,0.0,0.0,0.0,0.0,0.0,0.0,0.0,0.0,0.0,0.0,0.0,0.0,0.0,0.3862,0.4213,0.3807,0.3651,0.3772,0.343,0.3247,0.3242,0.3409,0.3267,0.286,0.2536,0.2625,0.0,0.0,0.0,0.0,0.3722,0.0,0.0,0.0,0.0,0.0,0.0,0.0,0.0,0.4054,0.4158,0.4408,0.4291,0.0,0.0,0.0,0.0,0.0,0.4865,0.4731,0.4578,0.4509,0.4542,0.4569,0.4489,0.4609,0.4735,0.4747,0.493,0.5162,0.5351,0.5464,0.5801,0.6685,0.7933,0.9239,1.0505,1.015,1.0364,1.192,1.249,1.3577,1.5656,1.605,1.6564,1.7529,1.7608,1.7608,1.7608,1.7568,1.7541,1.7541,1.722,1.6831,1.6297,1.6019,1.5875,1.5875,1.5821,1.5832,1.5855,1.5855,1.6146,1.6618,0.0,0.0,1.7159,1.7089,1.7115,1.7185,1.7185,1.7232,1.7302,1.7302,1.7302,1.7302,0.0,0.0,0.0,0.0,0.0,0.0,0.0,0.0,0.0,0.0,0.0,0.0,0.0,0.0,0.0,0.0,0.0,0.0,0.0,0.0,0.0,0.0,0.4228,0.4099,0.3886,0.3696,0.348,0.3221,0.3381,0.328,0.2978,0.3887,0.4253,0.411,0.3838,0.3667,0.3579,0.0,0.0,0.0,0.3821,0.0,0.0,0.0,0.0,0.0,0.0,0.0,0.0,0.378,0.3892,0.4072,0.4058,0.0,0.0,0.0,0.0,0.0,0.4934,0.5032,0.493,0.4586,0.4751,0.4894,0.4429,0.4359,0.4413,0.4521,0.4836,0.5244,0.5718,0.618,0.6684,0.7279,0.8185,0.9321,1.0806,1.1302,1.1903,1.2957,1.4409,1.5411,1.5638,1.6662,1.7424,1.7582,1.7608,1.7608,1.7608,1.7367,1.7259,1.7259,1.6737,1.6391,1.6297,1.6257,1.623,1.623,1.5952,1.5927,1.6153,1.6153,1.6204,1.6269,0.0,1.6167,1.6041,1.6035,1.6305,1.6706,1.6706,1.6951,1.7302,1.7302,1.7302,1.7302,0.0,0.0,0.0,0.0,0.0,0.0,0.0,0.0,0.0,0.0,0.0,0.0,0.0,0.0,0.0,0.0,0.0,0.0,0.0,0.0,0.0,0.4294,0.4236,0.4146,0.4078,0.4113,0.4151,0.4179,0.4488,0.4538,0.4366,0.4494,0.4494,0.4391,0.408,0.3894,0.381,0.381,0.0,0.0,0.0,0.0,0.0,0.0,0.0,0.0,0.0,0.0,0.0,0.0,0.3903,0.4169,0.4169,0.0,0.0,0.0,0.0,0.0,0.5056,0.5236,0.5328,0.5139,0.5233,0.5255,0.4833,0.4869,0.5019,0.5082,0.5241,0.5531,0.6075,0.6457,0.7447,0.9778,1.0295,1.1101,1.3046,1.3188,1.3459,1.4438,1.5245,1.5983,1.6611,1.7239,1.7608,1.7608,1.7461,1.7367,1.7367,1.7273,1.7125,1.6939,1.6672,1.6513,1.6513,1.6192,1.6032,1.6032,1.5875,1.5855,1.5974,1.5974,1.6045,1.6201,0.0,1.6295,1.6447,1.6447,1.6659,1.6974,1.6974,1.7115,1.7302,1.7302,1.7302,1.7302,0.0,0.0,0.0,0.0,0.0,0.0,0.0,0.0,0.0,0.0,0.0,0.0,0.0,0.0,0.0,0.0,0.0,0.0,0.0,0.0,0.4148,0.4247,0.4126,0.4165,0.4405,0.4574,0.4797,0.5097,0.5433,0.5583,0.5546,0.4899,0.4536,0.4384,0.4066,0.3891,0.3854,0.3895,0.3906,0.0,0.0,0.0,0.0,0.0,0.0,0.0,0.0,0.0,0.0,0.0,0.0,0.0,0.0,0.0,0.0,0.48,0.4977,0.5174,0.5157,0.533,0.5549,0.5589,0.5598,0.5549,0.5368,0.5539,0.5743,0.5832,0.5914,0.6108,0.657,0.6952,0.8149,1.1071,1.1472,1.2243,1.4577,1.4432,1.4579,1.5911,1.6067,1.6468,1.7503,1.7608,1.7608,1.7608,1.7341,1.7206,1.7206,1.7072,1.6872,1.6607,1.654,1.65,1.65,1.6035,1.5835,1.5915,1.5835,1.5879,1.5998,1.5998,1.614,1.639,1.639,1.6579,1.6909,1.6909,1.7035,1.7223,1.7223,1.7314,1.7419,1.7419,1.7463,1.7536,0.0,0.0,0.0,0.0,0.0,0.0,0.0,0.0,0.0,0.0,0.0,0.0,0.0,0.0,0.0,0.0,0.0,0.0,0.0,0.0,0.4101,0.4115,0.3983,0.4184,0.4747,0.4779,0.4897,0.5097,0.5433,0.554,0.541,0.486,0.4524,0.439,0.4119,0.3887,0.3722,0.3843,0.3906,0.3928,0.0,0.0,0.0,0.0,0.0,0.0,0.0,0.0,0.0,0.0,0.0,0.0,0.0,0.0,0.48,0.48,0.4824,0.4901,0.5206,0.5297,0.5367,0.5557,0.5598,0.5679,0.5963,0.6052,0.6173,0.6546,0.6861,0.7153,0.7366,0.8097,0.8751,0.9024,0.9763,1.1184,1.3634,1.4045,1.4946,1.72,1.7476,1.7476,1.7582,1.7608,1.7608,1.7608,1.7341,1.7206,1.7206,1.6683,1.6351,1.6324,1.6032,1.5861,1.5861,1.5821,1.5965,1.6257,1.5941,1.6069,1.6541,1.6541,1.6683,1.6932,1.6932,1.6815,1.6636,1.6636,1.6777,1.7026,1.7026,1.7341,1.7755,1.7755,1.7945,1.8233,0.0,0.0,0.0,0.0,0.0,0.0,0.0,0.0,0.0,0.0,0.0,0.0,0.0,0.0,0.0,0.0,0.0,0.0,0.0,0.0,0.3928,0.4101,0.4089,0.4253,0.4602,0.4769,0.4982,0.5228,0.5476,0.54,0.5017,0.4729,0.4465,0.4207,0.4112,0.4085,0.4138,0.4143,0.417,0.4218,0.4276,0.0,0.0,0.0,0.0,0.0,0.0,0.0,0.0,0.0,0.4134,0.431,0.4353,0.4654,0.4967,0.484,0.48,0.4857,0.5103,0.533,0.5583,0.5995,0.6197,0.631,0.644,0.6822,0.7253,0.761,0.7797,0.7975,0.826,0.869,0.9597,1.1487,1.2263,1.3451,1.5864,1.6373,1.6793,1.7516,1.7608,1.7541,1.738,1.7341,1.726,1.7048,1.6792,1.6632,1.6632,1.6417,1.6217,1.6005,1.6072,1.6019,1.5808,1.5974,1.6113,1.6245,1.6099,1.614,1.6353,1.6518,1.6659,1.6753,1.6753,1.6777,1.6862,1.6862,1.6988,1.72,1.72,1.7436,1.7784,1.7784,1.7872,1.8028,0.0,0.0,0.0,0.0,0.0,0.0,0.0,0.0,0.0,0.0,0.0,0.0,0.0,0.0,0.0,0.0,0.0,0.0,0.3983,0.3843,0.3821,0.3972,0.4096,0.426,0.4466,0.4733,0.4993,0.5244,0.5413,0.5295,0.4894,0.4757,0.4553,0.4289,0.4245,0.4303,0.4429,0.4356,0.4358,0.4392,0.4376,0.4201,0.0,0.0,0.0,0.0,0.0,0.0,0.0,0.0,0.4283,0.4335,0.4552,0.4845,0.5081,0.4982,0.4925,0.4922,0.5056,0.5303,0.5615,0.6116,0.6522,0.6873,0.7141,0.7518,0.7967,0.8525,0.8674,0.8731,0.8781,0.9366,1.047,1.2486,1.3491,1.4748,1.6791,1.7222,1.7408,1.7582,1.7608,1.7488,1.7233,1.7206,1.7046,1.6727,1.6458,1.6297,1.6297,1.6203,1.6046,1.5808,1.6019,1.6032,1.5808,1.5974,1.6069,1.6069,1.6153,1.6248,1.6329,1.6518,1.6659,1.673,1.673,1.6928,1.7227,1.7126,1.7234,1.7463,1.7463,1.7726,1.813,1.813,1.8189,1.8306,0.0,0.0,0.0,0.0,0.0,0.0,0.0,0.0,0.0,0.0,0.0,0.0,0.0,0.0,0.0,0.0,0.0,0.0,0.3722,0.3821,0.3843,0.3711,0.3961,0.4201,0.44,0.4662,0.4897,0.5097,0.5236,0.522,0.5089,0.4959,0.482,0.4684,0.4562,0.4509,0.4493,0.4429,0.44,0.4408,0.4478,0.4412,0.0,0.0,0.0,0.0,0.0,0.0,0.0,0.0,0.4584,0.4421,0.5085,0.5209,0.513,0.5263,0.5209,0.511,0.5097,0.5209,0.5408,0.5807,0.6465,0.7233,0.811,0.8045,0.8106,0.9184,0.9502,0.9445,0.8926,1.023,1.1342,1.1168,1.2677,1.438,1.5707,1.5914,1.6313,1.7463,1.7595,1.7488,1.7219,1.7192,1.7046,1.6727,1.6458,1.6297,1.6297,1.5992,1.5808,1.5808,1.5808,1.5808,1.5808,1.5808,1.5808,1.5808,1.6082,1.6329,1.6612,1.6612,1.673,1.7003,1.7003,1.7293,1.777,1.7448,1.7507,1.7799,1.7799,1.8218,1.8789,1.8789,1.9019,1.9298,0.0,0.0,0.0,0.0,0.0,0.0,0.0,0.0,0.0,0.0,0.0,0.0,0.0,0.0,0.0,0.0,0.0,0.0,0.3983,0.3928,0.3928,0.3983,0.4198,0.4321,0.4331,0.4634,0.4897,0.5097,0.5133,0.5022,0.4761,0.4849,0.4751,0.4498,0.4692,0.47,0.4567,0.4502,0.4554,0.467,0.455,0.4481,0.4452,0.0,0.0,0.0,0.0,0.0,0.0,0.0,0.0,0.0,0.4925,0.5082,0.5228,0.5168,0.5138,0.5146,0.5385,0.5692,0.6057,0.6547,0.7118,0.7763,0.8487,0.8509,0.8509,0.9079,0.9641,1.0154,1.0542,1.1243,1.205,1.2929,1.3532,1.4298,1.5388,1.5557,1.5901,1.6853,1.6967,1.6847,1.6591,1.6576,1.6431,1.6088,1.5981,1.5941,1.5941,1.5848,1.5808,1.5808,1.5808,1.5808,1.5808,1.5998,1.6187,1.6376,1.6626,1.6602,1.6343,1.6518,1.6636,1.673,1.6932,1.7107,1.7265,1.7547,1.7843,1.816,1.816,1.8423,1.8789,1.8789,1.8847,1.899,0.0,0.0,0.0,0.0,0.0,0.0,0.0,0.0,0.0,0.0,0.0,0.0,0.0,0.0,0.0,0.0,0.0,0.0,0.0,0.3994,0.4024,0.4126,0.4282,0.4405,0.4495,0.4694,0.4897,0.5097,0.5097,0.5001,0.4795,0.4924,0.4948,0.4881,0.5095,0.5083,0.4914,0.4844,0.4864,0.4914,0.4843,0.4787,0.4751,0.0,0.0,0.0,0.0,0.0,0.0,0.0,0.0,0.0,0.4998,0.505,0.5098,0.5105,0.504,0.5052,0.5395,0.5838,0.6359,0.7029,0.7665,0.8273,0.8885,0.9144,0.9282,0.9502,1.0323,1.1002,1.0994,1.1869,1.2684,1.306,1.3845,1.4622,1.5241,1.5665,1.61,1.6652,1.67,1.6593,1.6324,1.6297,1.6152,1.5821,1.5808,1.5808,1.5808,1.5808,1.5808,1.5808,1.5808,1.5855,1.595,1.613,1.6329,1.6612,1.6753,1.6659,1.6366,1.6636,1.6706,1.6612,1.699,1.7141,1.7158,1.762,1.8013,1.8306,1.8306,1.8496,1.8829,1.8961,1.8891,1.8833,0.0,0.0,0.0,0.0,0.0,0.0,0.0,0.0,0.0,0.0,0.0,0.0,0.0,0.0,0.0,0.0,0.0,0.0,0.0,0.0,0.4141,0.421,0.4276,0.4478,0.4824,0.4832,0.4914,0.5097,0.5097,0.5097,0.5084,0.513,0.531,0.5577,0.5614,0.5534,0.5387,0.5312,0.5203,0.5105,0.5236,0.5212,0.5154,0.5452,0.0,0.0,0.0,0.0,0.0,0.0,0.0,0.0,0.5158,0.505,0.484,0.5016,0.4959,0.4901,0.5254,0.5791,0.6457,0.7328,0.8126,0.8818,0.9363,0.9844,1.0194,1.0129,1.1168,1.1735,1.0707,1.2213,1.3254,1.2216,1.3806,1.5178,1.5154,1.5934,1.6535,1.6608,1.662,1.6526,1.6284,1.6257,1.6126,1.5821,1.5808,1.5808,1.5808,1.5808,1.5808,1.5832,1.5832,1.5974,1.6224,1.6248,1.6366,1.6636,1.6636,1.6659,1.6683,1.6885,1.6838,1.665,1.7184,1.7356,1.7331,1.7653,1.7984,1.8262,1.8291,1.8496,1.8858,1.9151,1.9093,1.8902,0.0,0.0,0.0,0.0,0.0,0.0,0.0,0.0,0.0,0.0,0.0,0.0,0.0,0.0,0.0,0.0,0.0,0.0,0.0,0.0,0.4263,0.4273,0.44,0.4642,0.5024,0.5032,0.5056,0.5097,0.5097,0.5037,0.4954,0.5327,0.5478,0.5451,0.5723,0.5648,0.5318,0.5187,0.513,0.5097,0.5138,0.5193,0.5263,0.5335,0.5319,0.0,0.0,0.0,0.0,0.0,0.0,0.0,0.4885,0.4852,0.4816,0.4849,0.4951,0.5146,0.5636,0.6172,0.6791,0.7675,0.8658,0.9502,0.9926,1.0193,1.0217,0.9673,1.0353,1.1093,1.1291,1.2626,1.3549,1.3136,1.4177,1.4979,1.4774,1.4911,1.5281,1.5925,1.5995,1.5968,1.5901,1.5901,1.5875,1.5808,1.5808,1.5808,1.5808,1.5808,1.5903,1.6106,1.6106,1.6234,1.6518,1.6518,1.6636,1.6909,1.6909,1.6988,1.7138,1.6824,1.6753,1.6932,1.7202,1.7305,1.7331,1.7653,1.7828,1.7916,1.8203,1.8496,1.8803,1.8887,1.9034,1.921,0.0,0.0,0.0,0.0,0.0,0.0,0.0,0.0,0.0,0.0,0.0,0.0,0.0,0.0,0.0,0.0,0.0,0.0,0.0,0.0,0.0,0.4391,0.465,0.4889,0.5089,0.5097,0.5097,0.5097,0.5165,0.5152,0.5094,0.5345,0.557,0.5781,0.5865,0.5734,0.5438,0.5376,0.5287,0.5209,0.5303,0.5379,0.5446,0.5446,0.5383,0.0,0.0,0.0,0.0,0.0,0.0,0.0,0.0,0.0,0.4824,0.4914,0.4881,0.4966,0.5693,0.6294,0.7019,0.8346,0.921,0.9819,1.0129,1.0259,1.0201,0.9844,1.0714,1.1405,1.1098,1.2408,1.3313,1.2547,1.3704,1.463,1.4485,1.4862,1.5319,1.575,1.5808,1.5808,1.5808,1.5808,1.5808,1.5808,1.5808,1.5808,1.5808,1.5808,1.5855,1.5998,1.613,1.6343,1.6612,1.673,1.6918,1.7129,1.7129,1.72,1.7279,1.6941,1.6918,1.7129,1.7153,1.7223,1.7331,1.7653,1.7887,1.8072,1.8408,1.8642,1.8803,1.899,1.9063,1.9093,0.0,0.0,0.0,0.0,0.0,0.0,0.0,0.0,0.0,0.0,0.0,0.0,0.0,0.0,0.0,0.0,0.0,0.0,0.0,0.0,0.0,0.4545,0.4905,0.5105,0.5138,0.5138,0.5138,0.5138,0.5238,0.5329,0.5408,0.5408,0.5679,0.6187,0.6,0.5807,0.5638,0.5581,0.5454,0.5313,0.5478,0.5549,0.5549,0.5549,0.0,0.0,0.0,0.0,0.5271,0.5271,0.0,0.0,0.0,0.0,0.4832,0.4999,0.4812,0.4739,0.5612,0.6367,0.7279,0.8883,0.9551,0.9877,1.0088,1.0137,1.0205,1.0412,1.1416,1.1935,1.0788,1.2232,1.3232,1.2089,1.3404,1.4556,1.4556,1.5272,1.5808,1.5808,1.5808,1.5808,1.5808,1.5808,1.5808,1.5808,1.5808,1.5808,1.5808,1.5832,1.5903,1.595,1.6187,1.6447,1.673,1.6941,1.7129,1.7302,1.7302,1.7302,1.7279,1.7129,1.7129,1.7279,1.7106,1.7153,1.7331,1.7594,1.7901,1.8247,1.8511,1.8686,1.8818,1.9122,1.9078,1.8931,0.0,0.0,0.0,0.0,0.0,0.0,0.0,0.0,0.0,0.0,0.0,0.0,0.0,0.0,0.0,0.0,0.0,0.0,0.0,0.0,0.0,0.4747,0.4983,0.5157,0.5271,0.5279,0.5279,0.5279,0.5289,0.5486,0.5815,0.5815,0.5952,0.6187,0.6,0.5887,0.5831,0.5494,0.5321,0.5297,0.5321,0.5343,0.5343,0.0,0.0,0.0,0.0,0.0,0.513,0.513,0.5011,0.0,0.0,0.0,0.4808,0.4832,0.4808,0.4885,0.5476,0.6628,0.7841,0.8682,0.9185,0.9559,0.9869,0.995,1.0246,1.1285,1.1652,1.1702,1.1334,1.3007,1.4322,1.3977,1.4868,1.5594,1.5594,1.5713,1.5808,1.5808,1.5808,1.5808,1.5808,1.5808,1.5808,1.5808,1.5808,1.5808,1.5808,1.6021,1.6234,1.6494,1.6744,1.7003,1.7209,1.7232,1.7255,1.7302,1.7302,1.7302,1.7302,1.7255,1.7255,1.7302,1.7255,1.7279,1.7302,1.7361,1.7565,1.7857,1.7925,1.8291,1.8814,1.8833,1.9034,1.9239,0.0,0.0,0.0,0.0,0.0,0.0,0.0,0.0,0.0,0.0,0.0,0.0,0.0,0.0,0.0,0.0,0.0,0.0,0.0,0.0,0.0,0.48,0.5063,0.5244,0.5297,0.5297,0.5297,0.5297,0.5297,0.551,0.5903,0.5783,0.6009,0.6473,0.6074,0.596,0.6033,0.5519,0.5297,0.5297,0.5297,0.5297,0.5297,0.0,0.0,0.0,0.0,0.0,0.5203,0.5203,0.5155,0.509,0.509,0.0,0.0,0.0,0.4945,0.4962,0.5724,0.6629,0.7518,0.8187,0.8641,0.903,0.9388,0.9543,0.9953,1.1166,1.1879,1.2264,1.2284,1.3565,1.452,1.434,1.5129,1.5808,1.5808,1.5808,1.5808,1.5808,1.5808,1.5808,1.5808,1.5808,1.5855,1.5998,1.6021,1.6092,1.6234,1.6353,1.6471,1.6612,1.6847,1.694,1.6846,1.7145,1.7302,1.7302,1.7302,1.7302,1.7302,1.7302,1.7302,1.7302,1.7302,1.7302,1.7317,1.7507,1.7667,1.7852,1.8218,1.854,1.8803,1.9019,1.918,1.9298,0.0,0.0,0.0,0.0,0.0,0.0,0.0,0.0,0.0,0.0,0.0,0.0,0.0,0.0,0.0,0.0,0.0,0.0,0.0,0.0,0.0,0.4873,0.5142,0.5297,0.5297,0.5297,0.5297,0.5297,0.5359,0.5589,0.5968,0.583,0.6123,0.675,0.6213,0.6082,0.6212,0.5679,0.5448,0.544,0.5337,0.5297,0.0,0.0,0.0,0.0,0.0,0.0,0.5246,0.5246,0.5214,0.5182,0.523,0.5176,0.0,0.0,0.0,0.5087,0.5845,0.6433,0.6986,0.7586,0.811,0.8541,0.8908,0.9119,0.967,1.1115,1.1802,1.2368,1.3034,1.39,1.457,1.4665,1.5018,1.5408,1.5747,1.5675,1.5635,1.5781,1.5741,1.5728,1.5795,1.5808,1.5879,1.6082,1.6085,1.6148,1.6359,1.65,1.6528,1.6443,1.6784,1.6823,1.6469,1.6955,1.7229,1.7302,1.7302,1.7302,1.7302,1.7302,1.7302,1.7302,1.7302,1.7302,1.7331,1.7565,1.7711,1.7843,1.835,1.8642,1.8818,1.9093,1.9224,1.9298,0.0,0.0,0.0,0.0,0.0,0.0,0.0,0.0,0.0,0.0,0.0,0.0,0.0,0.0,0.4436,0.431,0.0,0.0,0.0,0.0,0.0,0.5081,0.5228,0.0,0.5297,0.5297,0.5297,0.5297,0.5486,0.5797,0.6179,0.6171,0.6457,0.6973,0.6424,0.6269,0.6367,0.6018,0.5879,0.5831,0.5448,0.5297,0.5297,0.0,0.0,0.0,0.0,0.522,0.5105,0.5105,0.4978,0.4865,0.5056,0.5105,0.513,0.0,0.0,0.0,0.5565,0.6019,0.6538,0.6947,0.7548,0.8138,0.8533,0.8723,0.9417,1.1525,1.129,1.13,1.3225,1.3978,1.4616,1.5571,1.4698,1.4365,1.5626,1.5351,1.524,1.5741,1.5591,1.5524,1.5781,1.5808,1.5808,1.5832,1.5765,1.5718,1.5741,1.6223,1.637,1.6033,1.6613,1.6748,1.6426,1.6756,1.7056,1.7302,1.7302,1.7302,1.7302,1.7302,1.7302,1.7302,1.7302,1.7302,1.7302,1.7331,1.7507,1.7799,1.7852,1.8247,1.8789,1.8803,1.9034,1.9298,0.0,0.0,0.0,0.0,0.0,0.0,0.0,0.0,0.0,0.0,0.0,0.0,0.0,0.4658,0.4674,0.4621,0.4658,0.0,0.0,0.0,0.0,0.5097,0.5228,0.5297,0.5297,0.5297,0.5297,0.5297,0.5375,0.5557,0.5822,0.6072,0.6348,0.6612,0.6415,0.6366,0.6367,0.6042,0.582,0.5693,0.5408,0.5297,0.5297,0.5297,0.5297,0.5382,0.5978,0.6276,0.6392,0.6434,0.6289,0.6009,0.0,0.5276,0.5105,0.5157,0.5236,0.5313,0.5383,0.564,0.5986,0.6392,0.6885,0.7401,0.7794,0.874,0.9774,1.0762,1.1249,1.1925,1.3337,1.3262,1.3263,1.4247,1.3976,1.4099,1.5303,1.53,1.5269,1.5463,1.5518,1.5513,1.5476,1.5613,1.5736,1.5932,1.5925,1.5967,1.6147,1.6326,1.638,1.6264,1.6455,1.6536,1.6396,1.6536,1.6756,1.7056,1.7223,1.7302,1.7302,1.7302,1.7302,1.7302,1.7302,1.7302,1.7302,1.7302,1.7375,1.7492,1.7711,1.8086,1.8496,1.8716,1.9019,1.9298,0.0,0.0,0.0,0.0,0.0,0.0,0.0,0.0,0.0,0.0,0.0,0.0,0.0,0.0,0.5039,0.4969,0.4961,0.4961,0.4961,0.5087,0.5173,0.5173,0.5246,0.5297,0.5297,0.5254,0.5254,0.5297,0.5297,0.5478,0.5806,0.6079,0.6338,0.6564,0.6562,0.6604,0.6655,0.6456,0.625,0.6014,0.57,0.5573,0.561,0.5897,0.6058,0.6236,0.7003,0.7408,0.7587,0.7522,0.7041,0.641,0.0,0.0,0.0,0.0,0.5063,0.5134,0.5134,0.5317,0.5565,0.5838,0.6292,0.6764,0.7108,0.8191,0.9289,0.9928,1.0538,1.1371,1.2705,1.226,1.2204,1.39,1.3783,1.3925,1.5205,1.5232,1.5177,1.5383,1.5434,1.5464,1.5397,1.5531,1.5673,1.5842,1.5832,0.0,1.6104,1.6192,1.6235,1.6235,1.6111,1.6177,1.6404,1.6396,1.6602,1.7041,1.72,1.7302,1.7302,1.7302,1.7302,1.7302,1.7302,1.7302,1.7302,1.7302,1.7302,1.7331,1.7667,1.7989,1.8335,1.8672,1.9019,1.9298,0.0,0.0,0.0,0.0,0.0,0.0,0.0,0.0,0.0,0.0,0.0,0.0,0.0,0.0,0.0,0.5337,0.5321,0.5313,0.5313,0.5313,0.5313,0.5313,0.0,0.0,0.0,0.5182,0.5182,0.5305,0.5305,0.5614,0.6187,0.6211,0.6473,0.689,0.6922,0.7026,0.7203,0.7259,0.7142,0.6858,0.635,0.6145,0.6237,0.7109,0.7594,0.7882,0.831,0.856,0.8623,0.8304,0.7176,0.6009,0.0,0.0,0.0,0.0,0.0,0.0,0.0,0.0,0.0,0.5297,0.5742,0.626,0.653,0.7068,0.7872,0.9087,0.9125,0.9489,1.1337,1.1091,1.1652,1.4785,1.4163,1.3853,1.5359,1.5097,1.4943,1.5508,1.5371,1.5301,1.555,1.5578,1.5614,1.5614,1.5531,1.5505,1.5505,1.5741,1.5906,1.5906,1.5578,1.5731,1.6367,1.6396,1.6719,1.7288,1.7302,1.7302,1.7302,1.7302,1.7302,1.7302,1.7302,1.7302,1.7302,1.7302,1.7302,1.7331,1.7667,1.7989,1.8335,1.8672,1.9019,1.9298,0.0,0.0,0.0,0.0,0.0,0.0,0.0,0.0,0.0,0.0,0.0,0.0,0.0,0.0,0.5962,0.5944,0.5815,0.5742,0.5742,0.5598,0.5589,0.5734,0.5598,0.551,0.551,0.5341,0.5333,0.551,0.551,0.5685,0.6,0.6524,0.6777,0.678,0.7455,0.7632,0.7397,0.7124,0.6912,0.6786,0.7075,0.7188,0.7279,0.8096,0.8463,0.8657,0.9642,1.0149,1.0331,1.0283,0.9397,0.8049,0.0,0.0,0.0,0.0,0.0,0.0,0.5043,0.0,0.0,0.0,0.0,0.0,0.62,0.7194,0.8074,0.8042,0.8685,0.9645,1.0888,1.1078,1.1846,1.4372,1.3989,1.3818,1.5042,1.5085,1.5042,1.5212,1.5297,1.531,1.5248,1.5368,1.5554,0.0,1.5596,1.553,1.5777,1.5623,1.5549,1.5549,1.568,1.5841,1.6038,1.6514,1.6859,1.7012,1.7223,1.7302,1.7302,1.7302,1.7302,1.7302,1.7302,1.7302,1.7302,1.7302,1.7302,1.7331,1.7667,1.7989,1.8335,1.8672,1.9019,1.9298,0.0,0.0,0.0,0.0,0.0,0.0,0.0,0.0,0.0,0.0,0.0,0.0,0.0,0.0,0.6335,0.6278,0.618,0.6051,0.5911,0.5783,0.5774,0.5895,0.5783,0.5726,0.5726,0.5527,0.5519,0.5726,0.5638,0.5742,0.6033,0.0,0.6668,0.6737,0.7323,0.7521,0.7368,0.7212,0.7301,0.7529,0.7465,0.7628,0.8027,0.8992,0.94,0.9685,1.1028,1.1696,1.1889,1.1682,1.0807,0.9302,0.0,0.0,0.0,0.0,0.0,0.0,0.0,0.0,0.0,0.0,0.0,0.0,0.5942,0.6837,0.7574,0.7368,0.8089,0.9043,1.0083,1.039,1.1206,1.3421,1.3371,1.3575,1.5018,1.5236,1.5236,1.5236,1.5319,1.534,1.5236,1.5319,1.5549,1.587,1.5592,1.549,1.568,1.5505,1.5402,1.5402,1.5724,1.5979,1.6111,1.6631,1.6961,1.7085,1.7214,1.7302,1.7302,1.7302,1.7302,1.7302,1.7302,1.7302,1.7302,1.7302,1.7302,1.7346,1.7814,1.813,1.8364,1.8818,1.9137,1.9298,0.0,0.0,0.0,0.0,0.0,0.0,0.0,0.0,0.0,0.0,0.0,0.0,0.0,0.0,0.0,0.0,0.6448,0.6319,0.6017,0.5952,0.5944,0.596,0.5944,0.5928,0.5928,0.5734,0.5734,0.5928,0.575,0.5863,0.0,0.0,0.0,0.0,0.0,0.7024,0.722,0.7407,0.797,0.8669,0.784,0.7932,0.8731,0.9943,1.0543,1.0938,1.2375,1.3046,1.312,1.2331,1.1357,0.9851,0.6174,0.0,0.0,0.0,0.4901,0.0,0.0,0.0,0.0,0.0,0.5393,0.0,0.5773,0.6254,0.6732,0.6998,0.7411,0.8054,0.909,0.9365,1.0079,1.205,1.2503,1.3223,1.5043,1.5329,1.5338,1.5338,1.5388,1.5402,1.5402,1.5402,1.5549,1.587,1.5622,1.5446,1.5402,1.5402,1.5402,1.5402,1.5753,1.6096,1.6404,1.6748,1.707,1.7302,1.7302,1.7302,1.7302,1.7302,1.7302,1.7302,1.7302,1.7302,1.7302,1.7302,1.7302,1.7361,1.8013,1.8277,1.8379,1.9019,1.9268,1.9298,0.0,0.0,0.0,0.0,0.0,0.0,0.0,0.0,0.0,0.0,0.0,0.0,0.0,0.0,0.0,0.0,0.6742,0.6611,0.6546,0.6294,0.6196,0.6294,0.6204,0.6146,0.6146,0.5936,0.5936,0.6146,0.6105,0.6188,0.0,0.0,0.0,0.0,0.7007,0.7171,0.722,0.7407,0.8059,0.8967,0.926,0.9555,1.004,1.1652,1.2309,1.2446,1.3167,1.3487,1.3226,1.127,1.0246,0.9392,0.7063,0.6324,0.6249,0.5943,0.0,0.0,0.0,0.0,0.0,0.0,0.5677,0.0,0.5813,0.6142,0.6493,0.6666,0.7025,0.7576,0.8446,0.8871,0.9514,1.0771,1.1858,1.3014,1.4467,1.4862,1.5002,1.5002,1.5236,1.5402,1.5402,1.5402,1.5549,1.587,1.5841,1.568,1.5417,1.5402,1.5402,1.5402,1.5979,1.6323,1.6396,1.6945,1.7244,1.7302,1.7302,1.7302,1.7302,1.7302,1.7302,1.7302,1.7302,1.7302,1.7302,1.7302,1.7302,1.7346,1.7741,1.8072,1.835,1.8745,1.9078,1.9298,0.0,0.0,0.0,0.0,0.0,0.0,0.0,0.0,0.0,0.6677,0.6765,0.6869,0.0,0.0,0.0,0.0,0.0,0.0,0.0,0.6596,0.6473,0.6554,0.6392,0.6343,0.6449,0.6245,0.6237,0.6457,0.6343,0.6327,0.64,0.0,0.0,0.656,0.6898,0.7052,0.7076,0.7435,0.8224,0.9202,0.9278,0.9667,1.0329,1.1646,1.2155,1.2284,1.3253,1.36,1.3298,1.1282,1.0582,1.0265,0.8655,0.7633,0.7081,0.7216,0.6465,0.5636,0.0,0.0,0.0,0.583,0.5919,0.0,0.0,0.6203,0.6419,0.6644,0.6707,0.689,0.7486,0.768,0.8148,0.9304,1.0123,1.1047,1.2334,1.3771,1.4706,1.4706,1.4853,1.4993,1.5154,1.5148,1.5279,1.5622,1.5797,1.5753,1.5432,1.5402,1.5402,1.5402,1.6038,1.6396,1.6396,1.688,1.7165,1.7302,1.7165,1.7179,1.7302,1.7302,1.7302,1.7302,1.7302,1.7302,1.7302,1.7302,1.7302,1.7331,1.7667,1.7989,1.8335,1.8672,1.9019,1.9298,0.0,0.0,0.0,0.0,0.0,0.0,0.0,0.0,0.0,0.6996,0.7106,0.7236,0.7415,0.7342,0.7283,0.0,0.0,0.0,0.0,0.6906,0.6734,0.6692,0.6587,0.657,0.6692,0.6578,0.6595,0.6766,0.6562,0.6465,0.6506,0.6465,0.6473,0.6516,0.6832,0.6988,0.7048,0.77,0.8545,0.9454,0.9374,0.9723,1.0456,1.1583,1.1853,1.1828,1.3205,1.3653,1.3359,1.1809,1.1446,1.1409,0.9974,0.8869,0.8105,0.8111,0.71,0.0,0.0,0.0,0.0,0.0,0.0,0.6278,0.0,0.0,0.0,0.6702,0.6478,0.6337,0.6637,0.6581,0.6827,0.7822,0.8356,0.8994,0.9964,1.2163,1.371,1.3801,1.3872,1.4068,1.4482,1.4709,1.4973,1.5373,1.5592,1.5622,1.5417,1.5402,1.5402,1.5402,1.5979,1.6309,1.6309,1.6712,1.6983,1.7135,1.7027,1.707,1.7214,1.7273,1.7302,1.7302,1.7302,1.7302,1.7302,1.7302,1.7302,1.7331,1.7594,1.7925,1.8247,1.8569,1.8931,1.921,0.6813,0.691,0.0,0.0,0.0,0.0,0.0,0.0,0.6986,0.7153,0.7092,0.7076,0.7218,0.7374,0.7577,0.7874,0.7477,0.735,0.769,0.7233,0.689,0.67,0.6857,0.6857,0.6701,0.6857,0.6939,0.6955,0.6775,0.6737,0.6839,0.6722,0.6736,0.685,0.7064,0.7269,0.7504,0.8516,0.921,0.978,1.1103,1.1291,1.103,1.3038,1.314,1.2368,1.3594,1.3847,1.3472,1.2626,1.2275,1.1868,0.9875,0.9037,0.8558,0.7404,0.6717,0.6376,0.0,0.0,0.0,0.0,0.6717,0.0,0.6596,0.0,0.6779,0.6571,0.0,0.6426,0.6294,0.0,0.0,0.6448,0.756,0.8474,0.8623,0.9831,1.0861,1.1333,1.1612,1.2124,1.3048,1.3991,1.4779,1.5359,1.5148,1.5119,1.5402,1.5402,1.5402,1.5402,1.5753,1.5965,1.5965,1.6572,1.6771,1.6514,1.7018,1.715,1.6939,1.7194,1.7302,1.7302,1.7302,1.7302,1.7302,1.7302,1.7302,1.7302,1.7346,1.7565,1.7911,1.8233,1.8569,1.8917,0.6873,0.7002,0.0,0.0,0.0,0.0,0.0,0.0,0.7171,0.735,0.7488,0.7703,0.7975,0.7996,0.8097,0.8433,0.8089,0.791,0.8077,0.7483,0.0,0.7328,0.7002,0.688,0.6993,0.688,0.6833,0.6823,0.673,0.6722,0.6789,0.6796,0.6909,0.7082,0.7156,0.7361,0.7655,0.8355,0.9038,0.9794,1.0823,1.1227,1.1364,1.2961,1.346,1.334,1.3817,1.4097,1.4145,0.0,1.3074,0.0,0.0,1.0836,0.9136,0.9433,0.8166,0.6894,0.0,0.0,0.0,0.0,0.0,0.0,0.7116,0.0,0.6858,0.0,0.0,0.0,0.0,0.0,0.0,0.0,0.7072,0.7476,0.7476,0.7907,0.88,1.0351,1.0736,0.0,1.2537,1.2623,1.2935,1.3762,1.3699,1.3774,1.4114,1.4758,1.5192,1.5382,1.5724,1.5899,1.5899,1.6382,1.6639,1.6697,1.6953,1.7077,1.7135,1.7244,1.7302,1.7302,1.7302,1.7302,1.7302,1.7302,1.7302,1.7302,1.7302,1.7507,1.7828,1.8174,1.8511,1.8833,0.7053,0.0,0.0,0.0,0.7328,0.0,0.0,0.7041,0.7244,0.754,0.778,0.8162,0.8745,0.8688,0.8787,0.9291,0.8917,0.8633,0.8606,0.791,0.757,0.7714,0.7243,0.702,0.7147,0.7002,0.6872,0.6783,0.6764,0.6789,0.683,0.6935,0.7089,0.7295,0.7346,0.7669,0.8197,0.8802,0.9656,1.0677,1.1402,1.1946,1.2383,1.2946,1.3595,1.4193,1.4133,1.4363,1.465,1.4338,1.3969,0.0,1.4139,1.2472,1.0483,1.1181,0.985,0.8377,0.9497,0.0,0.0,0.0,0.0,0.0,0.0,0.0,0.0,0.0,0.0,0.0,0.0,0.0,0.0,0.0,0.0,0.6703,0.6647,0.6684,0.7355,0.9064,0.9703,1.0422,0.0,1.1185,1.1273,1.2048,1.2056,1.2306,1.2945,1.3859,1.4632,1.5236,1.5592,1.5753,1.5753,1.6191,1.6492,1.6631,1.688,1.7062,1.7208,1.7273,1.7302,1.7302,1.7302,1.7302,1.7302,1.7302,1.7302,1.7302,1.7302,1.7507,1.7828,1.8174,1.8452,1.8716,0.7161,0.7358,0.0,0.7483,0.7491,0.7499,0.7475,0.7208,0.7192,0.7722,0.7804,0.8204,0.9265,0.9371,0.9698,1.0558,0.9989,0.951,0.938,0.8669,0.8026,0.7524,0.7606,0.7459,0.7022,0.7304,0.7304,0.6997,0.6921,0.7001,0.718,0.7196,0.7302,0.7498,0.77,0.8366,0.9415,1.0542,1.1741,1.2977,1.3915,1.4412,1.4483,1.3481,1.3767,1.4671,1.4692,0.0,0.0,1.4977,1.5061,0.0,0.0,0.0,0.0,0.0,0.0,0.0,0.0,0.0,0.0,1.1016,0.0,0.0,0.0,0.0,0.7416,0.0,0.0,0.0,0.0,0.0,0.0,0.0,0.0,0.0,0.0,0.6389,0.661,0.6866,0.8012,0.8887,0.9181,0.9834,1.0355,1.0644,1.0437,1.0916,1.2352,1.2755,1.3552,1.488,1.5236,1.5432,1.5432,1.6074,1.625,1.5928,1.6849,1.7165,1.6917,1.7179,1.7302,1.7302,1.7302,1.7302,1.7302,1.7302,1.7302,1.7302,1.7302,1.7507,1.7828,1.8174,1.8306,1.8408,0.0,0.0,0.0,0.7334,0.7299,0.735,0.7483,0.7526,0.7845,0.8743,0.9046,0.96,1.0683,1.0593,1.0715,1.1383,1.0753,1.0257,1.0079,0.9502,0.9043,0.8775,0.8454,0.8057,0.7535,0.7507,0.7261,0.6798,0.6873,0.7005,0.7205,0.733,0.7499,0.77,0.777,0.8125,0.8764,1.0019,1.0823,1.1374,1.3302,1.3844,1.3578,1.4178,1.4657,1.4985,1.5131,1.5173,0.0,1.5277,1.5298,1.5228,1.4852,1.4099,1.331,1.2855,1.2106,0.0,0.0,0.0,1.2189,1.2633,0.0,0.0,0.0,0.0,0.0,0.0,0.0,0.0,0.0,0.0,0.0,0.0,0.0,0.0,0.0,0.6341,0.6421,0.6769,0.7061,0.7613,0.8551,0.8143,0.8101,0.8763,0.9144,0.9814,1.0896,1.2444,1.3801,1.4871,1.5242,1.5402,1.5402,1.6052,1.6338,1.625,1.6974,1.7244,1.7165,1.7258,1.7302,1.7302,1.7302,1.7302,1.7302,1.7302,1.7302,1.7302,1.7302,1.7507,1.7828,1.8174,1.8438,1.8686,0.7293,0.7407,0.7467,0.7334,0.7299,0.7374,0.7572,0.7914,0.8452,0.9298,0.9803,1.0469,1.1484,1.1424,1.1505,1.2043,1.1516,1.1182,1.1212,1.0371,0.9921,1.0003,0.9288,0.8612,0.8,0.7784,0.7407,0.6872,0.7035,0.7187,0.7313,0.7582,0.7783,0.7908,0.7984,0.8356,0.9024,1.0274,1.1074,1.1626,1.3188,1.3647,1.3438,1.4282,1.4455,1.4307,0.0,1.4929,1.4985,1.5298,1.5402,1.5402,1.5402,1.4803,1.4099,1.4099,1.3504,1.3013,1.3867,1.3752,0.0,1.3983,1.2823,0.0,1.0979,0.0,0.9282,0.0,0.0,0.0,0.0,0.0,0.0,0.0,0.0,0.0,0.0,0.6497,0.6506,0.6778,0.6619,0.6939,0.8039,0.722,0.6832,0.7398,0.7902,0.8695,0.9853,1.1751,1.338,1.4716,1.5183,1.5402,1.5402,1.6052,1.6396,1.6419,1.7018,1.7302,1.7302,1.7302,1.7302,1.7302,1.7302,1.7302,1.7302,1.7302,1.7302,1.7302,1.7302,1.758,1.7989,1.8218,1.8584,1.9019,0.7491,0.7507,0.7515,0.7515,0.7507,0.7564,0.778,0.8373,0.8974,0.942,1.0054,1.0823,1.1774,1.1872,1.2075,1.2588,1.2272,1.2212,1.2646,1.1361,1.0757,1.1173,1.0216,0.9283,0.8464,0.8229,0.7812,0.7218,0.7411,0.7486,0.7522,0.7903,0.808,0.8089,0.8307,0.9005,1.0067,1.1155,1.2449,1.3768,1.3822,1.4013,1.4216,1.3918,1.3355,1.2881,1.3836,1.4187,1.4327,1.516,1.5411,1.5432,1.5417,1.5417,1.5411,1.5411,1.5446,1.5446,1.5446,1.4526,1.3861,1.5106,1.3708,0.0,0.0,0.0,1.2028,0.0,0.0,0.0,0.0,0.0,0.0,0.0,0.0,0.0,0.0,0.0,0.6816,0.687,0.6696,0.6861,0.7605,0.7037,0.6629,0.6645,0.6848,0.768,0.934,1.076,1.2422,1.4399,1.5081,1.5411,1.5411,1.6103,1.6411,1.6426,1.7033,1.7302,1.7302,1.7302,1.7302,1.7302,1.7302,1.7302,1.7302,1.7302,1.7302,1.7302,1.7317,1.7726,1.8321,1.8335,1.8745,1.9298,0.7274,0.7524,0.7731,0.7731,0.7597,0.7605,0.7902,0.856,0.9348,1.0259,1.1094,1.1884,1.267,1.2759,1.2865,1.3174,1.2743,1.2422,1.2409,1.2884,1.2946,1.2473,1.3052,1.2501,1.0575,0.9979,0.9021,0.7575,0.7371,0.7424,0.7735,0.7841,0.7868,0.7894,0.8252,0.8477,0.8711,1.0133,1.2172,1.4553,1.5636,1.5715,1.5165,0.0,1.4384,1.3619,1.4967,1.5598,1.5799,1.5777,1.5768,1.5724,1.549,1.5578,1.5768,1.5768,1.595,1.6147,1.6147,1.59,1.5648,1.574,1.4579,1.3387,0.0,0.0,0.0,0.0,0.0,0.0,0.0,0.0,0.0,0.0,0.0,0.0,0.0,0.0,0.7059,0.7767,0.7659,0.7528,0.7469,0.7168,0.7104,0.7394,0.7561,0.8293,0.977,0.0,1.2396,1.4077,1.5204,1.5768,1.5768,1.644,1.6771,1.6785,1.7135,1.7302,1.7302,1.7302,1.7302,1.7302,1.7302,1.7302,1.7302,1.7302,1.7302,1.7331,1.7565,1.8086,1.8686,1.8961,1.9166,1.9298,0.7447,0.7768,0.8012,0.8012,0.8183,0.8395,0.859,0.9168,0.9892,1.0802,1.1638,1.2304,1.271,1.2889,1.3051,1.3238,1.2905,1.2798,1.3038,1.3198,1.3199,1.2956,1.3558,1.3133,1.15,1.0862,0.99,0.862,0.7931,0.767,0.7795,0.7887,0.7942,0.7942,0.8263,0.8391,0.8504,1.059,1.2371,1.3817,1.4869,1.5057,0.0,1.4022,1.4133,1.4707,1.5394,1.5711,1.5822,1.6038,1.6111,1.6067,1.5724,1.5862,1.6082,1.5928,1.6126,1.6396,1.6396,1.6396,1.6323,1.5994,1.5433,1.4859,1.4382,1.3918,1.3507,0.0,1.2791,1.2235,0.0,0.0,0.0,0.0,0.0,0.0,0.0,0.0,0.8182,0.8704,0.8581,0.8494,0.8574,0.8021,0.7812,0.8153,0.8245,0.8831,0.0,0.0,1.2307,1.374,1.5028,1.5475,1.5072,1.6389,1.688,1.647,1.7024,1.7302,1.7302,1.7302,1.7302,1.7302,1.7302,1.7302,1.7302,1.7302,1.739,1.7565,1.8057,1.8467,1.8833,1.918,1.9298,1.9327,0.7796,0.8118,0.8357,0.8314,0.895,0.9494,0.9616,1.0064,1.0601,1.1211,1.1908,1.2377,1.2377,1.2637,1.2904,1.3116,1.2921,1.3093,1.3803,1.3046,1.2795,1.3327,1.3295,1.2877,1.208,1.1399,1.0593,0.9635,0.8585,0.7981,0.7804,0.7968,0.8063,0.8063,0.8293,0.8575,0.9072,1.1778,1.284,1.2808,1.3458,1.3912,1.4033,1.2799,1.3858,1.5954,1.5674,1.5463,1.5426,1.6203,1.6477,1.6396,1.6067,1.6206,1.6396,1.6111,1.6257,1.6514,1.6492,1.6484,1.6426,1.6067,1.6235,1.6294,1.5665,1.5753,1.5855,1.5534,1.454,1.3665,0.0,0.0,0.0,0.0,0.0,0.0,0.0,0.0,0.9693,0.9701,0.958,0.0,1.0241,0.9244,0.87,0.902,0.8963,0.0,0.0,0.0,1.2125,1.3389,1.4716,1.5037,1.4316,1.6294,1.6908,1.6148,1.6937,1.7302,1.7302,1.7302,1.7302,1.7302,1.7302,1.7331,1.7375,1.7375,1.758,1.7999,1.8569,1.8843,1.8917,1.9195,1.9327,1.9415,0.7935,0.8381,0.8641,0.8417,0.9172,1.0043,1.0706,1.1064,1.1411,1.1803,1.2354,1.271,1.271,1.2896,1.3124,1.3337,1.3027,1.2873,1.3004,1.3662,1.4379,1.5119,1.5849,1.5535,1.4029,1.2986,1.1255,0.8803,0.8172,0.7824,0.7804,0.7842,0.7861,0.7861,0.8236,0.8942,0.9991,1.21,1.3404,1.4199,1.5904,1.6606,1.6639,1.6383,1.6607,1.703,1.6973,1.6929,1.6889,1.6834,1.6815,1.6756,1.6411,1.6528,1.68,1.6733,1.6916,1.7106,1.6865,1.696,1.7018,1.6455,1.6558,1.6712,1.6309,1.6265,1.6221,1.587,1.5624,1.504,1.3645,0.0,0.0,0.0,0.0,0.0,0.0,0.0,1.0743,1.0745,1.0949,1.116,1.1328,1.0209,0.9694,1.0251,0.9825,0.0,0.0,0.0,1.184,0.0,1.4599,0.0,0.0,0.0,1.7361,1.7486,1.7361,1.7302,1.7302,1.7302,1.7302,1.7302,1.7302,1.7463,1.7711,1.7711,1.8072,1.8628,1.8745,1.8975,1.9224,1.9283,1.9474,1.9708,0.8544,0.8787,0.9001,0.9156,0.9806,1.0544,1.1205,1.1791,1.2235,1.2386,1.2596,1.2694,1.2694,1.2856,1.3035,1.3248,1.3068,1.2889,1.271,1.3165,1.3551,1.3723,1.5075,1.5113,1.3666,1.3808,1.2456,0.9535,0.0,0.0,0.0,0.7642,0.7642,0.7688,0.8547,0.9468,1.0518,1.2764,0.0,1.4923,1.6068,1.6513,1.6466,1.5934,1.6065,1.6513,1.6513,1.6857,1.7288,1.715,1.7106,1.707,1.6748,1.6865,1.7085,1.6947,1.7077,1.7273,1.7135,1.7185,1.7185,1.6763,1.6785,1.6815,1.6492,1.6396,1.6353,1.6206,1.6023,1.5566,1.4376,1.3554,0.0,0.0,0.0,0.0,0.0,0.0,1.2038,1.2042,1.2037,1.2028,1.2054,1.124,1.0706,1.0755,1.0393,1.0492,0.0,0.0,1.1709,0.0,0.0,0.0,1.4902,0.0,1.7214,1.6557,1.7068,1.7302,1.7302,1.7302,1.739,1.7551,1.7551,1.7741,1.8072,1.8247,1.8511,1.8829,1.9005,1.9166,1.9298,1.9298,1.9503,1.9811,0.9235,0.9355,0.9573,0.9962,1.0515,1.1055,1.1502,1.2234,1.2764,1.2794,1.2791,1.2735,1.2661,1.2783,1.2946,1.3084,1.3059,1.2921,1.267,1.258,1.2488,1.2406,1.3664,1.3865,1.2842,1.3715,1.2964,0.0,0.0,0.0,0.0,0.7612,0.7675,0.805,0.9083,1.02,0.0,0.0,1.4785,1.5453,1.5825,1.5994,1.5971,1.5188,1.5389,1.6136,1.6136,1.6631,1.7302,1.7302,1.7302,1.7258,1.7056,1.7121,1.7258,1.7056,1.7135,1.7288,1.7229,1.7258,1.7229,1.6976,1.6924,1.6909,1.6646,1.6602,1.6572,1.6536,1.625,1.5841,1.5315,1.5148,0.0,0.0,0.0,0.0,0.0,0.0,1.3272,1.3108,1.2874,1.2655,1.2509,1.1957,1.1458,1.1088,1.0901,1.1018,1.1492,0.0,0.0,0.0,0.0,1.4409,1.4018,0.0,1.6974,1.5928,1.6864,1.7302,1.7302,1.7375,1.7551,1.7799,1.7882,1.8101,1.8438,1.8785,1.8917,1.8921,1.9195,1.9342,1.9415,1.9415,1.9649,2.003,0.9811,1.0214,1.0524,1.047,1.1088,1.1632,1.1755,1.2191,1.2599,1.2795,1.3098,1.3207,1.2815,1.2962,1.3076,1.3092,1.2921,1.2815,1.2783,1.2507,1.2741,1.3689,1.3343,1.306,1.2897,1.2239,1.1448,0.0,0.0,0.8607,0.0,0.0,0.0,0.0,0.0,0.0,0.0,1.4205,1.507,1.6135,1.6402,1.6683,1.6885,1.6777,1.6918,1.7162,1.7162,1.7209,1.7302,1.7302,1.7302,1.7302,1.7273,1.7288,1.7302,1.7273,1.7288,1.7244,1.6997,1.7106,1.7229,1.6976,1.7077,1.7258,1.7214,1.7214,1.7165,1.6895,1.6595,1.6323,1.6265,1.6009,1.5592,0.0,0.0,0.0,0.0,0.0,1.4125,1.3539,1.3418,1.317,1.2567,1.1957,1.1577,1.1532,1.1518,1.1634,0.0,0.0,0.0,1.298,1.3418,1.4296,1.5651,1.6228,1.6872,1.7565,1.739,1.7302,1.7317,1.7609,1.777,1.7838,1.813,1.8438,1.8774,1.9122,1.9254,1.9268,1.9283,1.9488,1.9737,1.9737,2.0106,2.0605,1.0473,1.0591,1.0711,1.0983,1.1222,1.1425,1.1719,1.2352,1.2789,1.2793,1.2943,1.3072,1.3139,1.3027,1.2904,1.2904,1.2848,1.2759,1.2678,1.2442,1.2492,1.2909,1.3065,1.2788,1.2081,1.258,1.1911,0.0,0.0,0.0,0.0,0.0,0.0,0.0,0.0,1.278,1.411,1.4903,1.5713,1.6453,1.6734,1.6909,1.7003,1.7129,1.7223,1.7302,1.7302,1.7302,1.7302,1.7302,1.7302,1.7302,1.7302,1.7302,1.7302,1.7302,1.7302,1.7273,1.7179,1.7214,1.7273,1.7165,1.7214,1.7302,1.7302,1.7302,1.7273,1.7165,1.6909,1.6639,1.6448,1.6455,1.6213,1.5344,0.0,0.0,0.0,0.0,0.0,1.3876,1.3803,1.3682,1.3418,1.2453,1.2014,1.2411,1.1929,0.0,0.0,0.0,0.0,1.3862,0.0,1.4677,1.5885,1.6235,1.669,1.7261,1.7501,1.7697,1.7887,1.8043,1.8218,1.8423,1.8745,1.899,1.9122,1.9254,1.9415,1.9591,1.9591,1.9796,2.0047,2.0047,2.0325,2.0692,1.1023,1.0987,1.1065,1.1483,1.1442,1.1457,1.1856,1.2394,1.2837,1.3015,1.2885,1.2956,1.3368,1.31,1.2856,1.2807,1.2807,1.275,1.2686,1.2434,1.2304,1.2304,1.2561,0.0,1.1419,1.2669,1.2408,1.0541,1.0871,0.0,0.0,0.0,0.0,0.0,1.3139,1.3968,1.4783,1.5477,1.6113,1.6612,1.672,1.6862,1.7026,1.7153,1.7255,1.7302,1.7302,1.7302,1.7302,1.7302,1.7302,1.7302,1.7302,1.7302,1.7302,1.7302,1.7302,1.7302,1.7302,1.7302,1.7302,1.7302,1.7302,1.7302,1.7302,1.7302,1.7302,1.7302,1.715,1.6953,1.6719,1.6865,1.6733,1.5848,0.0,0.0,0.0,1.4657,0.0,1.4096,1.4008,1.4008,1.4008,1.298,1.2494,1.2947,1.2396,0.0,0.0,0.0,0.0,0.0,0.0,0.0,1.5739,1.6103,1.6558,1.7173,1.7691,1.8072,1.8306,1.8394,1.8628,1.8975,1.9195,1.9298,1.9312,1.9415,1.9576,1.9796,1.9898,2.0091,2.0356,2.0356,2.0561,2.0839,1.1357,1.1566,1.1711,1.1874,1.1875,1.2015,1.2444,1.2343,1.2539,1.3457,1.3138,1.2956,1.3368,1.3239,1.3027,1.2815,1.2807,1.2807,1.2799,1.2499,1.2304,0.0,0.0,1.1411,1.1203,1.1998,1.2529,1.2758,0.0,0.0,1.176,0.0,1.1566,1.3687,1.3887,1.4801,1.6163,1.5927,1.6103,1.6588,1.6319,1.6532,1.7003,1.7003,1.7129,1.7302,1.7302,1.7302,1.7302,1.7302,1.7302,1.7302,1.7302,1.7302,1.7302,1.7302,1.7302,1.7302,1.7302,1.7302,1.7302,1.7302,1.7302,1.7302,1.7302,1.7302,1.7302,1.7302,1.7302,1.7302,1.7288,1.7302,1.7083,1.6484,0.0,0.0,0.0,1.5013,0.0,1.4111,1.4008,1.4008,1.4008,1.3389,1.2977,1.3009,0.0,0.0,0.0,0.0,0.0,1.3492,1.3199,0.0,1.5402,1.5731,1.6535,1.7784,1.8145,1.8291,1.8321,1.8628,1.899,1.9298,1.9298,1.9298,1.9327,1.9649,1.9808,1.9825,2.0079,2.04,2.0692,2.0692,2.0925,2.1175,1.1548,1.1657,1.1743,1.1695,1.1986,1.2237,1.228,1.2791,1.3319,1.3738,1.3773,1.3765,1.375,1.3246,1.2864,1.2807,1.2807,1.2807,0.0,1.2507,1.2304,1.2304,1.1906,1.1606,1.1419,1.1422,1.1416,1.1363,0.0,0.0,0.0,1.4181,1.4667,1.5118,1.5185,1.5479,1.5927,1.5832,1.5998,1.6319,1.6224,1.6414,1.6753,1.6932,1.705,1.7106,1.7255,1.7302,1.7302,1.7302,1.7302,1.7302,1.7302,1.7302,1.7302,1.7302,1.7302,1.7302,1.7302,1.7302,1.7302,1.7302,1.7302,1.7302,1.7302,1.7302,1.7302,1.7302,1.7302,1.7375,1.7594,1.7448,1.7194,1.6792,1.6565,0.0,1.494,0.0,1.4876,1.4389,1.4501,1.4701,1.492,1.4384,0.0,0.0,0.0,0.0,0.0,0.0,0.0,0.0,1.5248,0.0,1.7024,1.693,1.7413,1.8482,1.8584,1.8745,1.899,1.9093,1.921,1.9298,1.9298,1.9298,1.9327,1.9649,1.9913,2.0093,2.0415,2.0736,2.1029,2.1029,2.1115,2.1203,1.1628,1.1698,1.1826,1.1827,1.2092,1.2373,1.256,1.3102,1.3623,1.3979,1.4071,1.4026,1.3912,1.3384,0.0,1.2815,1.2807,1.2807,1.2807,1.2564,1.2377,1.2312,1.2028,1.1993,1.2207,1.2427,0.0,1.2101,1.228,1.3182,1.4704,1.5504,1.5983,1.6128,1.6021,1.5992,1.5992,1.5848,1.595,1.6201,1.6201,1.6353,1.6612,1.6777,1.6862,1.6885,1.6988,1.7106,1.72,1.72,1.7246,1.7302,1.7302,1.7302,1.7302,1.7302,1.7302,1.7302,1.7302,1.7302,1.7302,1.7302,1.7302,1.7302,1.7302,1.7302,1.7302,1.7302,1.7404,1.7551,1.7755,1.7624,1.7419,1.7276,1.6865,1.6279,1.5402,0.0,1.5081,0.0,0.0,0.0,0.0,1.5101,1.5043,0.0,0.0,0.0,0.0,0.0,0.0,1.587,1.6235,1.6792,1.7594,1.7521,1.794,1.8789,1.9063,1.9356,1.9638,1.9638,1.9638,1.9638,1.9638,1.9638,1.9667,1.9989,2.0237,2.0429,2.0751,2.1028,2.1203,2.1203,2.1203,2.1203,1.1611,1.1728,1.1921,1.2151,1.223,1.2517,1.3182,1.3325,1.3531,1.412,1.4026,1.3912,1.3904,1.3595,1.3246,1.2856,0.0,0.0,1.2807,1.2661,1.2523,1.2328,1.2102,1.2413,1.3272,1.4306,1.4702,1.4442,1.3982,1.4238,1.5176,1.529,1.5834,1.67,1.6444,1.6324,1.631,1.5979,1.5977,1.6228,1.6191,1.6329,1.6565,1.6565,1.6565,1.6565,1.6588,1.6753,1.6979,1.6979,1.7106,1.7279,1.7279,1.7279,1.7302,1.7302,1.7302,1.7302,1.7302,1.7302,1.7302,1.7302,1.7317,1.7346,1.7361,1.7375,1.7375,1.7375,1.7609,1.7828,1.7882,1.7828,1.7784,1.7784,1.7276,1.6631,1.5943,1.5855,1.5555,0.0,0.0,0.0,1.5061,1.5622,1.5855,0.0,0.0,0.0,0.0,0.0,1.5753,1.5987,1.6396,1.688,1.7434,1.7784,1.8291,1.8891,1.9532,1.9945,2.021,2.021,2.021,2.021,2.021,2.021,2.0239,2.0561,2.0692,2.0722,2.1086,2.1203,2.1203,2.1203,2.1203,2.1203,0.0,0.0,1.2129,1.2201,1.2653,1.3111,1.3253,1.3575,1.3861,1.4156,1.4176,1.4058,1.3912,1.3674,1.3399,1.3068,1.288,1.2807,1.2807,1.2661,1.258,1.2539,1.2199,1.211,1.2325,1.2345,1.3143,1.4772,1.4416,1.5183,1.6977,1.6807,1.6711,1.67,1.6633,1.6607,1.658,1.6286,1.6349,1.6553,1.6068,1.6045,1.6295,1.6295,1.6295,1.6319,1.6518,1.6636,1.6683,1.6683,1.6847,1.7073,1.7073,1.7176,1.7302,1.7302,1.7302,1.7302,1.7302,1.7302,1.7302,1.7302,1.7492,1.7741,1.7989,1.8072,1.8072,1.8072,1.813,1.8262,1.8511,1.816,1.7784,1.7784,1.7085,1.6235,1.5417,1.5414,1.5369,0.0,1.5893,1.6514,1.6426,1.6769,1.6834,0.0,0.0,1.647,1.6294,1.7369,1.7691,1.6995,1.8028,1.8682,1.8843,1.9348,1.9713,1.9874,2.002,2.0137,2.021,2.021,2.021,2.021,2.021,2.021,2.0239,2.0561,2.0692,2.0722,2.1086,2.1203,2.1203,2.1203,2.1203,2.1203,1.1597,1.1818,1.2092,1.2417,1.2796,1.3182,1.3503,1.3753,1.3937,1.4034,1.4123,1.4176,1.4042,1.3872,1.3617,1.3334,1.3002,1.2807,1.2807,1.2743,1.2653,1.2596,1.2304,1.2366,1.2851,1.2625,1.3342,1.5077,1.5568,1.6204,1.7009,1.7384,1.7395,1.7101,1.6993,1.6939,1.6913,1.6618,1.6572,1.6657,1.6201,1.6104,1.6235,1.6075,1.6035,1.6045,1.6187,1.6305,1.6423,1.6423,1.6588,1.6829,1.6947,1.7085,1.7194,1.7352,1.7346,1.7331,1.7492,1.7521,1.7565,1.7711,1.7887,1.8086,1.8262,1.8306,1.8306,1.8306,1.8423,1.8584,1.8785,1.8247,1.7784,1.7784,1.6687,1.5647,1.5174,1.5194,1.5273,1.5311,1.638,1.7077,1.7077,1.7501,1.7633,1.7326,1.732,0.0,1.7715,1.8419,1.8482,1.777,1.9038,1.9711,1.9711,2.0035,2.0283,2.0429,2.0429,2.0502,2.0649,2.0649,2.0649,2.0649,2.0649,2.0649,2.0663,2.0839,2.0912,2.0969,2.1145,2.1203,2.1203,2.1203,2.1203,2.1203,1.1617,1.1771,1.2074,1.2675,1.2824,1.3111,1.3797,1.3904,1.3904,1.3904,1.4034,1.414,1.414,1.3945,1.3766,1.3577,1.3099,1.2807,1.2807,1.2807,1.2734,1.2645,1.241,1.2733,1.3634,1.3697,1.4222,1.5344,1.6745,1.7159,1.671,1.7654,1.7942,1.7742,1.7488,1.738,1.7287,1.6967,1.6807,1.674,1.6484,1.6364,1.6337,1.6035,1.5941,1.5941,1.5941,1.6085,1.629,1.629,1.6443,1.6723,1.694,1.7033,1.7138,1.7428,1.7426,1.7388,1.7688,1.7761,1.7897,1.8217,1.8354,1.8394,1.8438,1.8452,1.8452,1.8452,1.8672,1.8887,1.8887,1.8335,1.7828,1.7693,1.6276,1.5147,1.5069,0.0,1.5383,1.5777,1.6909,1.7667,1.7667,1.8247,1.8482,1.8179,1.8106,1.8452,1.9268,1.9155,1.8906,1.854,1.9655,2.0312,2.0356,2.0356,2.0502,2.0765,2.0765,2.0912,2.1203,2.1203,2.1203,2.1203,2.1203,2.1203,2.1203,2.1203,2.1203,2.1203,2.1203,2.1203,2.1203,2.1203,2.1203,2.1203,1.1674,1.1989,1.2401,1.2747,1.3039,1.3396,1.3833,1.3904,1.3904,1.3904,1.3928,1.3945,1.3945,1.3687,1.3476,1.3417,1.3026,1.2807,1.2807,1.2807,1.2791,1.2759,1.2483,1.2382,1.2547,1.3295,1.4302,1.5545,1.6565,1.7542,1.8489,1.8447,1.8397,1.8343,1.8331,1.8143,1.7862,1.7582,1.7327,1.7073,1.6754,1.6633,1.6633,1.6593,1.6567,1.6567,1.6567,1.6591,1.6616,1.6616,1.6803,1.704,1.7081,1.7244,1.7442,1.7484,1.7492,1.7471,1.7538,1.7715,1.7974,1.829,1.8539,1.8814,1.9093,1.9151,1.9151,1.9151,1.9195,1.9224,1.9224,1.8672,1.7984,1.7232,1.6222,1.5348,1.4909,0.0,1.6173,1.6794,1.8353,1.9415,1.9415,1.9725,1.9889,1.9845,1.9608,1.943,1.9312,2.0003,2.015,1.9576,2.0252,2.0751,2.1029,2.1029,2.1086,2.113,2.113,2.1159,2.1203,2.1203,2.1203,2.1203,2.1203,2.1203,2.1203,2.1203,2.1203,2.1203,2.1203,2.1203,2.1203,2.1203,2.1203,2.1203,1.1884,1.2173,1.2503,1.2866,1.3136,1.3432,1.3833,1.3904,1.3904,1.3904,1.3904,1.3937,1.4042,1.3815,1.362,1.353,1.3279,1.3043,1.2815,1.2807,1.2807,1.2807,1.2588,1.267,1.3146,1.4325,1.5479,1.6632,1.7889,1.8635,1.889,1.8756,1.8637,1.849,1.849,1.8303,1.7982,1.7862,1.7662,1.7381,1.7086,1.6966,1.6953,1.6767,1.67,1.67,1.67,1.67,1.67,1.67,1.6789,1.6916,1.7103,1.7233,1.7387,1.7512,1.7648,1.7776,1.7776,1.7978,1.8224,1.8365,1.8625,1.8926,1.9242,1.9572,1.9872,2.002,2.0062,2.0003,1.9828,1.8979,1.8047,1.7333,1.6315,0.0,1.531,1.6188,1.7093,1.7774,1.9138,2.0091,2.0267,2.0225,2.021,2.021,2.0106,2.0106,2.0311,2.0546,2.0823,2.1085,2.1013,2.1029,2.1203,2.1203,2.1203,2.1203,2.1203,2.1203,2.1203,2.1203,2.1203,2.1203,2.1203,2.1203,2.1203,2.1203,2.1203,2.1203,2.1203,2.1203,2.1203,2.1203,2.1203,2.1203,1.2111,1.2326,1.2625,1.2993,1.3245,1.3578,1.3933,1.3969,1.3953,1.3904,1.3904,1.3953,1.4099,1.3953,1.3755,1.3617,1.3441,1.3189,1.288,1.2823,1.2807,1.2807,1.2661,1.3046,1.4,1.5278,1.6489,1.7598,1.9011,1.9466,1.9025,1.9025,1.8905,1.8719,1.8719,1.8531,1.8195,1.8195,1.8009,1.7675,1.7474,1.7341,1.7247,1.702,1.6954,1.6982,1.6941,1.6954,1.6995,1.6995,1.6995,1.7074,1.7394,1.7488,1.7528,1.7755,1.7952,1.81,1.8031,1.8196,1.843,1.8583,1.8872,1.9204,1.9533,1.9958,2.0371,2.0636,2.0634,2.0502,2.0254,1.936,1.8436,1.7748,0.0,0.0,0.0,1.7104,1.8009,1.8806,1.9808,2.0561,2.0882,2.0765,2.0634,2.0546,2.0619,2.0867,2.1306,2.1159,2.1408,2.2184,2.1701,2.1408,2.132,2.1393,2.1437,2.1437,2.1437,2.1437,2.1437,2.135,2.132,2.132,2.1247,2.1203,2.1203,2.1203,2.1203,2.1218,2.1291,2.1276,2.1233,2.1379,2.1393,2.1335,1.2152,1.2494,1.2919,1.3148,1.3556,1.393,1.4144,1.4192,1.4099,1.392,1.3904,1.3904,1.392,1.3731,1.3625,1.3609,1.3319,1.31,1.3076,1.2888,1.2807,1.2807,1.2661,1.3137,1.4341,1.533,1.6507,1.7877,1.892,1.9401,1.9361,1.9361,1.9348,1.9334,1.9334,1.9145,1.8823,1.8823,1.8503,1.7955,1.7969,1.7782,1.7582,1.7528,1.7689,1.7889,1.7622,1.7702,1.7889,1.7889,1.7889,1.7969,1.8303,1.8397,1.8397,1.8424,1.8465,1.8385,1.8077,1.8239,1.8618,1.9125,1.95,1.9907,2.0459,2.0401,2.03,2.0636,2.0459,2.0239,2.021,1.9916,1.9421,1.8564,0.0,0.0,1.7826,1.8182,1.8835,1.9937,2.0692,2.1262,2.1598,2.1876,2.192,2.1613,2.1876,2.1935,2.1672,2.192,2.2111,2.2214,2.217,2.1964,2.1672,2.1964,2.214,2.214,2.214,2.214,2.2126,2.1803,2.1657,2.1642,2.1335,2.1203,2.1203,2.1203,2.1203,2.1233,2.154,2.1481,2.1276,2.1891,2.192,2.1701,1.2703,1.3027,1.3355,1.3717,1.4021,1.4223,1.4306,1.4245,1.4156,1.4083,1.3977,1.3904,1.3904,1.3847,1.3723,1.3617,1.3409,1.3214,1.31,1.2896,1.2807,1.2807,1.2661,1.3165,1.4424,1.5535,1.6344,1.6783,1.8884,1.9475,1.8684,1.9322,1.9669,1.9626,1.9481,1.9199,1.889,1.889,1.8663,1.8317,1.8317,1.825,1.817,1.817,1.8223,1.8303,1.8183,1.8223,1.8317,1.8317,1.8317,1.8343,1.845,1.849,1.849,1.849,1.849,1.8504,1.8543,1.8547,1.8535,1.8764,1.9178,1.9653,2.0047,2.0473,2.0902,2.1234,2.1233,2.1086,2.0853,2.0413,1.982,1.9158,0.0,1.8825,1.8858,1.944,2.0199,2.1029,2.154,2.1935,2.2242,2.2213,2.2155,2.2008,2.214,2.2125,2.2008,2.2286,2.2374,2.2214,2.2564,2.252,2.2008,2.2155,2.2214,2.2214,2.2214,2.2214,2.2214,2.2082,2.1993,2.1979,2.1657,2.1511,2.1496,2.1291,2.132,2.1525,2.1642,2.1745,2.1847,2.2126,2.2111,2.2023,1.3042,1.3456,1.3877,1.4144,1.442,1.4578,1.4492,1.4424,1.4326,1.4261,1.4099,1.3985,1.3985,1.3937,1.3855,1.3698,1.3563,1.3401,1.3279,1.3018,1.2856,1.2807,1.2718,1.3293,1.4598,1.5341,1.5909,1.6232,1.8472,1.9039,1.807,1.9253,1.976,1.9653,1.9481,1.9281,1.9065,1.9065,1.8891,1.8624,1.8624,1.8571,1.849,1.849,1.8544,1.8611,1.8517,1.8544,1.8624,1.8624,1.8624,1.8637,1.8759,1.8799,1.8799,1.8799,1.8824,1.8945,1.9145,1.9118,1.904,1.906,1.9394,1.9815,2.0272,2.0885,2.1434,2.1788,2.1847,2.1789,2.1554,2.1145,2.0679,2.0192,2.0185,2.0196,2.012,2.0725,2.135,2.1803,2.2052,2.2257,2.2462,2.2389,2.2286,2.2228,2.2359,2.2476,2.2476,2.2667,2.2681,2.2476,2.2886,2.2901,2.2476,2.2476,2.2476,2.2476,2.2476,2.2476,2.2476,2.2374,2.233,2.2301,2.1993,2.1847,2.1832,2.1613,2.1642,2.1862,2.195,2.2067,2.2213,2.2403,2.2403,2.233,1.3081,1.3783,1.4407,1.4407,1.4745,1.4949,1.4732,1.4708,1.4643,1.4419,1.4286,1.4217,1.4217,1.4018,1.3904,1.3904,1.3706,1.3609,1.3609,1.3295,1.3019,1.2815,1.2807,1.3448,1.4847,1.4649,1.5143,1.6466,1.7642,1.8027,1.7745,1.9133,1.9682,1.9401,1.9401,1.9401,1.9401,1.9401,1.9199,1.8903,1.8903,1.8758,1.8504,1.8504,1.8677,1.8863,1.8597,1.8691,1.8903,1.8903,1.8903,1.8956,1.9308,1.9401,1.9401,1.9401,1.9573,1.98,1.98,2.0013,2.0221,2.0283,2.0303,2.055,2.1484,2.1705,2.1795,2.2124,2.2214,2.2214,2.2214,2.2214,2.2081,2.1759,2.1979,2.2067,2.1745,2.1979,2.2214,2.2184,2.2184,2.2184,2.2228,2.2462,2.2475,2.2243,2.2769,2.3106,2.3106,2.3106,2.3106,2.3106,2.3106,2.3106,2.3106,2.3106,2.3106,2.3106,2.3106,2.3106,2.3091,2.2769,2.2592,2.2578,2.2315,2.2184,2.2184,2.2214,2.2214,2.2213,2.2506,2.2447,2.2302,2.2886,2.2901,2.2636,1.3467,1.4014,1.4476,1.4776,1.493,1.499,1.4933,1.4789,1.4692,1.4635,1.4464,1.431,1.4225,1.4168,1.4042,1.3912,1.3706,1.3552,1.3465,1.323,1.3133,1.3206,1.2937,1.2997,1.3416,1.4335,1.4493,1.3917,1.718,1.8222,1.7258,1.9416,2.0405,2.0298,1.9853,1.9786,1.996,1.976,1.9733,1.981,1.981,1.9637,1.9426,1.9639,1.9519,1.9281,1.9372,1.9332,1.9267,1.9267,1.9267,1.9308,1.9586,1.9813,1.9973,1.9973,2.004,2.0077,2.0077,2.0144,2.0214,2.0211,2.0575,2.0992,2.1286,2.1705,2.2079,2.2184,2.2214,2.2214,2.2214,2.2214,2.2184,2.2082,2.2125,2.2184,2.2052,2.2155,2.2257,2.2462,2.2491,2.2579,2.2813,2.2915,2.293,2.2842,2.3003,2.3106,2.3106,2.3106,2.3106,2.3106,2.3106,2.3106,2.3106,2.3106,2.3106,2.3106,2.3106,2.3106,2.3106,2.3003,2.2959,2.2914,2.2623,2.2491,2.2476,2.2271,2.2301,2.2506,2.2563,2.268,2.2857,2.3047,2.3047,2.2974,1.3636,1.4106,1.4593,1.4938,1.5006,1.5006,1.5006,1.4917,1.4806,1.4806,1.4651,1.4473,1.4302,1.4221,1.4107,1.392,1.3807,1.3666,1.3587,1.3409,1.336,1.3474,1.3133,1.2904,1.2904,1.368,1.3645,1.2807,1.5879,1.6894,1.607,1.8081,1.8963,1.8852,1.849,1.844,1.8606,1.9003,1.927,1.9455,1.9985,2.0104,1.9987,2.013,1.9983,1.9733,1.9907,1.9853,1.9706,1.9706,1.9706,1.972,1.9786,1.997,2.0197,2.0197,2.029,2.0401,2.0401,2.0494,2.0544,2.0544,2.0889,2.1224,2.1375,2.1896,2.2359,2.2359,2.2462,2.255,2.255,2.255,2.255,2.255,2.255,2.255,2.255,2.255,2.2623,2.2798,2.2813,2.2901,2.3091,2.3106,2.3106,2.3106,2.3106,2.3106,2.3106,2.3106,2.3106,2.3106,2.3106,2.3106,2.3106,2.3106,2.3106,2.3106,2.3106,2.3106,2.3106,2.3106,2.3106,2.3091,2.2901,2.2813,2.2798,2.2623,2.2652,2.2813,2.2813,2.293,2.3106,2.3106,2.3106,2.3106,1.3773,1.4291,1.4735,1.4986,1.5031,1.5023,1.5006,1.5006,1.5006,1.5006,1.483,1.4659,1.4435,1.4318,1.4148,1.3945,1.3896,1.3888,1.3904,1.3706,1.3617,1.3633,1.3311,1.3116,1.3116,1.2896,1.2807,1.2807,1.4193,1.4785,1.4565,1.5895,1.6412,1.6178,1.6157,1.6157,1.6271,1.7653,1.8238,1.8385,1.9759,2.0264,2.025,2.0277,2.025,2.021,2.0237,2.0224,2.0197,2.0197,2.0224,2.0197,1.996,2.005,2.0277,2.0277,2.0508,2.0753,2.0753,2.0909,2.1109,2.1109,2.1173,2.1339,2.164,2.2158,2.2575,2.2605,2.2839,2.3074,2.3074,2.3106,2.3106,2.3106,2.3106,2.3106,2.3106,2.3106,2.3106,2.3106,2.3135,2.3135,2.3106,2.3106,2.3106,2.3106,2.3106,2.3106,2.3106,2.3106,2.3106,2.3106,2.3106,2.3106,2.3106,2.3106,2.3106,2.3106,2.3106,2.3106,2.3106,2.3106,2.3106,2.3106,2.3106,2.3106,2.3106,2.3106,2.3106,2.3106,2.3106,2.3106,2.3106,2.3106,2.3106,2.3106,1.4584,1.4995,1.528,1.5173,1.514,1.513,1.5023,1.5006,1.5006,1.5006,1.4974,1.4846,1.4667,1.4619,1.4464,1.4148,1.3863,1.3723,1.3896,1.3706,1.3666,1.3839,1.3498,1.3345,1.3345,1.2969,1.2807,1.2807,1.4193,1.4851,1.4846,1.6228,1.6872,1.6786,1.6529,1.6551,1.6871,1.8022,1.8611,1.8962,2.0344,2.0788,2.0601,2.0828,2.0597,2.0237,2.0494,2.0428,2.0197,2.0197,2.0357,2.0575,2.0539,2.0681,2.0891,2.0891,2.0962,2.1015,2.1015,2.1069,2.1109,2.1109,2.1299,2.1534,2.1596,2.1933,2.2287,2.2537,2.2656,2.2793,2.3043,2.3106,2.3106,2.3106,2.3106,2.3106,2.3106,2.3106,2.3106,2.3106,2.334,2.3384,2.3135,2.3106,2.3106,2.3106,2.3106,2.3106,2.3106,2.3106,2.3106,2.3106,2.3106,2.3106,2.3106,2.3106,2.3106,2.3106,2.3106,2.3106,2.3106,2.3106,2.3106,2.3106,2.3106,2.3106,2.3106,2.3106,2.3106,2.3106,2.3106,2.3106,2.3106,2.3106,2.3106,2.3106,1.4835,1.5105,1.5305,1.5327,1.5335,1.5309,1.5122,1.5098,1.5065,1.5015,1.5006,1.4941,1.4724,1.4708,1.457,1.4249,1.401,1.3896,1.3904,1.3815,1.3807,1.3896,1.3644,1.3498,1.3498,1.3149,1.2888,1.2807,1.3547,1.3908,1.3908,1.4651,1.501,1.5001,1.4822,1.4841,1.5131,1.7032,1.7917,1.8235,2.0272,2.1015,2.0895,2.1056,2.0891,2.0637,2.0828,2.0788,2.0597,2.0494,2.0641,2.0855,2.0753,2.0869,2.1109,2.1109,2.1109,2.1109,2.1109,2.1109,2.1109,2.1109,2.1362,2.1673,2.2015,2.2328,2.2719,2.3226,2.3319,2.3383,2.3542,2.3574,2.3515,2.3369,2.334,2.334,2.334,2.334,2.3398,2.3559,2.372,2.3764,2.3588,2.3427,2.334,2.334,2.3193,2.3106,2.3106,2.3106,2.3106,2.3106,2.3106,2.3106,2.3106,2.3106,2.3106,2.3106,2.3106,2.3106,2.3106,2.3106,2.3106,2.3106,2.3106,2.3106,2.3106,2.3106,2.3106,2.3106,2.3106,2.3106,2.3106,2.3106,2.3106,2.3106,1.5024,1.5198,1.5327,1.5513,1.5561,1.5488,1.5229,1.5197,1.5132,1.5031,1.5006,1.4949,1.4765,1.4724,1.4586,1.4294,1.4213,1.4115,1.3961,1.392,1.3904,1.3904,1.3698,1.3609,1.3609,1.3311,1.3051,1.2848,1.2815,1.2807,1.2807,1.2807,1.2807,1.2807,1.2807,1.2807,1.2964,1.5814,1.7012,1.7238,1.9973,2.1109,2.1109,2.1109,2.1109,2.1109,2.1109,2.1109,2.1069,2.0828,2.0909,2.1069,2.0828,2.0909,2.1109,2.1109,2.1109,2.1109,2.1109,2.1149,2.1189,2.1253,2.1502,2.1942,2.2696,2.2939,2.321,2.3883,2.4021,2.4021,2.4086,2.4118,2.4031,2.372,2.3676,2.3676,2.3676,2.3676,2.3779,2.4089,2.4118,2.4133,2.4192,2.3866,2.3676,2.3676,2.3427,2.3281,2.3281,2.3223,2.3193,2.3193,2.3135,2.3106,2.3106,2.3106,2.3106,2.3106,2.3106,2.3106,2.3106,2.3106,2.3106,2.3106,2.3106,2.3106,2.3106,2.3106,2.3106,2.3106,2.3106,2.3106,2.3106,2.3106,2.3106,2.3106,1.5828,1.5868,1.5869,1.5772,1.578,1.5626,1.5254,1.5197,1.5132,1.5031,1.5006,1.4998,1.4974,1.4797,1.4692,1.4643,1.4359,1.42,1.414,1.3993,1.3904,1.3904,1.3698,1.3609,1.3609,1.3441,1.3246,1.3059,1.288,1.2807,1.2807,1.2807,1.2807,1.2807,1.2807,1.2807,1.2964,1.5814,1.7012,1.7238,1.9973,2.1109,2.1109,2.1109,2.1109,2.1109,2.1109,2.1109,2.1096,2.1069,2.1082,2.1096,2.1069,2.1082,2.1109,2.1109,2.1109,2.1109,2.1109,2.1296,2.1593,2.1869,2.2156,2.2626,2.3672,2.3251,2.2857,2.3526,2.3663,2.376,2.4053,2.4118,2.4104,2.4027,2.4013,2.4013,2.4013,2.4013,2.4027,2.4071,2.4118,2.4221,2.4514,2.4236,2.4013,2.4013,2.3984,2.3954,2.3954,2.3691,2.353,2.353,2.3252,2.3106,2.3106,2.3106,2.3106,2.3106,2.3106,2.3106,2.3106,2.3106,2.3106,2.3106,2.3106,2.3106,2.3106,2.3106,2.3106,2.3106,2.3106,2.3106,2.3106,2.3106,2.3106,2.3106,1.5991,1.6007,1.5983,1.5943,1.5926,1.5837,1.5577,1.5455,1.5325,1.5139,1.5063,1.5006,1.5006,1.4933,1.4814,1.4716,1.4562,1.4432,1.4326,1.4156,1.4058,1.4058,1.388,1.3755,1.3755,1.3612,1.3482,1.3366,1.3222,1.3035,1.2807,1.2904,1.2896,1.2807,1.2807,1.3227,1.4104,1.6138,1.7431,1.8299,2.0303,2.1109,2.1109,2.1109,2.1109,2.1109,2.1109,2.1109,2.1109,2.1109,2.1109,2.1109,2.1109,2.1109,2.1109,2.1109,2.1229,2.1413,2.1605,2.19,2.2182,2.2572,2.2897,2.3276,2.3966,2.3888,2.3839,2.4322,2.4428,2.4494,2.4627,2.4661,2.4602,2.4412,2.4382,2.4382,2.4382,2.4382,2.4456,2.4646,2.4661,2.4719,2.4866,2.4573,2.4382,2.4382,2.4221,2.4118,2.4118,2.3779,2.3588,2.3588,2.3281,2.3106,2.3106,2.3296,2.3281,2.3106,2.3296,2.3281,2.3106,2.3106,2.3106,2.3106,2.3106,2.3106,2.3106,2.3106,2.3106,2.3106,2.3106,2.3106,2.3106,2.3106,2.3106,2.3106]},{"header":{"parameterUnit":"m.s-1","parameterCategory":1,"la1":30.6,"la2":28.766,"lo1":-90.7593,"lo2":-88.6598,"dy":0.0162,"dx":0.0183,"nx":116,"ny":114,"refTime":"2023-03-28T06:00:00:Z","depth":0,"parameterNumber":3,"parameterNumberName":"V-component_of_WINDS"},"data":[0.0,0.0,0.0,0.0,0.0,0.0,0.0,0.0,0.0,0.0,0.0,0.0,0.0,0.0,0.0,0.0,0.0,0.0,0.0,0.0,0.0,0.0,0.0,0.0,0.0,0.0,0.0,0.0,0.0,0.0,0.0,0.0,0.0,0.0,0.0,0.0,0.0,0.0,0.0,0.0,0.0,0.0,0.0,0.0,0.0,0.0,0.0,0.0,0.0,0.0,0.0,0.0,0.0,0.0,0.0,0.0,0.0,0.0,0.0,0.0,0.0,0.0,0.0,0.0,0.0,0.0,0.0,0.0,0.0,0.0,0.0,0.0,0.0,0.0,0.0,0.0,0.0,0.0,0.0,0.0,0.0,0.0,0.0,0.0,0.0,0.0,0.0,0.0,0.0,0.0,0.0,0.0,0.0,0.0,0.0,0.0,0.0,0.0,0.0,0.0,0.0,0.0,0.0,0.0,0.0,0.0,0.0,0.0,0.0,0.0,0.0,0.0,0.0,0.0,0.0,0.0,0.0,0.0,0.0,0.0,0.0,0.0,0.0,0.0,0.0,0.0,0.0,0.0,0.0,0.0,0.0,0.0,0.0,0.0,0.0,0.0,0.0,0.0,0.0,0.0,0.0,0.0,0.0,0.0,0.0,0.0,0.0,0.0,0.0,0.0,0.0,0.0,0.0,0.0,0.0,0.0,0.0,0.0,0.0,0.0,0.0,0.0,0.0,0.0,0.0,0.0,0.0,0.0,0.0,0.0,0.0,0.0,0.0,0.0,0.0,0.0,0.0,0.0,0.0,0.0,0.0,0.0,0.0,0.0,0.0,0.0,0.0,0.0,0.0,0.0,0.0,0.0,0.0,0.0,0.0,0.0,0.0,0.0,0.0,0.0,0.0,0.0,0.0,0.0,0.0,0.0,0.0,0.0,0.0,0.0,0.0,0.0,0.0,0.0,0.0,0.0,0.0,0.0,0.0,0.0,0.0,0.0,0.0,0.0,0.0,0.0,0.0,0.0,0.0,0.0,0.0,0.0,0.0,0.0,0.0,0.0,0.0,0.0,0.0,0.0,0.0,0.0,0.0,0.0,0.0,0.0,0.0,0.0,0.0,0.0,0.0,0.0,0.0,0.0,0.0,0.0,0.0,0.0,0.0,0.0,0.0,0.0,0.0,0.0,0.0,0.0,0.0,0.0,0.0,0.0,0.0,0.0,0.0,0.0,0.0,0.0,0.0,0.0,0.0,0.0,0.0,0.0,0.0,0.0,0.0,0.0,0.0,0.0,0.0,0.0,0.0,0.0,0.0,0.0,0.0,0.0,0.0,0.0,0.0,0.0,0.0,0.0,0.0,0.0,0.0,0.0,0.0,0.0,0.0,0.0,0.0,0.0,0.0,0.0,0.0,0.0,0.0,0.0,0.0,0.0,0.0,0.0,0.0,0.0,0.0,0.0,0.0,0.0,0.0,0.0,0.0,0.0,0.0,0.0,0.0,0.0,0.0,0.0,0.0,0.0,0.0,0.0,0.0,0.0,0.0,0.0,0.0,0.0,0.0,0.0,0.0,0.0,0.0,0.0,0.0,0.0,0.0,0.0,0.0,0.0,0.0,0.0,0.0,0.0,0.0,0.0,0.0,0.0,0.0,0.0,0.0,0.0,0.0,0.0,0.0,0.0,0.0,0.0,0.0,0.0,0.0,0.0,0.0,0.0,0.0,0.0,0.0,0.0,0.0,0.0,0.0,0.0,0.0,0.0,0.0,0.0,0.0,0.0,0.0,0.0,0.0,0.0,0.0,0.0,0.0,0.0,0.0,0.0,0.0,0.0,0.0,0.0,0.0,0.0,0.0,0.0,0.0,0.0,0.0,0.0,0.0,0.0,0.0,0.0,0.0,0.0,0.0,0.0,0.0,0.0,0.0,0.0,0.0,0.0,0.0,0.0,0.0,0.0,0.0,0.0,0.0,0.0,0.0,0.0,0.0,0.0,0.0,0.0,0.0,0.0,0.0,0.0,0.0,0.0,0.0,0.0,0.0,0.0,0.0,0.0,0.0,0.0,0.0,0.0,0.0,0.0,0.0,0.0,0.0,0.0,0.0,0.0,0.0,0.0,0.0,0.0,0.0,0.0,0.0,0.0,0.0,0.0,0.0,0.0,0.0,0.0,0.0,0.0,0.0,0.0,0.0,0.0,0.0,0.0,0.0,0.0,0.0,0.0,0.0,0.0,0.0,0.0,0.0,0.0,0.0,0.0,0.0,0.0,0.0,0.0,0.0,0.0,0.0,0.0,0.0,0.0,0.0,0.0,0.0,0.0,0.0,0.0,0.0,0.0,0.0,0.0,0.0,0.0,0.0,0.0,0.0,0.0,0.0,0.0,0.0,0.0,0.0,0.0,0.0,0.0,0.0,0.0,0.0,0.0,0.0,0.0,0.0,0.0,0.0,0.0,0.0,0.0,0.0,0.0,0.0,0.0,0.0,0.0,0.0,0.0,0.0,0.0,0.0,0.0,0.0,0.0,0.0,0.0,0.0,0.0,0.0,0.0,0.0,0.0,0.0,0.0,0.0,0.0,0.0,0.0,0.0,0.0,0.0,0.0,0.0,0.0,0.0,0.0,0.0,0.0,0.0,0.0,0.0,0.0,0.0,0.0,0.0,0.0,0.0,0.0,0.0,0.0,0.0,0.0,0.0,0.0,0.0,0.0,0.0,0.0,0.0,0.0,0.0,0.0,0.0,0.0,0.0,0.0,0.0,0.0,0.0,0.0,0.0,0.0,0.0,0.0,0.0,0.0,0.0,0.0,0.0,0.0,0.0,0.0,0.0,0.0,0.0,0.0,0.0,0.0,0.0,0.0,0.0,0.0,0.0,0.0,0.0,0.0,0.0,0.0,0.0,0.0,0.0,0.0,0.0,0.0,0.0,0.0,0.0,0.0,0.0,0.0,0.0,0.0,0.0,0.0,0.0,0.0,0.0,0.0,0.0,0.0,0.0,0.0,0.0,0.0,0.0,0.0,0.0,0.0,0.0,0.0,0.0,0.0,0.0,0.0,0.0,0.0,0.0,0.0,0.0,0.0,0.0,0.0,0.0,0.0,0.0,0.0,0.0,0.0,0.0,0.0,0.0,0.0,0.0,0.0,0.0,0.0,0.0,0.0,0.0,0.0,0.0,0.0,0.0,0.0,0.0,0.0,0.0,0.0,0.0,0.0,0.0,0.0,0.0,0.0,0.0,0.0,0.0,0.0,0.0,0.0,0.0,0.0,0.0,0.0,0.0,0.0,0.0,0.0,0.0,0.0,0.0,0.0,0.0,0.0,0.0,0.0,0.0,0.0,0.0,0.0,0.0,0.0,0.0,0.0,0.0,0.0,0.0,0.0,0.0,0.0,0.0,0.0,0.0,0.0,0.0,0.0,0.0,0.0,0.0,0.0,0.0,0.0,0.0,0.0,0.0,0.0,0.0,0.0,0.0,0.0,0.0,0.0,0.0,0.0,0.0,0.0,0.0,0.0,0.0,0.0,0.0,0.0,0.0,0.0,0.0,0.0,0.0,0.0,0.0,0.0,0.0,0.0,0.0,0.0,0.0,0.0,0.0,0.0,0.0,0.0,0.0,0.0,0.0,0.0,0.0,0.0,0.0,0.0,0.0,0.0,0.0,0.0,0.0,0.0,0.0,0.0,0.0,0.0,0.0,0.0,0.0,0.0,0.0,0.0,0.0,0.0,0.0,0.0,0.0,0.0,0.0,0.0,0.0,0.0,0.0,0.0,0.0,0.0,0.0,0.0,0.0,0.0,0.0,0.0,0.0,0.0,0.0,0.0,0.0,0.0,0.0,0.0,0.0,0.0,0.0,0.0,0.0,0.0,0.0,0.0,0.0,0.0,0.0,0.0,0.0,0.0,0.0,0.0,0.0,0.0,0.0,0.0,0.0,0.0,0.0,0.0,0.0,0.0,0.0,0.0,0.0,0.0,0.0,0.0,0.0,0.0,0.0,0.0,0.0,0.0,0.0,0.0,0.0,0.0,0.0,0.0,0.0,0.0,0.0,0.0,0.0,0.0,0.0,0.0,0.0,0.0,0.0,0.0,0.0,0.0,0.0,0.0,0.0,0.0,0.0,0.0,0.0,0.0,0.0,0.0,0.0,0.0,0.0,0.0,0.0,0.0,0.0,0.0,0.0,0.0,0.0,0.0,0.0,0.0,0.0,0.0,0.0,0.0,0.0,0.0,0.0,0.0,0.0,0.0,0.0,0.0,0.0,0.0,0.0,0.0,0.0,0.0,0.0,0.0,0.0,0.0,0.0,0.0,0.0,0.0,0.0,0.0,0.0,0.0,0.0,0.0,0.0,0.0,0.0,0.0,0.0,0.0,0.0,0.0,0.0,0.0,0.0,0.0,0.0,0.0,0.0,0.0,0.0,0.0,0.0,0.0,0.0,0.0,0.0,0.0,0.0,0.0,0.0,0.0,0.0,0.0,0.0,0.0,0.0,0.0,0.0,0.0,0.0,0.0,0.0,0.0,0.0,0.0,0.0,0.0,0.0,0.0,0.0,0.0,0.0,0.0,0.0,0.0,0.0,0.0,0.0,0.0,0.0,0.0,0.0,0.0,0.0,0.0,0.0,0.0,0.0,0.0,0.0,0.0,0.0,0.0,0.0,0.0,0.0,0.0,0.0,0.0,0.0,0.0,0.0,0.0,0.0,0.0,0.0,0.0,0.0,0.0,0.0,0.0,0.0,0.0,0.0,0.0,0.0,0.0,0.0,0.0,0.0,0.0,0.0,0.0,0.0,0.0,0.0,0.0,0.0,0.0,0.0,0.0,0.0,0.0,0.0,0.0,0.0,0.0,0.0,0.0,0.0,0.0,0.0,0.0,0.0,0.0,0.0,0.0,0.0,0.0,0.0,0.0,0.0,0.0,0.0,0.0,0.0,0.0,0.0,0.0,0.0,0.0,0.0,0.0,0.0,0.0,0.0,0.0,0.0,0.0,0.0,0.0,0.0,0.0,0.0,0.0,0.0,0.0,0.0,0.0,0.0,0.0,0.0,0.0,0.0,0.0,0.0,0.0,0.0,0.0,0.0,0.0,0.0,0.0,0.0,0.0,0.0,0.0,0.0,0.0,0.0,0.0,0.0,0.0,0.0,0.0,0.0,0.0,0.0,0.0,0.0,0.0,0.0,0.0,0.0,0.0,0.0,0.0,0.0,0.0,0.0,0.0,0.0,0.0,0.0,0.0,0.0,0.0,0.0,0.0,0.0,0.0,0.0,0.0,0.0,0.0,0.0,0.0,0.0,0.0,0.0,0.0,0.0,0.0,0.0,0.0,0.0,0.0,0.0,0.0,0.0,0.0,0.0,0.0,0.0,0.0,0.0,0.0,0.0,0.0,0.0,0.0,0.0,0.0,0.0,0.0,0.0,0.0,0.0,0.0,0.0,0.0,0.0,0.0,0.0,0.0,0.0,0.0,0.0,0.0,0.0,0.0,0.0,0.0,0.0,0.0,0.0,0.0,0.0,0.0,0.0,0.0,0.0,0.0,0.0,0.0,0.0,0.0,0.0,0.0,0.0,0.0,0.0,0.0,0.0,0.0,0.0,0.0,0.0,0.0,0.0,0.0,0.0,0.0,0.0,0.0,0.0,0.0,0.0,0.0,0.0,0.0,0.0,0.0,0.0,0.0,0.0,0.0,0.0,0.0,0.0,0.0,0.0,0.0,0.0,0.0,0.0,0.0,0.0,0.0,0.0,0.0,0.0,0.0,0.0,0.0,0.0,0.0,0.0,0.0,0.0,0.0,0.0,0.0,0.0,0.0,0.0,0.0,0.0,0.0,0.0,0.0,0.0,0.0,0.0,0.0,0.0,0.0,0.0,0.0,0.0,0.0,0.0,0.0,0.0,0.0,0.0,0.0,0.0,0.0,0.0,0.0,0.0,0.0,0.0,0.0,0.0,0.0,0.0,0.0,0.0,0.0,0.0,0.0,0.0,0.0,0.0,0.0,0.0,0.0,0.0,0.0,0.0,0.0,0.0,0.0,0.0,0.0,0.0,0.0,0.0,0.0,0.0,0.0,0.0,0.0,0.0,0.0,0.0,0.0,0.0,0.0,0.0,0.0,0.0,0.0,1.0773,0.0,0.0,0.0,0.0,0.0,0.0,0.0,0.0,0.0,0.0,0.0,0.0,0.0,0.0,0.0,0.0,0.0,0.0,0.0,0.0,0.0,0.0,0.0,0.0,0.0,0.0,0.0,0.0,0.0,0.0,0.0,0.0,0.0,0.0,0.0,0.0,0.0,0.0,0.0,0.0,0.0,0.0,0.0,0.0,0.0,0.0,0.0,0.0,0.0,0.0,0.0,0.0,0.0,0.0,0.0,0.0,0.0,0.0,0.0,0.0,0.0,0.0,0.0,0.0,0.0,0.0,0.0,0.0,0.0,0.0,0.0,0.0,0.0,0.0,0.0,0.0,0.0,0.0,0.0,0.0,0.0,0.0,0.0,0.0,0.0,0.0,0.0,0.0,0.0,0.0,0.0,0.0,0.0,0.0,0.0,0.0,0.0,0.0,0.0,0.0,0.0,0.0,0.0,0.0,0.0,0.0,0.0,0.0,0.0,0.0,0.0,0.0,0.0,0.0,0.0,0.0,1.2363,0.0,0.0,0.0,0.0,0.0,0.0,0.0,0.0,0.0,0.0,0.0,0.0,0.0,0.0,0.0,0.0,0.0,0.0,0.0,0.0,0.0,0.0,0.0,0.0,0.0,0.0,0.0,0.0,0.0,0.0,0.0,0.0,0.0,0.0,0.0,0.0,0.0,0.0,0.0,0.0,0.0,0.0,0.0,0.0,0.0,0.0,0.0,0.0,0.0,0.0,0.0,0.0,0.0,0.0,0.0,0.0,0.0,0.0,0.0,0.0,0.0,0.0,0.0,0.0,0.0,0.0,0.0,0.0,0.0,0.0,0.0,0.0,0.0,0.0,0.0,0.0,0.0,0.0,0.0,0.0,0.0,0.0,0.0,0.0,0.0,0.0,0.0,0.0,0.0,0.0,0.0,0.0,0.0,0.0,0.0,0.0,0.0,0.0,0.0,0.0,0.0,0.0,0.0,0.0,0.0,0.0,0.0,0.0,1.8484,1.8382,1.8275,1.8859,1.8417,1.7042,1.521,1.4852,1.5514,1.4757,0.0,0.0,0.0,0.0,0.0,0.0,0.0,0.0,0.0,0.0,0.0,0.0,0.0,0.0,0.0,0.0,0.0,0.0,0.0,0.0,0.0,0.0,0.0,0.0,0.0,0.0,0.0,0.0,0.0,0.0,0.0,0.0,0.0,0.0,0.0,0.0,0.0,0.0,2.1478,2.2273,2.2417,2.1879,1.9687,0.0,0.0,0.0,0.0,0.0,0.0,0.0,0.0,0.0,0.0,0.0,0.0,0.0,0.0,0.0,0.0,0.0,0.0,0.0,0.0,0.0,0.0,0.0,0.0,0.0,0.0,0.0,0.0,0.0,0.0,0.0,0.0,0.0,0.0,0.0,0.0,0.0,0.0,0.0,0.0,0.0,0.0,0.0,1.3675,1.4705,0.0,0.0,0.0,0.0,0.0,0.0,0.0,0.0,0.0,0.0,0.0,0.0,0.0,1.9449,2.1468,2.1684,2.1846,2.1947,2.1903,2.1482,2.0814,2.0839,2.0713,2.0392,1.8745,0.0,1.7113,1.7051,0.0,0.0,0.0,0.0,0.0,0.0,0.0,0.0,0.0,0.0,0.0,0.0,0.0,0.0,0.0,0.0,0.0,0.0,0.0,0.0,0.0,0.0,0.0,0.0,0.0,0.0,0.0,0.0,0.0,0.0,0.0,0.0,0.0,0.0,0.0,0.0,2.2847,2.4786,2.6148,2.6943,2.7318,2.7242,2.5178,2.2809,2.0233,1.8708,0.0,0.0,0.0,0.0,0.0,0.0,0.0,0.0,0.0,0.0,0.0,0.0,0.0,0.0,0.0,0.0,0.0,0.0,0.0,0.0,0.0,0.0,0.0,0.0,0.0,0.0,0.0,0.0,0.0,0.0,0.0,0.0,0.0,0.0,0.0,0.0,0.0,0.0,0.0,1.4369,1.5647,1.5557,1.5876,1.6142,0.0,0.0,0.0,0.0,0.0,0.0,0.0,0.0,0.0,2.0304,2.0718,2.1804,2.3584,2.4459,2.5074,2.546,2.6158,2.5823,2.4642,2.5028,2.4676,2.3689,2.2995,2.2249,2.1352,1.9566,1.8364,1.7666,0.0,0.0,0.0,0.0,1.48,1.4615,0.0,0.0,0.0,0.0,0.0,0.0,0.0,0.0,0.0,0.0,0.0,0.0,0.0,0.0,0.0,1.8625,0.0,0.0,0.0,0.0,0.0,0.0,0.0,0.0,0.0,0.0,0.0,2.3788,2.655,2.8687,3.0205,3.1236,3.1576,3.1307,3.0043,2.6815,2.2214,2.0781,1.9294,0.0,0.0,0.0,0.0,0.0,0.0,0.0,0.0,0.0,0.0,0.0,0.0,0.0,0.0,0.0,0.0,0.0,0.0,0.0,0.0,0.0,0.0,0.0,0.0,0.0,0.0,0.0,0.0,0.0,0.0,0.0,0.0,0.0,0.0,0.0,0.0,0.0,0.0,1.5398,1.6823,1.6447,1.6783,1.7318,0.0,0.0,0.0,0.0,0.0,0.0,1.9904,2.0529,2.1554,2.3112,2.3514,2.4534,2.6233,2.732,2.8137,2.8724,2.9635,2.9406,2.819,2.8507,2.7841,2.6394,2.6193,2.5668,2.4741,2.2167,2.0164,1.8848,2.0053,1.9117,1.7054,1.7009,1.6769,1.6409,0.0,0.0,0.0,0.0,0.0,0.0,0.0,0.0,0.0,0.0,0.0,0.0,0.0,0.0,2.0388,2.0351,2.0468,1.9804,0.0,0.0,0.0,0.0,0.0,0.0,0.0,0.0,0.0,2.5583,2.8932,3.1077,3.1981,3.3635,3.3975,3.3162,3.3065,3.11,2.7577,2.4295,2.2338,2.1242,0.0,0.0,0.0,0.0,0.0,0.0,0.0,0.0,0.0,0.0,0.0,0.0,0.0,0.0,0.0,0.0,0.0,0.0,0.0,0.0,0.0,0.0,0.0,0.0,0.0,0.0,0.0,0.0,0.0,0.0,0.0,0.0,0.0,0.0,0.0,0.0,0.0,0.0,0.0,1.7335,1.8712,0.0,0.0,0.0,0.0,1.9751,2.0535,2.1706,2.3259,2.3283,2.4986,2.8857,2.8202,2.8929,3.129,3.1452,3.1487,3.1398,3.1389,3.1205,3.0785,3.0001,2.9053,2.8035,2.7264,2.6401,2.5483,2.4776,2.3725,2.2427,2.0482,1.9396,1.8844,1.8653,1.8419,1.8326,0.0,0.0,0.0,0.0,0.0,0.0,0.0,0.0,0.0,0.0,0.0,0.0,0.0,2.164,2.347,2.4597,2.4166,2.3115,2.1401,0.0,0.0,0.0,0.0,0.0,0.0,0.0,2.6673,2.9832,3.217,3.3772,3.4637,3.5806,3.6159,3.5851,3.5851,3.4566,3.2109,2.8084,2.5233,2.3203,2.0656,1.8767,0.0,0.0,0.0,0.0,0.0,0.0,0.0,0.0,0.0,0.0,0.0,0.0,0.0,0.0,0.0,0.0,0.0,0.0,0.0,0.0,0.0,0.0,0.0,0.0,0.0,0.0,0.0,0.0,0.0,0.0,0.0,0.0,0.0,0.0,0.0,0.0,0.0,2.1199,2.1971,0.0,2.3177,2.2725,2.2611,2.318,2.4463,2.5963,2.7551,2.8129,2.9305,3.1266,3.1558,3.2329,3.3618,3.3536,3.3933,3.4878,3.3551,3.2853,3.2696,3.1819,3.0691,2.9343,2.8924,2.8196,2.7322,2.6957,2.5872,2.4315,2.3532,2.2923,2.2482,2.2377,2.213,2.1882,0.0,0.0,0.0,0.0,0.0,0.0,0.0,0.0,0.0,0.0,0.0,1.8867,2.1131,2.4248,2.6503,2.7353,2.6923,2.5444,2.2839,0.0,0.0,0.0,0.0,0.0,0.0,2.6515,2.9831,3.2988,3.4706,3.6154,3.7331,3.8196,3.8434,3.8202,3.8476,3.7656,3.582,3.2614,2.9096,2.5505,2.3241,2.1397,1.978,0.0,0.0,0.0,0.0,0.0,0.0,0.0,0.0,0.0,0.0,0.0,0.0,0.0,0.0,0.0,0.0,0.0,0.0,0.0,0.0,0.0,0.0,0.0,0.0,0.0,0.0,0.0,0.0,0.0,0.0,0.0,0.0,0.0,0.0,1.9812,2.1744,2.4239,2.5032,2.5822,2.699,2.6544,2.6525,2.7396,2.8985,3.0255,3.1009,3.168,3.2371,3.3134,3.3507,3.4003,3.4646,3.4583,3.5155,3.6323,3.469,3.401,3.4124,3.3007,3.1886,3.0792,3.0238,2.9637,2.8962,2.8435,2.7584,2.6591,2.6137,2.5397,2.4618,2.5135,2.5083,2.4738,0.0,0.0,0.0,0.0,0.0,0.0,0.0,0.0,0.0,0.0,1.8984,2.1286,2.3002,2.7019,2.9277,2.8448,2.8293,2.6386,2.21,2.0155,0.0,0.0,0.0,0.0,2.5805,2.9206,3.2213,3.4823,3.6501,3.8183,3.9868,4.0695,4.066,3.9959,4.082,4.0273,3.8633,3.7734,3.3983,2.8392,2.6601,2.527,2.3939,0.0,0.0,0.0,0.0,0.0,0.0,0.0,0.0,0.0,0.0,0.0,0.0,0.0,0.0,0.0,0.0,0.0,0.0,0.0,0.0,0.0,0.0,0.0,0.0,0.0,0.0,0.0,0.0,0.0,0.0,0.0,0.0,0.0,1.9962,2.2993,2.5401,2.627,2.7888,2.9547,3.1176,3.1264,3.1544,3.2392,3.3901,3.4382,3.3451,3.361,3.4012,3.4594,3.4035,3.4045,3.4658,3.4769,3.512,3.57,3.4847,3.4686,3.5112,3.3466,3.2621,3.2361,3.1146,3.0563,3.032,2.914,2.8983,2.936,2.8052,2.6526,2.5212,2.6655,2.7,2.6733,0.0,0.0,0.0,0.0,0.0,0.0,0.0,0.0,0.0,0.0,1.953,2.2417,2.4715,2.7715,2.9702,3.0092,2.7868,2.5375,2.2884,0.0,0.0,0.0,0.0,0.0,3.0258,3.2483,3.4903,3.7518,3.8025,3.8497,3.8971,3.9832,4.0109,3.9956,4.0779,4.0858,4.035,3.9531,3.8203,3.6249,3.1406,2.8163,2.5973,0.0,0.0,0.0,0.0,0.0,0.0,0.0,0.0,0.0,0.0,0.0,0.0,0.0,0.0,0.0,0.0,0.0,0.0,0.0,0.0,0.0,0.0,0.0,0.0,0.0,0.0,0.0,0.0,0.0,0.0,0.0,2.2192,2.2984,2.3533,2.5477,2.7759,3.0236,3.2576,3.4137,3.4496,3.5114,3.5566,3.5705,3.6196,3.6088,3.5141,3.5195,3.5018,3.4626,3.4421,3.498,3.6245,3.5682,3.6322,3.8096,3.613,3.5566,3.6181,3.4556,3.3451,3.2779,3.2031,3.1275,3.0549,2.9808,2.9468,2.942,2.8504,2.8203,2.8283,2.8697,2.8622,2.8331,0.0,0.0,0.0,0.0,0.0,0.0,0.0,0.0,0.0,0.0,2.0271,2.3118,2.4946,2.8073,2.983,2.9278,2.7023,2.4488,2.1675,0.0,0.0,0.0,0.0,2.9558,3.31,3.4899,3.6892,3.9117,3.9117,3.9471,4.0216,4.0728,4.0965,4.0968,4.1832,4.199,4.1639,4.1523,4.1289,4.0625,3.7148,3.3945,3.1011,2.816,2.6438,2.5412,2.4361,2.3812,2.3456,2.2323,0.0,0.0,0.0,0.0,0.0,0.0,0.0,0.0,0.0,0.0,0.0,0.0,0.0,0.0,0.0,0.0,0.0,0.0,0.0,0.0,0.0,0.0,0.0,0.0,2.5943,2.758,2.9035,2.9631,3.0728,3.2959,3.5109,3.6517,3.6818,3.7286,3.7537,3.7466,3.7526,3.7176,3.6228,3.6241,3.6065,3.5486,3.5578,3.5993,3.6826,3.6354,3.6982,3.8569,3.6488,3.5931,3.6637,3.4965,3.3944,3.345,3.3252,3.2777,3.2048,3.1222,3.0881,0.0,0.0,0.0,0.0,0.0,2.9848,2.9606,0.0,0.0,0.0,0.0,0.0,0.0,0.0,0.0,0.0,0.0,0.0,2.3274,2.4167,2.7926,2.9412,2.7061,2.582,2.3553,0.0,0.0,0.0,2.6014,2.9491,3.257,3.5235,3.6808,3.8375,3.9937,3.9937,4.0756,4.224,4.2247,4.2329,4.2446,4.3198,4.324,4.2732,4.3398,4.3359,4.2812,4.2617,4.0546,3.7142,3.32,3.1556,3.1076,2.8583,2.6787,2.5614,2.6003,0.0,0.0,0.0,0.0,0.0,0.0,0.0,0.0,0.0,0.0,0.0,0.0,0.0,0.0,0.0,0.0,0.0,0.0,0.0,0.0,0.0,0.0,0.0,0.0,2.9344,3.1952,3.4999,3.4633,3.4298,3.498,3.6379,3.7607,3.8369,3.8322,3.8239,3.8202,3.8239,3.7815,3.6904,0.0,0.0,0.0,0.0,3.6932,3.6823,3.6938,3.7342,3.8012,3.6488,3.6154,3.6773,3.5206,3.4427,3.4388,3.4692,3.4611,3.4227,3.3135,3.2818,3.2832,3.1379,3.0386,2.9868,3.0558,3.0737,3.0628,0.0,0.0,0.0,0.0,0.0,0.0,0.0,0.0,0.0,1.7768,2.0423,2.2455,2.324,2.5973,2.7264,2.6052,2.3862,2.1906,0.0,0.0,2.6092,2.9724,3.246,3.5425,3.8723,3.9154,3.9819,4.0835,4.0835,4.103,4.1343,4.1344,4.1735,4.2398,4.2569,4.3354,4.4448,4.3945,4.4414,4.543,4.4023,4.1836,3.9218,3.7695,3.6211,3.4765,3.2851,3.2382,3.2302,2.9724,2.8982,2.8785,2.6676,0.0,0.0,0.0,0.0,0.0,0.0,0.0,0.0,0.0,0.0,0.0,0.0,0.0,0.0,0.0,0.0,0.0,0.0,0.0,0.0,3.1259,3.3133,3.4842,3.6967,3.8066,3.8428,3.7883,3.8536,3.9089,3.9245,3.9158,3.9028,3.8914,3.9008,3.8642,3.7721,3.768,3.7395,3.6711,3.6719,3.7054,3.7677,3.7697,3.8106,3.8859,0.0,0.0,3.7532,3.6569,3.6085,3.6004,3.5725,3.5552,3.5445,3.4899,3.4145,3.3255,3.205,3.1489,3.1386,3.1524,3.1494,3.1383,0.0,0.0,0.0,0.0,0.0,0.0,0.0,0.0,0.0,0.0,1.9256,2.0741,2.1093,2.3085,2.3863,2.2566,2.0886,0.0,0.0,2.5059,2.8747,3.2612,3.5193,3.757,3.976,3.9808,4.0437,4.1766,4.1302,4.1538,4.2397,4.1967,4.2201,4.306,4.3505,4.4173,4.4993,4.4999,4.5508,4.6211,4.5351,4.4258,4.2969,4.1641,4.0078,3.8437,3.7109,3.6094,3.5039,3.289,3.1875,3.1249,2.9492,2.7499,2.5389,0.0,0.0,0.0,0.0,0.0,0.0,0.0,0.0,0.0,0.0,0.0,0.0,0.0,0.0,2.3716,2.6267,0.0,3.1069,3.4969,3.6507,3.7782,3.9498,4.0345,4.0267,3.8778,3.9531,3.9977,3.9545,3.9318,3.9165,3.9126,3.9151,3.9016,3.8532,3.8488,3.8302,3.79,3.79,3.8086,3.8488,3.8488,3.8711,3.9082,3.8265,3.7873,3.7833,3.6976,3.6545,3.6494,3.644,3.6394,3.631,3.597,3.5128,3.4057,3.3463,3.2868,3.2377,3.2743,3.2759,3.2642,0.0,0.0,0.0,0.0,0.0,0.0,0.0,0.0,0.0,0.0,1.8086,1.9022,1.8938,2.0332,2.0597,0.0,0.0,0.0,0.0,2.6925,3.0894,3.5032,3.7653,3.9404,4.0296,4.046,4.1249,4.2663,4.1961,4.2315,4.3683,4.3134,4.3371,4.4235,4.495,4.5423,4.5776,4.6328,4.6562,4.6562,4.6562,4.6445,4.6133,4.4726,4.3164,4.1523,4.0156,3.7969,3.5625,3.4726,3.3437,3.2148,3.1758,3.0937,2.9531,2.6523,2.5664,0.0,0.0,0.0,0.0,0.0,0.0,0.0,0.0,2.2553,2.3447,2.4449,2.5455,2.7155,3.0445,3.2138,3.4364,3.8431,3.9541,4.0384,4.1761,4.1967,4.1297,3.9461,4.0229,4.0539,3.9668,3.9351,3.9232,3.9178,3.932,3.9358,3.9209,3.9303,3.9268,3.912,3.9082,3.9082,3.9082,3.9082,3.9082,3.9082,3.8437,3.8126,3.8069,3.7364,3.6985,3.6938,3.7223,3.7305,3.7205,3.6865,3.6043,3.5019,3.505,3.4365,3.3348,3.3741,3.3822,3.3731,0.0,0.0,0.0,0.0,0.0,0.0,0.0,0.0,0.0,0.0,0.0,0.0,0.0,0.0,0.0,0.0,0.0,0.0,2.4174,2.8903,3.3267,3.6833,3.9453,4.1209,4.2094,4.2889,4.3357,4.3538,4.3475,4.3504,4.371,4.4373,4.5163,4.5999,4.6123,4.7026,4.8436,4.7734,4.7461,4.7461,4.7461,4.6992,4.6289,4.6094,4.4922,4.3008,3.9883,3.707,3.4726,3.3828,3.2969,3.2422,3.3828,3.3203,3.1679,3.0507,2.8046,2.5115,2.2461,2.0654,1.9629,2.0235,2.1505,2.3405,0.0,2.7817,2.8898,3.0479,3.2106,3.4082,3.6707,3.7344,3.8598,4.2065,4.205,4.1925,4.2834,4.2952,4.2565,4.157,4.1323,4.0832,3.9851,3.9742,3.9635,3.9483,4.0133,4.0202,3.9502,3.9971,3.9907,3.912,3.9082,3.9082,3.9082,3.9082,3.9082,3.9082,3.8931,3.8868,3.8766,3.8619,3.8538,3.8447,3.8475,3.8525,3.8457,3.8084,3.7233,3.6221,3.6431,3.5769,3.4682,3.4123,3.3882,3.3832,0.0,0.0,0.0,0.0,0.0,0.0,0.0,0.0,0.0,0.0,0.0,0.0,0.0,0.0,0.0,0.0,0.0,0.0,2.4998,3.0005,3.4634,3.8594,4.0742,4.2266,4.3157,4.3491,4.3913,4.4394,4.3939,4.4204,4.5192,4.5073,4.5475,4.6313,4.6319,4.6988,4.8123,4.7734,4.7617,4.7617,4.7617,4.707,4.6172,4.5156,4.3398,4.1094,3.8164,3.5117,0.0,0.0,3.0195,3.0234,3.1953,3.1641,3.043,2.9023,2.7226,2.5352,2.3735,2.3094,2.3276,2.5068,2.6773,2.8531,3.0459,3.1597,3.2535,3.3713,3.4966,3.6485,3.8505,3.8917,3.9826,4.2664,4.2441,4.2179,4.3002,4.2674,4.1854,4.0508,4.0219,4.0093,4.0052,3.9459,3.9261,3.9664,3.9888,3.984,3.9508,3.9581,3.9491,3.912,3.9082,3.9082,3.9082,3.9082,3.9082,3.9082,3.9036,3.8979,3.8943,3.884,3.8637,3.8368,3.8604,3.8572,3.836,3.8417,3.7904,3.7032,3.7132,3.6551,3.5633,3.5166,3.5011,3.4989,0.0,0.0,0.0,0.0,0.0,0.0,0.0,0.0,0.0,0.0,0.0,0.0,0.0,0.0,0.0,0.0,0.0,0.0,0.0,2.9582,3.4245,3.8553,4.1092,4.2812,4.3671,4.4169,4.4668,4.5254,4.4685,4.5025,4.624,4.5888,4.6021,4.6667,4.6671,4.7144,4.7929,4.7695,4.7617,4.7578,4.7344,4.6562,4.5351,4.3398,4.0742,3.7851,3.5976,3.293,0.0,0.0,2.7422,2.7539,2.9258,2.957,2.8945,2.7422,2.5898,2.4608,2.4362,2.4907,2.6221,2.9197,3.1328,3.305,3.4162,3.5263,3.6205,3.68,3.744,3.8302,3.9507,3.9532,4.017,4.2691,4.2603,4.2506,4.332,4.2504,4.1273,3.9781,3.9011,3.8923,3.9874,3.9266,3.9163,4.0073,4.0019,3.9995,4.0146,3.9917,3.9788,3.9788,3.9565,3.9447,3.9382,3.9196,3.9078,3.9057,3.8971,3.8935,3.8928,3.8848,3.8583,3.8295,3.858,3.8658,3.8586,3.8558,3.8218,3.7735,3.7392,3.6761,3.6075,3.5811,3.579,3.5801,0.0,0.0,0.0,0.0,0.0,0.0,0.0,0.0,0.0,0.0,0.0,0.0,0.0,0.0,0.0,0.0,0.0,0.0,0.0,2.7235,3.1548,3.5937,4.0155,4.2811,4.367,4.5271,4.6125,4.6164,4.6144,4.6161,4.6227,4.7045,4.7462,4.7571,4.757,4.8043,4.8828,4.7969,4.7617,4.7539,4.668,4.5312,4.3516,4.0976,3.7344,3.3594,3.3516,0.0,0.0,0.0,2.5234,2.4805,2.6562,2.7695,2.8164,2.7266,2.4648,2.2342,2.3861,2.4898,2.6508,3.0677,3.3553,3.583,3.7569,3.9227,4.0423,4.0423,4.0472,4.0518,4.0553,3.9865,4.0145,4.2688,4.3075,4.3355,4.4162,4.285,4.1466,4.0554,3.8277,3.7465,3.9158,3.9308,3.9768,4.0956,4.1069,4.1294,4.1786,4.1619,4.1534,4.1534,4.0761,4.031,4.0185,3.94,3.8964,3.8899,3.8826,3.8796,3.8788,3.8735,3.8718,3.8666,3.8681,3.9122,3.9758,3.8586,3.8276,3.836,3.7121,3.6305,3.5812,3.5656,3.5678,3.5801,0.0,0.0,0.0,0.0,0.0,0.0,0.0,0.0,0.0,0.0,0.0,0.0,0.0,0.0,0.0,0.0,1.6941,0.0,0.0,2.5756,2.9515,3.3233,3.702,3.9406,4.0232,4.2498,4.366,4.3688,4.4198,4.4494,4.4548,4.4821,4.5002,4.4993,4.4992,4.5817,4.7109,4.625,4.6211,4.6562,4.4531,4.2695,4.0781,3.6992,3.3632,3.0586,0.0,0.0,0.0,0.0,0.0,2.2187,2.3867,2.3867,2.3242,2.3515,2.3593,2.4288,2.7592,2.991,3.2262,3.5881,3.8243,4.0,4.1158,4.1451,4.1273,4.0669,3.8338,3.6235,3.5592,3.5268,3.5874,3.8449,4.0746,4.2543,4.3393,4.3008,4.17,3.9165,3.8584,3.843,3.8434,3.8434,3.9029,4.042,4.0864,4.1117,4.1116,4.1439,4.1586,4.1534,4.1267,4.1074,4.0946,4.0643,4.0524,4.0502,4.0432,4.0076,3.9543,4.0055,3.9709,3.8718,3.9276,3.935,3.9077,3.8582,3.8288,3.8106,3.7288,3.6681,3.6156,3.5855,3.6051,3.6457,0.0,0.0,0.0,0.0,0.0,0.0,0.0,0.0,0.0,0.0,0.0,0.0,0.0,0.0,0.0,0.0,0.0,1.8048,0.0,0.0,2.6547,2.9675,3.3149,3.538,3.6209,3.8164,3.9173,3.9195,4.0,4.0615,4.0963,4.1221,4.1708,4.2304,4.2266,4.3084,4.4366,4.3511,4.3123,4.285,4.0586,3.8476,3.6249,3.2186,2.9452,0.0,0.0,0.0,0.0,0.0,2.0586,2.0898,2.2578,2.2343,2.1796,2.3278,2.4488,2.6432,3.153,3.454,3.7073,4.0735,4.2175,4.2931,4.3778,4.2875,4.1424,3.99,3.6489,3.3346,3.182,3.1317,3.2045,3.4888,3.7696,4.0158,4.1931,4.2166,4.147,3.9585,3.9588,3.9627,3.9392,3.9354,3.9789,4.0857,4.1309,4.1642,4.187,4.195,4.2098,4.2341,4.2043,4.1804,4.1673,4.1414,4.1251,4.122,4.1172,4.0719,3.9908,4.0451,3.9966,3.8718,3.9239,3.935,3.9077,3.8574,3.852,3.8671,3.7461,3.7086,3.7107,3.6432,3.6638,3.7156,0.0,0.0,0.0,0.0,0.0,0.0,0.0,0.0,0.0,0.0,0.0,0.0,0.0,0.0,0.0,0.0,0.0,0.0,0.0,0.0,0.0,2.5348,2.8705,3.0933,3.1757,3.2694,3.3203,3.3192,3.4061,3.4917,3.5743,3.6522,3.7771,3.9332,3.9272,3.9715,4.0482,3.9697,3.8421,3.6785,3.5078,3.2889,3.031,2.6834,0.0,0.0,0.0,0.0,0.0,2.035,2.0701,2.1168,2.277,2.3356,2.3941,2.6556,2.7415,2.897,3.5632,3.8634,4.0868,4.4915,4.5198,4.4641,4.5364,4.3547,4.0927,3.8354,3.4968,3.1775,2.9319,2.828,2.8931,3.2352,3.4503,3.6927,4.0285,4.0785,4.1089,4.185,4.1281,4.1127,4.185,4.1962,4.2109,4.243,0.0,4.2812,4.3892,4.3203,4.3111,4.3844,4.3016,4.2521,4.2456,4.1711,4.1295,4.1213,4.1213,4.081,4.0018,4.0055,3.9606,3.8828,3.8857,3.9305,3.9884,3.8659,3.8993,4.0011,3.7703,3.7561,3.8545,3.7422,3.742,3.789,0.0,0.0,0.0,0.0,0.0,0.0,0.0,0.0,0.0,0.0,0.0,0.0,0.0,0.0,0.0,0.0,0.0,0.0,0.0,0.0,0.0,0.0,0.0,0.0,0.0,0.0,0.0,3.0473,3.1376,3.1923,3.2115,3.2325,3.2687,3.3162,3.3164,3.3593,3.4334,3.3515,3.3242,3.3203,0.0,2.9137,2.7612,0.0,0.0,0.0,0.0,0.0,2.1166,2.0739,2.2301,2.4605,2.5658,2.6908,2.8469,3.1004,3.315,3.5718,4.058,4.3589,4.5756,4.7265,4.7023,4.6071,4.4893,4.2205,3.905,3.5818,3.0929,2.6849,2.5628,2.6238,2.8236,3.2237,3.6472,4.0396,4.3825,4.4855,4.4855,4.3778,4.4624,4.4855,4.3778,4.4209,4.4509,4.438,4.3611,4.3171,4.3315,4.3465,4.3574,4.3656,4.3438,4.3286,4.321,4.3026,4.2899,4.2873,4.2873,4.247,4.1699,4.2294,4.1809,4.0508,4.1066,4.1111,4.072,3.9665,3.9846,4.0621,3.9022,3.894,3.9589,3.8623,3.8676,3.9145,0.0,0.0,0.0,0.0,0.0,0.0,0.0,0.0,0.0,0.0,0.0,0.0,0.0,0.0,0.0,0.0,0.0,0.0,0.0,0.0,0.0,0.0,0.0,0.0,0.0,0.0,0.0,0.0,0.0,0.0,2.7438,2.7768,2.8398,2.914,2.91,2.9565,3.0305,2.949,0.0,0.0,0.0,0.0,0.0,0.0,0.0,0.0,0.0,1.9991,2.245,2.2765,2.5342,2.874,2.9988,3.1315,3.3071,3.6387,3.8104,4.0046,4.4978,4.7351,4.8686,4.9727,4.8501,4.6452,4.4265,4.0281,3.5895,3.1701,2.7005,2.3387,2.2583,2.4122,2.6777,3.0624,3.5199,3.9623,4.3393,4.4948,4.5776,4.5901,4.68,4.7012,4.6013,4.6335,4.6462,4.6188,4.4756,4.3848,4.3612,4.3677,4.3676,4.3617,4.3583,4.3549,4.3506,4.3506,4.3506,4.3506,4.3506,4.3065,4.2323,4.2763,4.2286,4.1132,0.0,4.1494,4.105,4.0442,4.0718,4.1384,4.0103,4.0237,4.0991,3.9814,3.9885,4.0491,0.0,0.0,0.0,0.0,0.0,0.0,0.0,0.0,0.0,0.0,0.0,0.0,0.0,0.0,0.0,0.0,0.0,0.0,0.0,0.0,0.0,0.0,0.0,0.0,0.0,0.0,0.0,0.0,0.0,0.0,0.0,0.0,0.0,0.0,0.0,0.0,0.0,0.0,0.0,0.0,0.0,0.0,0.0,0.0,0.0,0.0,1.7606,1.9636,2.3423,2.5648,2.9162,3.2949,3.4784,3.6227,3.7944,4.1771,4.263,4.344,4.8677,5.0121,5.0488,5.1753,4.9401,4.604,4.3363,3.8049,3.2317,2.7426,2.3695,2.1233,2.0887,2.2776,2.5628,2.9355,3.3272,3.7385,4.1842,4.3683,4.55,4.8039,4.8335,4.8342,4.8342,4.8217,4.8002,4.7673,4.5931,4.4746,4.4341,4.396,4.371,4.36,4.354,4.3506,4.3506,4.3506,4.3506,4.3506,4.3506,4.3139,4.247,4.247,4.2094,4.1434,4.1417,4.1417,4.1389,4.1159,4.1601,4.2243,4.1115,4.1459,4.2469,4.1025,4.1056,4.1666,0.0,0.0,0.0,0.0,0.0,0.0,0.0,0.0,0.0,0.0,1.6295,1.54,0.0,0.0,0.0,0.0,0.0,0.0,0.0,0.0,0.0,0.0,0.0,0.0,0.0,2.0524,2.052,2.0521,2.0642,0.0,0.0,0.0,0.0,0.0,0.0,0.0,0.0,0.0,0.0,0.0,0.0,0.0,0.0,0.0,0.0,0.0,1.8972,2.069,2.3814,2.8381,3.2323,3.5759,3.8179,4.099,4.3722,4.5207,4.7002,4.8903,5.0548,5.1499,5.2035,5.2097,4.903,4.5124,4.1705,3.5815,3.0,2.6308,2.2846,2.1117,2.3086,2.493,2.7967,3.3503,3.6196,3.9531,4.5143,4.6167,4.7257,4.9754,5.0084,5.0078,5.0078,4.9346,4.8793,4.8498,4.726,4.6082,4.5064,4.4719,4.4212,4.3523,4.3515,4.3506,4.3506,4.3506,4.3506,4.3506,4.3506,4.3433,4.3286,4.3286,4.3212,4.3094,4.3016,0.0,4.302,4.2294,4.2486,4.3178,4.2311,4.2481,4.3142,4.2397,4.2185,4.2154,0.0,0.0,0.0,0.0,0.0,0.0,0.0,1.7104,1.7533,1.7961,1.687,1.6092,1.6092,1.5671,1.5403,0.0,0.0,0.0,0.0,0.0,0.0,0.0,0.0,0.0,0.0,2.0515,2.0513,2.0517,0.0,2.0517,2.0605,2.0563,2.0566,2.0613,2.0613,0.0,0.0,0.0,0.0,0.0,0.0,0.0,0.0,0.0,0.0,0.0,0.0,2.0455,2.4162,2.6603,3.089,3.5928,3.9892,4.2903,4.5084,4.5408,4.7372,4.9679,5.0808,5.1395,5.1792,5.2054,4.8531,4.3779,3.8991,3.3314,2.7887,2.3577,2.1071,2.0261,2.235,2.5211,2.8463,3.2209,3.4973,3.8416,4.3456,4.4499,4.5966,4.9384,5.0123,5.0407,5.0407,4.9996,4.9515,4.9053,4.8475,4.7454,4.59,4.5102,4.4516,4.4158,4.3726,4.3506,4.3506,4.3506,4.3506,4.3506,4.3506,4.3506,4.3506,4.3506,4.3506,4.3506,4.3463,4.3437,4.3428,4.3018,4.3028,4.3321,4.291,4.3028,4.335,4.2799,4.2693,4.2674,0.0,0.0,0.0,0.0,0.0,0.0,0.0,1.7728,1.8313,1.8507,1.7768,1.7222,1.7222,1.6287,1.5741,0.0,0.0,0.0,0.0,0.0,0.0,0.0,0.0,0.0,0.0,0.0,0.0,2.0514,2.0508,0.0,0.0,0.0,0.0,0.0,2.0613,2.0613,2.0613,0.0,0.0,0.0,0.0,2.0613,0.0,0.0,0.0,0.0,0.0,1.9785,2.3682,2.434,2.8379,3.3891,3.8426,4.1944,4.4351,4.4273,4.6515,4.9331,5.0882,5.1274,5.1328,5.1722,4.7742,4.2316,3.6769,3.1272,2.6043,2.1502,1.9721,1.9638,2.1645,2.4919,2.7933,2.9988,3.3011,3.6527,4.0573,4.2253,4.4513,4.8362,4.97,5.0283,5.0283,5.0283,5.0057,4.9461,4.9287,4.8405,4.6647,4.5365,4.47,4.47,4.391,4.3506,4.3506,4.3506,4.3506,4.3506,4.3506,4.3506,4.3506,4.3506,4.3497,4.348,4.3497,4.3445,4.3368,4.3412,4.3322,4.3214,4.326,4.3295,4.3295,4.2948,4.2957,4.3077,0.0,0.0,0.0,0.0,0.0,0.0,0.0,1.8587,1.9369,2.0187,1.9525,1.8979,1.8979,1.7535,1.6909,0.0,0.0,0.0,0.0,0.0,0.0,0.0,0.0,0.0,0.0,0.0,0.0,2.0501,2.05,0.0,0.0,0.0,0.0,0.0,0.0,2.0613,2.0613,2.0613,0.0,0.0,0.0,0.0,0.0,0.0,0.0,0.0,0.0,1.9092,2.1304,2.4376,2.681,2.8953,3.1044,3.6553,4.2304,4.2482,4.5909,5.0003,5.1866,5.2176,5.1827,5.1111,4.6425,4.0889,3.65,3.0346,2.4769,2.1964,2.0113,1.9986,2.3196,2.473,2.6568,2.9777,3.2492,3.5427,3.8874,4.2034,4.4952,4.7614,4.9328,5.0283,5.0283,5.0283,5.0163,4.979,4.9185,4.8323,4.7114,4.5562,4.47,4.47,4.391,4.3506,4.3506,4.3506,4.3506,4.3506,4.3506,4.3506,4.3506,4.3506,4.3463,4.3421,4.3471,4.3402,0.0,4.3419,4.3384,4.3233,4.341,4.3375,4.3224,4.3178,4.3133,4.3049,0.0,0.0,0.0,0.0,0.0,0.0,1.7961,1.9133,2.0109,2.046,1.9759,1.9409,1.9915,1.8901,1.8159,1.8,0.0,0.0,0.0,0.0,0.0,0.0,0.0,0.0,0.0,0.0,2.0499,2.0499,2.0499,0.0,0.0,0.0,0.0,0.0,0.0,2.0613,2.0613,2.0613,0.0,0.0,0.0,0.0,0.0,0.0,0.0,0.0,0.0,0.0,2.1333,2.2065,2.3438,2.4799,2.4412,2.7788,3.2601,3.6341,4.1092,4.5725,4.8395,5.0217,5.115,5.031,4.6279,4.1042,3.5273,3.0272,2.5697,2.1617,2.0644,2.1206,2.3576,2.5124,2.6635,2.8424,2.9596,3.1607,3.5494,3.7589,4.0635,4.5698,4.7755,4.9207,5.0206,5.0283,4.9947,4.9134,4.8907,4.8181,4.6757,4.636,4.5911,4.5443,4.4635,4.4232,4.4232,4.3726,4.3506,4.3506,4.3506,4.3506,4.3506,4.3506,4.3454,4.3403,4.3438,4.3341,0.0,4.3269,4.3178,4.3059,4.3196,4.3196,4.316,4.316,4.3132,4.3077,0.0,0.0,0.0,0.0,0.0,1.8078,1.8313,1.9562,2.0499,2.0499,1.9953,1.9837,2.0421,1.9953,1.9368,1.8781,1.8742,0.0,0.0,0.0,0.0,0.0,0.0,0.0,0.0,0.0,2.0499,2.0499,2.0501,2.0506,0.0,0.0,2.0564,2.0611,0.0,0.0,0.0,0.0,0.0,0.0,0.0,0.0,0.0,0.0,0.0,0.0,0.0,0.0,0.0,0.0,0.0,2.1759,2.0206,2.1552,2.4815,3.0623,3.6218,4.1263,4.4863,4.7708,4.9489,4.8662,4.5001,4.0008,3.393,2.9547,2.5623,2.1502,2.0909,2.1696,2.3643,2.5174,2.6365,2.7194,2.8131,2.9841,3.2825,3.5037,3.8209,4.3214,4.5736,4.7717,4.9398,5.0015,4.9947,4.9014,4.8963,4.8323,4.683,4.7214,4.6865,4.559,4.4745,4.4342,4.4342,4.38,4.3506,4.3506,4.3506,4.3506,4.3506,4.348,4.3428,4.3403,4.3368,4.326,0.0,4.3169,4.3059,4.291,4.3059,4.3104,4.3067,4.3086,4.3077,4.3058,0.0,0.0,0.0,0.0,0.0,0.0,1.9057,1.9915,2.0499,2.0499,2.0499,2.0499,2.0499,2.0499,2.0499,2.046,2.046,0.0,0.0,0.0,0.0,0.0,0.0,0.0,0.0,0.0,2.0499,2.0499,2.0504,2.0506,2.0506,2.0561,2.0605,2.0606,0.0,0.0,0.0,0.0,0.0,0.0,0.0,0.0,0.0,0.0,0.0,0.0,0.0,0.0,0.0,0.0,0.0,0.0,0.0,1.9486,2.1182,2.6442,3.2087,3.7617,4.2114,4.5033,4.6654,4.5912,4.1889,3.693,3.2699,2.7777,2.3627,2.185,2.0798,2.1007,2.3544,2.4659,2.5473,2.6294,2.9188,3.1404,3.1522,3.584,3.9312,4.0229,4.3291,4.5965,4.7679,4.9322,5.0175,4.983,4.949,0.0,4.7669,4.8043,4.7195,4.4773,4.3938,4.3506,4.3506,4.3506,4.3506,4.3506,4.3506,4.3506,4.3506,4.341,4.3403,4.3394,4.326,4.3151,0.0,4.3169,4.3059,4.291,4.3133,4.3096,4.291,4.3067,4.3003,4.2892,0.0,0.0,0.0,0.0,0.0,0.0,0.0,1.9817,2.0364,2.0364,2.0364,2.0364,2.0364,2.0364,2.0364,2.0364,2.0468,0.0,0.0,0.0,0.0,0.0,0.0,0.0,0.0,0.0,2.0502,2.0499,2.0501,2.0503,2.0506,2.0511,2.0558,2.0605,2.0607,2.061,0.0,0.0,0.0,0.0,0.0,0.0,0.0,0.0,0.0,0.0,0.0,0.0,0.0,0.0,0.0,0.0,0.0,0.0,0.0,2.2656,2.7248,3.2338,3.6661,3.9662,4.1139,3.9165,3.6989,3.4068,2.9232,2.6002,2.354,2.1841,2.1721,2.2513,2.4468,2.5529,2.6359,2.717,2.8195,2.9494,3.1255,3.4346,3.7784,4.1566,4.5965,4.8838,4.915,4.9632,4.9589,4.8707,4.8838,4.8331,4.6867,4.7214,4.6865,4.5553,4.5259,4.4892,4.4342,4.3763,4.3506,4.3506,4.3506,4.38,4.4296,4.3728,4.3758,4.419,4.3506,4.3151,4.3095,4.3031,4.2948,4.2901,4.2957,4.2948,4.2901,4.2965,4.2956,4.2892,0.0,0.0,0.0,0.0,0.0,0.0,0.0,1.9951,2.0302,2.0302,2.0302,2.0302,2.0302,2.0302,2.0302,2.0302,2.0376,0.0,0.0,0.0,0.0,0.0,0.0,0.0,0.0,2.0435,2.0638,2.0946,2.0964,2.0973,2.0976,2.098,2.0831,2.0605,2.0608,2.061,0.0,0.0,0.0,0.0,0.0,0.0,2.0435,0.0,0.0,0.0,0.0,0.0,0.0,0.0,0.0,0.0,0.0,0.0,0.0,0.0,2.3875,2.7493,3.174,3.4568,3.5902,3.4329,3.284,3.0813,2.7283,2.494,2.3319,2.2583,2.2575,2.3217,2.4878,2.5635,2.6388,2.7514,2.8236,2.9306,3.1213,3.4155,3.7903,4.2674,4.6877,4.9222,4.8876,4.9424,4.9403,4.8447,4.8629,4.8292,4.7172,4.739,4.7195,4.6388,4.5764,4.5076,4.4268,4.3763,4.3506,4.3506,4.3506,4.3763,4.4232,4.3692,4.3895,4.4547,4.3579,4.3305,0.0,4.3074,4.2892,4.2892,4.2892,4.2892,4.2892,4.2892,4.2892,4.2892,0.0,0.0,0.0,0.0,0.0,0.0,0.0,2.0287,2.0287,2.0287,2.0287,2.0287,2.0287,2.0287,2.0287,2.0287,0.0,0.0,0.0,0.0,0.0,0.0,0.0,0.0,0.0,2.0372,2.0792,2.1613,2.1739,2.1797,2.1797,2.1844,2.1458,2.068,2.0685,2.0648,0.0,0.0,0.0,0.0,0.0,0.0,0.0,0.0,0.0,0.0,0.0,0.0,0.0,0.0,0.0,0.0,0.0,0.0,0.0,0.0,0.0,0.0,0.0,2.9729,3.1022,3.0831,2.913,2.7275,2.6272,2.4196,0.0,2.3725,2.325,2.3235,2.496,2.5285,2.5838,2.7507,2.9192,3.0605,3.1442,3.5381,3.9623,4.3629,4.6364,4.7782,4.739,4.8795,4.9453,4.8816,4.8764,4.8613,4.8325,4.8296,4.7929,4.7113,4.5581,4.4415,4.3579,4.3579,4.3543,4.3506,4.3506,4.3543,4.3579,4.3456,4.3851,0.0,4.357,4.3569,0.0,4.3284,4.291,4.2901,4.2901,4.2901,4.2892,4.2892,4.2892,4.2892,0.0,0.0,0.0,0.0,0.0,0.0,0.0,0.0,0.0,0.0,2.0159,2.0159,2.0159,2.0159,2.0159,0.0,0.0,0.0,0.0,0.0,0.0,0.0,0.0,0.0,0.0,2.0399,2.0539,2.0799,2.1471,2.1788,2.1826,2.2426,2.2304,2.1536,2.1474,2.1081,0.0,0.0,0.0,0.0,0.0,0.0,0.0,0.0,0.0,0.0,1.9469,1.8754,0.0,0.0,0.0,0.0,0.0,0.0,0.0,0.0,2.1521,2.2016,2.3654,0.0,2.62,2.4249,2.4288,2.4249,0.0,2.1149,2.1146,2.2638,2.2788,2.3356,2.5691,2.6106,2.6673,2.8344,3.0025,3.1637,3.3169,3.8663,4.3133,4.4781,4.755,4.8949,4.7986,4.8607,4.8876,4.8439,4.8402,4.8401,4.8306,4.8296,4.7929,4.7113,4.6131,4.5223,4.4443,4.4415,4.4121,4.3506,4.3506,4.3836,4.4406,4.3774,4.3912,4.4627,4.3706,4.3442,4.3588,4.326,4.3096,4.3067,4.3067,4.2994,4.2892,4.2892,4.2892,4.2892,0.0,0.0,0.0,0.0,0.0,0.0,0.0,0.0,0.0,0.0,0.0,2.0093,2.0093,2.0093,0.0,0.0,0.0,0.0,0.0,0.0,0.0,0.0,0.0,2.0271,2.0271,2.0307,2.0727,2.1568,2.2061,2.25,2.2851,2.329,2.2864,2.1684,2.1284,2.0803,0.0,0.0,0.0,0.0,2.0264,0.0,0.0,0.0,0.0,0.0,1.9228,1.9099,0.0,1.8996,1.9111,1.9417,0.0,0.0,0.0,0.0,2.1939,2.2546,2.2581,2.3007,2.3127,2.1751,2.209,2.2393,2.1017,2.0977,2.1509,2.2429,2.2925,2.3728,2.5529,2.5835,2.6787,2.9605,3.1348,3.365,3.7291,4.1388,4.4537,4.6033,4.8023,4.9018,4.8498,4.8658,4.8649,4.8335,4.8296,4.8296,4.8296,4.8296,4.8113,4.7672,4.6865,4.5874,4.47,4.4333,4.3938,4.3506,4.3506,4.3726,4.4121,4.369,4.392,4.4592,4.3697,4.3497,4.378,4.3269,4.305,4.3003,4.3003,4.2975,4.2892,4.2892,4.2892,4.2892,0.0,0.0,0.0,0.0,0.0,0.0,0.0,0.0,0.0,0.0,0.0,0.0,0.0,0.0,0.0,0.0,0.0,0.0,0.0,0.0,0.0,0.0,0.0,2.022,2.031,2.0231,2.0974,2.2617,2.2948,2.329,2.3725,2.4254,2.3524,2.1727,2.0941,2.0457,0.0,0.0,0.0,0.0,2.0207,0.0,0.0,0.0,0.0,0.0,0.0,0.0,0.0,1.9226,1.9723,2.0907,2.0134,0.0,0.0,0.0,0.0,0.0,2.2887,2.2317,2.171,2.1445,2.1598,2.1672,2.129,2.1743,2.2276,2.2393,2.3193,2.4222,2.5379,2.5915,2.744,3.1366,3.3527,3.6545,4.1745,4.364,4.5114,4.6827,4.7971,4.8649,4.8636,4.8672,4.8623,4.8325,4.8296,4.8296,4.8296,4.8186,4.8113,4.8113,4.7232,4.6085,4.47,4.4011,4.369,4.369,4.3543,4.3497,4.3489,4.3489,4.384,4.4373,0.0,0.0,4.4125,4.3313,4.2967,4.2939,4.2939,4.292,4.2892,4.2892,4.2892,4.2892,0.0,0.0,0.0,0.0,0.0,0.0,0.0,0.0,0.0,0.0,0.0,0.0,0.0,0.0,0.0,0.0,0.0,0.0,0.0,0.0,0.0,0.0,2.0107,2.0492,2.1289,2.0569,2.0725,2.1795,2.3232,2.3246,2.2065,2.4894,2.4913,2.2519,2.1694,2.0931,2.0233,0.0,0.0,0.0,2.0188,0.0,0.0,0.0,0.0,0.0,0.0,0.0,0.0,1.8126,1.8461,1.9262,1.9145,0.0,0.0,0.0,0.0,0.0,2.3152,2.361,2.3193,2.1748,2.2472,2.2961,2.0783,2.0399,2.0707,2.1443,2.2813,2.4604,2.6899,2.9077,3.1446,3.4155,3.7796,4.0985,4.3039,4.5331,4.6549,4.5942,4.7593,4.8509,4.7862,4.8135,4.8363,4.8306,4.8296,4.8296,4.8296,4.7636,4.7259,4.7259,4.5828,4.4957,4.47,4.459,4.4516,4.4516,4.3828,4.3463,4.3421,4.3421,4.3485,4.3586,0.0,4.3457,4.3629,4.3465,4.3322,4.3169,4.3169,4.3032,4.2892,4.2892,4.2892,4.2892,0.0,0.0,0.0,0.0,0.0,0.0,0.0,0.0,0.0,0.0,0.0,0.0,0.0,0.0,0.0,0.0,0.0,0.0,0.0,0.0,0.0,2.0093,2.0145,2.0323,2.0736,2.1286,2.1994,2.2824,2.4514,2.4942,2.4219,2.4394,2.3599,2.1948,2.1173,2.0572,2.019,2.019,0.0,0.0,0.0,0.0,0.0,0.0,0.0,0.0,0.0,0.0,0.0,0.0,1.8459,1.9561,1.9561,0.0,0.0,0.0,0.0,0.0,2.3725,2.4565,2.5065,2.4306,2.4686,2.4721,2.2614,2.2846,2.3613,2.4039,2.4724,2.602,2.858,3.0376,3.3078,3.798,4.1677,4.4214,4.4941,4.6567,4.7424,4.6767,4.7537,4.8118,4.7987,4.818,4.8296,4.8296,4.7893,4.7636,4.7636,4.7296,4.6892,4.6461,4.5727,4.5369,4.5369,4.4488,4.4048,4.4048,4.369,4.3489,4.3445,4.3445,4.3419,4.3403,0.0,4.3368,4.3269,4.3269,4.3187,4.3022,4.3022,4.2967,4.2892,4.2892,4.2892,4.2892,0.0,0.0,0.0,0.0,0.0,0.0,0.0,0.0,0.0,0.0,0.0,0.0,0.0,0.0,0.0,0.0,0.0,0.0,0.0,0.0,2.0164,2.0143,2.0168,2.0359,2.0669,2.199,2.3061,2.3916,2.5562,2.6408,2.6376,2.3878,2.2357,2.167,2.0857,2.0374,2.0182,2.0214,2.0212,0.0,0.0,0.0,0.0,0.0,0.0,0.0,0.0,0.0,0.0,0.0,0.0,0.0,0.0,0.0,0.0,2.2581,2.3542,2.4539,2.4263,2.5144,2.6176,2.6367,2.6405,2.6176,2.5256,2.6058,2.7093,2.7514,2.7896,2.8813,3.0991,3.2707,3.5563,4.0871,4.4361,4.6501,4.6765,4.7668,4.8154,4.7813,4.776,4.7913,4.8252,4.8296,4.8296,4.8296,4.7562,4.7113,4.7113,4.6746,4.6278,4.5626,4.5443,4.5333,4.5333,4.413,4.3579,4.38,4.3579,4.348,4.3437,4.3437,4.3384,4.3332,4.3332,4.326,4.3132,4.3132,4.304,4.2965,4.2965,4.3055,4.3181,4.3181,4.329,4.3471,0.0,0.0,0.0,0.0,0.0,0.0,0.0,0.0,0.0,0.0,0.0,0.0,0.0,0.0,0.0,0.0,0.0,0.0,0.0,0.0,2.0213,2.017,2.0197,2.0914,2.2393,2.2546,2.304,2.3916,2.5562,2.6417,2.6444,2.3886,2.2678,2.2585,2.1762,2.0971,2.0207,2.0184,2.0212,2.0208,0.0,0.0,0.0,0.0,0.0,0.0,0.0,0.0,0.0,0.0,0.0,0.0,0.0,0.0,2.2581,2.2581,2.2696,2.3119,2.4691,2.5191,2.5456,2.6214,2.6405,2.6787,2.8205,2.8625,2.9198,3.0796,3.2367,3.3742,3.4655,3.8094,4.095,4.1451,4.4968,4.7731,4.7943,4.8678,4.8981,4.8319,4.8261,4.8261,4.8306,4.8296,4.8296,4.8296,4.7562,4.7113,4.7113,4.5682,4.4847,4.4773,4.4048,4.3653,4.3653,4.3543,4.3864,4.459,4.3873,4.341,4.3233,4.3233,4.3178,4.3123,4.3123,4.3169,4.3196,4.3196,4.3142,4.3086,4.3086,4.3465,4.4015,4.4015,4.4486,4.5128,0.0,0.0,0.0,0.0,0.0,0.0,0.0,0.0,0.0,0.0,0.0,0.0,0.0,0.0,0.0,0.0,0.0,0.0,0.0,0.0,2.0208,2.0213,2.0733,2.1258,2.1825,2.2867,2.3821,2.4727,2.5832,2.5609,2.4053,2.3115,2.2132,2.1148,2.0848,2.0774,2.0923,2.0364,2.0438,2.0907,2.0336,0.0,0.0,0.0,0.0,0.0,0.0,0.0,0.0,0.0,1.9448,2.017,2.048,2.1894,2.3305,2.2772,2.2581,2.2849,2.4074,2.5144,2.6408,2.8278,2.9153,2.9688,3.03,3.2095,3.412,3.5802,3.668,3.7521,3.8858,4.0883,4.2845,4.4518,4.6577,4.7994,4.8198,4.8935,4.9205,4.8371,4.8296,4.8113,4.759,4.7562,4.7342,4.6838,4.6058,4.5617,4.5617,4.503,4.448,4.3975,4.4158,4.4011,4.3506,4.3445,4.3602,4.3887,4.3566,4.3384,4.3304,4.3242,4.3187,4.3151,4.3151,4.3142,4.3151,4.3151,4.3059,4.2975,4.2975,4.3427,4.4087,4.4087,4.4304,4.4621,0.0,0.0,0.0,0.0,0.0,0.0,0.0,0.0,0.0,0.0,0.0,0.0,0.0,0.0,0.0,0.0,0.0,0.0,2.0197,2.0184,2.0188,2.0199,2.0772,2.1177,2.1414,2.2755,2.3938,2.4803,2.5606,2.5112,2.34,2.3189,2.2632,2.1809,2.122,2.1448,2.2139,2.0998,2.0838,2.135,2.0755,2.0033,0.0,0.0,0.0,0.0,0.0,0.0,0.0,0.0,2.0095,2.0284,2.1356,2.2732,2.384,2.3501,2.3234,2.3155,2.3725,2.495,2.6561,2.8851,3.0602,3.2164,3.3505,3.5182,3.7283,4.0,4.0807,4.1074,4.1423,4.2576,4.3926,4.5505,4.7049,4.8143,4.8421,4.8974,4.9074,4.8389,4.8296,4.7966,4.7186,4.7113,4.6755,4.5957,4.514,4.47,4.47,4.4443,4.4085,4.3506,4.4011,4.4048,4.3506,4.3445,4.341,4.341,4.3421,4.3385,4.3313,4.3242,4.3187,4.316,4.316,4.325,4.3385,4.3131,4.3129,4.329,4.329,4.3942,4.4874,4.4874,4.5019,4.5309,0.0,0.0,0.0,0.0,0.0,0.0,0.0,0.0,0.0,0.0,0.0,0.0,0.0,0.0,0.0,0.0,0.0,0.0,2.0207,2.0188,2.0184,2.0209,2.0201,2.0591,2.1388,2.2171,2.304,2.3916,2.4765,2.5167,2.5154,2.4304,2.4372,2.5193,2.3467,2.3199,2.3878,2.2139,2.1388,2.1426,2.1412,2.0867,0.0,0.0,0.0,0.0,0.0,0.0,0.0,0.0,2.1509,2.0745,2.4118,2.4571,2.4069,2.4959,2.4571,2.3913,2.3916,2.4571,2.5647,2.7319,3.0254,3.3845,3.8052,3.7746,3.7933,4.2975,4.4704,4.4557,4.1991,4.334,4.4556,4.3673,4.6101,4.8255,4.8702,4.8799,4.8667,4.8307,4.826,4.7966,4.7149,4.7076,4.6755,4.5957,4.514,4.47,4.47,4.3938,4.3506,4.3506,4.3506,4.3506,4.3506,4.3506,4.3506,4.3506,4.3447,4.3313,4.3205,4.3205,4.316,4.3095,4.3095,4.3484,4.4051,4.3254,4.3399,4.4123,4.4123,4.5091,4.6504,4.6504,4.7001,4.7689,0.0,0.0,0.0,0.0,0.0,0.0,0.0,0.0,0.0,0.0,0.0,0.0,0.0,0.0,0.0,0.0,0.0,0.0,2.0197,2.0208,2.0208,2.0197,2.0751,2.0886,2.0485,2.1858,2.304,2.3916,2.4148,2.4012,2.3467,2.3768,2.3748,2.3479,2.3521,2.336,2.3028,2.1885,2.1715,2.221,2.1636,2.1251,2.1058,0.0,0.0,0.0,0.0,0.0,0.0,0.0,0.0,0.0,2.3234,2.4039,2.4727,2.438,2.4107,2.4145,2.5332,2.6705,2.8344,3.0636,3.331,3.6328,3.9928,3.9924,3.9924,4.2598,4.5234,4.6402,4.423,4.5305,4.6592,4.672,4.7484,4.8075,4.7983,4.797,4.761,4.67,4.6617,4.6287,4.5507,4.5388,4.5067,4.4277,4.3983,4.3873,4.3873,4.3616,4.3506,4.3506,4.3506,4.3506,4.3506,4.3437,4.3366,4.3295,4.3242,4.3251,4.335,4.3242,4.3196,4.316,4.3123,4.3222,4.3412,4.3635,4.4232,4.4947,4.4947,4.5599,4.6504,4.6504,4.6649,4.6928,0.0,0.0,0.0,0.0,0.0,0.0,0.0,0.0,0.0,0.0,0.0,0.0,0.0,0.0,0.0,0.0,0.0,0.0,0.0,2.0195,2.0348,2.0686,2.0814,2.0948,2.1089,2.2085,2.304,2.3916,2.3916,2.3657,2.3181,2.3673,2.4186,2.4678,2.4834,2.4637,2.4154,2.3291,2.3007,2.3116,2.2971,2.2704,2.2472,0.0,0.0,0.0,0.0,0.0,0.0,0.0,0.0,0.0,2.3578,2.3886,2.4115,2.3954,2.3649,2.3766,2.545,2.7393,2.9678,3.289,3.587,3.8816,4.18,4.2904,4.3553,4.4584,4.6565,4.7773,4.6692,4.684,4.7233,4.7697,4.7597,4.7365,4.7169,4.6989,4.6676,4.5984,4.5883,4.559,4.4773,4.47,4.4378,4.3543,4.3506,4.3506,4.3506,4.3506,4.3506,4.3506,4.3506,4.3489,4.3454,4.3429,4.3313,4.3205,4.3151,4.3187,4.3341,4.3196,4.3169,4.3205,4.3478,4.3376,4.3076,4.3816,4.4584,4.5309,4.5309,4.578,4.653,4.6856,4.6757,4.6613,0.0,0.0,0.0,0.0,0.0,0.0,0.0,0.0,0.0,0.0,0.0,0.0,0.0,0.0,0.0,0.0,0.0,0.0,0.0,0.0,2.0524,2.1347,2.0616,2.1012,2.2696,2.2734,2.3116,2.3916,2.3916,2.3916,2.3919,2.4069,2.5388,2.7566,2.6841,2.6459,2.633,2.5468,2.4612,2.3954,2.4765,2.465,2.4183,2.5718,0.0,0.0,0.0,0.0,0.0,0.0,0.0,0.0,2.4462,2.3886,2.2772,2.3534,2.3266,2.3119,2.4921,2.7243,3.0136,3.4384,3.8128,4.1375,4.3815,4.6189,4.7832,4.7526,4.8135,4.8764,4.88,4.776,4.6995,4.7235,4.6795,4.6368,4.6294,4.6031,4.5818,4.5709,4.5663,4.5406,4.4663,4.459,4.4305,4.3543,4.3506,4.3506,4.3506,4.3506,4.3506,4.3497,4.3497,4.3445,4.3394,4.3385,4.3341,4.3196,4.3196,4.3187,4.3178,4.3141,4.316,4.3233,4.3905,4.3711,4.2964,4.3761,4.4512,4.52,4.5273,4.578,4.6602,4.7327,4.7182,4.6711,0.0,0.0,0.0,0.0,0.0,0.0,0.0,0.0,0.0,0.0,0.0,0.0,0.0,0.0,0.0,0.0,0.0,0.0,0.0,0.0,2.0219,2.0377,2.0869,2.1896,2.3572,2.361,2.3725,2.3916,2.3916,2.3889,2.3946,2.5265,2.6191,2.6795,2.7217,2.6714,2.5426,2.4536,2.4069,2.3916,2.4107,2.4495,2.4959,2.5303,2.5227,0.0,0.0,0.0,0.0,0.0,0.0,0.0,2.3043,2.289,2.2658,2.2811,2.3228,2.4145,2.6517,2.8959,3.1862,3.6107,4.0731,4.4704,4.6571,4.7952,4.8067,4.5387,4.7558,4.9274,4.7143,4.7329,4.7642,4.7068,4.6643,4.6186,4.5555,4.5387,4.5016,4.4128,4.402,4.3947,4.3763,4.3763,4.369,4.3506,4.3506,4.3506,4.3506,4.3506,4.3471,4.3438,4.3438,4.3349,4.3242,4.3242,4.3196,4.3132,4.3132,4.3059,4.2957,4.3123,4.3151,4.3123,4.3184,4.3101,4.2964,4.3761,4.4196,4.4413,4.5055,4.578,4.654,4.6675,4.7037,4.7471,0.0,0.0,0.0,0.0,0.0,0.0,0.0,0.0,0.0,0.0,0.0,0.0,0.0,0.0,0.0,0.0,0.0,0.0,0.0,0.0,0.0,2.0712,2.1934,2.3002,2.3878,2.3916,2.3916,2.3916,2.4301,2.4503,2.4555,2.5421,2.6491,2.7644,2.7666,2.6975,2.572,2.5294,2.4874,2.4571,2.495,2.5374,2.5759,2.5759,2.5532,0.0,0.0,0.0,0.0,0.0,0.0,0.0,0.0,0.0,2.2696,2.3116,2.2963,2.3425,2.6784,2.9532,3.2932,3.9159,4.3329,4.6194,4.7526,4.8138,4.799,4.6189,4.8078,4.9524,4.7831,4.7548,4.7303,4.6622,4.5806,4.5109,4.4663,4.4498,4.4177,4.3569,4.3506,4.3506,4.3506,4.3506,4.3506,4.3506,4.3506,4.3506,4.3506,4.3506,4.3489,4.3437,4.3429,4.335,4.3205,4.316,4.3087,4.3003,4.3003,4.2975,4.2901,4.3077,4.3087,4.3003,4.2994,4.2965,4.2964,4.3761,4.4341,4.4729,4.5562,4.6142,4.654,4.6928,4.7109,4.7182,0.0,0.0,0.0,0.0,0.0,0.0,0.0,0.0,0.0,0.0,0.0,0.0,0.0,0.0,0.0,0.0,0.0,0.0,0.0,0.0,0.0,2.1557,2.3078,2.3954,2.4107,2.4107,2.4107,2.4107,2.4844,2.5344,2.5647,2.5647,2.6787,2.8876,2.8077,2.7319,2.6596,2.6329,2.5797,2.5268,2.5912,2.6176,2.6176,2.6176,0.0,0.0,0.0,0.0,2.4997,2.4997,0.0,0.0,0.0,0.0,2.2734,2.3457,2.2699,2.2475,2.6402,2.9876,3.4155,4.1681,4.4814,4.6342,4.7335,4.7564,4.763,4.7705,4.8599,4.9238,4.8662,4.7513,4.6433,4.5815,4.4714,4.39,4.39,4.3656,4.3506,4.3506,4.3506,4.3506,4.3506,4.3506,4.3506,4.3506,4.3506,4.3506,4.3506,4.3497,4.3471,4.3454,4.3366,4.3269,4.316,4.3077,4.3003,4.2892,4.2892,4.2892,4.2901,4.3003,4.3003,4.2901,4.3012,4.2994,4.2964,4.3616,4.4377,4.5164,4.5816,4.625,4.6576,4.7254,4.7145,4.6783,0.0,0.0,0.0,0.0,0.0,0.0,0.0,0.0,0.0,0.0,0.0,0.0,0.0,0.0,0.0,0.0,0.0,0.0,0.0,0.0,0.0,2.2393,2.3381,2.4263,2.4997,2.5035,2.5035,2.5035,2.5153,2.595,2.7358,2.7358,2.7927,2.8876,2.8077,2.7622,2.7434,2.5988,2.5306,2.5191,2.5306,2.5341,2.5341,0.0,0.0,0.0,0.0,0.0,2.4069,2.4069,2.3575,0.0,0.0,0.0,2.262,2.2734,2.262,2.3043,2.5832,3.1098,3.6791,4.0845,4.3095,4.4732,4.6304,4.6686,4.6822,4.7345,4.7618,4.7486,4.6651,4.5928,4.5166,4.4415,4.3878,4.3583,4.3583,4.354,4.3506,4.3506,4.3506,4.3506,4.3506,4.3506,4.3506,4.3506,4.3506,4.3506,4.3506,4.3428,4.3349,4.3251,4.3196,4.3095,4.2929,4.292,4.291,4.2892,4.2892,4.2892,4.2892,4.291,4.291,4.2892,4.291,4.2901,4.2892,4.3036,4.3544,4.4268,4.4367,4.5273,4.6494,4.6613,4.7037,4.7544,0.0,0.0,0.0,0.0,0.0,0.0,0.0,0.0,0.0,0.0,0.0,0.0,0.0,0.0,0.0,0.0,0.0,0.0,0.0,0.0,0.0,2.2581,2.3883,2.4803,2.5191,2.5191,2.5191,2.5191,2.5191,2.6064,2.7698,2.7205,2.8195,3.0293,2.85,2.7966,2.823,2.6103,2.5191,2.5191,2.5191,2.5191,2.5191,0.0,0.0,0.0,0.0,0.0,2.4612,2.4612,2.4383,2.4077,2.4077,0.0,0.0,0.0,2.3389,2.3346,2.6858,3.1018,3.5182,3.8514,4.0654,4.2369,4.405,4.4776,4.5246,4.5847,4.5829,4.5768,4.5844,4.5522,4.4939,4.4135,4.3705,4.3506,4.3506,4.3506,4.3506,4.3506,4.3506,4.3506,4.3506,4.3506,4.3489,4.3437,4.3428,4.3402,4.3349,4.3304,4.326,4.3205,4.3114,4.2868,4.2359,4.2702,4.2892,4.2892,4.2892,4.2892,4.2892,4.2892,4.2892,4.2892,4.2892,4.2892,4.2928,4.3399,4.3797,4.4186,4.5091,4.5888,4.654,4.7001,4.7399,4.7689,0.0,0.0,0.0,0.0,0.0,0.0,0.0,0.0,0.0,0.0,0.0,0.0,0.0,0.0,0.0,0.0,0.0,0.0,0.0,0.0,0.0,2.2925,2.4386,2.5191,2.5191,2.5191,2.5191,2.5191,2.5418,2.6367,2.8004,2.7354,2.873,3.1671,2.915,2.8459,2.907,2.6787,2.5838,2.58,2.5382,2.5191,0.0,0.0,0.0,0.0,0.0,0.0,2.4883,2.4883,2.473,2.4577,2.4806,2.4418,0.0,0.0,0.0,2.3998,2.7351,3.0102,3.2779,3.5687,3.8052,4.0076,4.1796,4.2789,4.3508,4.3968,4.3951,4.4038,4.4538,4.4766,4.4676,4.3987,4.3537,4.3359,4.3487,4.3139,4.3029,4.3433,4.3322,4.3286,4.3469,4.3506,4.348,4.3447,4.3238,4.3047,4.2967,4.2914,4.2777,4.2559,4.2677,4.2368,4.1542,4.2231,4.271,4.2892,4.2892,4.2892,4.2892,4.2892,4.2892,4.2892,4.2892,4.2892,4.2964,4.3544,4.3906,4.4232,4.5417,4.6142,4.6576,4.7182,4.7508,4.7689,0.0,0.0,0.0,0.0,0.0,0.0,0.0,0.0,0.0,0.0,0.0,0.0,0.0,0.0,2.0981,2.017,0.0,0.0,0.0,0.0,0.0,2.384,2.4727,0.0,2.5191,2.5191,2.5191,2.5191,2.595,2.7202,2.8838,2.8799,3.0136,3.2543,2.9983,2.9338,3.0036,2.8313,2.7584,2.7434,2.5838,2.5191,2.5191,0.0,0.0,0.0,0.0,2.4689,2.3954,2.3954,2.3422,2.2887,2.3725,2.3954,2.4069,0.0,0.0,0.0,2.6252,2.8392,3.0758,3.2508,3.5415,3.8285,4.0038,4.1036,4.1724,4.2002,4.2228,4.2265,4.1785,4.302,4.3921,4.3592,4.3069,4.2934,4.3447,4.2176,4.1801,4.3322,4.2837,4.2653,4.3433,4.3506,4.3506,4.3497,4.2732,4.2249,4.2241,4.2057,4.1623,4.0832,4.1443,4.1388,4.0591,4.1343,4.2148,4.2892,4.2892,4.2892,4.2892,4.2892,4.2892,4.2892,4.2892,4.2892,4.2892,4.2964,4.3399,4.4123,4.4186,4.5164,4.6504,4.654,4.7037,4.7689,0.0,0.0,0.0,0.0,0.0,0.0,0.0,0.0,0.0,0.0,0.0,0.0,0.0,2.1973,2.2049,2.1741,2.1973,0.0,0.0,0.0,0.0,2.3916,2.4727,2.5191,2.5191,2.5191,2.5191,2.5191,2.5494,2.6214,2.7316,2.7822,2.9161,3.1022,2.9546,2.9397,3.0036,2.7828,2.6877,2.6784,2.5647,2.5191,2.5191,2.5191,2.5191,2.5253,2.564,2.5891,2.6184,2.6737,2.6008,2.491,0.0,2.4756,2.3954,2.4263,2.4765,2.5268,2.5532,2.6676,2.816,2.9831,3.1962,3.4088,3.5802,3.7952,3.9754,4.0428,4.1349,4.1931,4.1586,4.2142,4.2551,4.2273,4.2075,4.1911,4.1902,4.1404,4.1249,4.1844,4.1573,4.1492,4.188,4.1829,4.1742,4.1709,4.1419,4.1193,4.1123,4.1052,4.0863,4.0572,4.079,4.08,4.0519,4.08,4.1343,4.2148,4.2629,4.2892,4.2892,4.2892,4.2892,4.2892,4.2892,4.2892,4.2892,4.2892,4.3073,4.3363,4.3906,4.4765,4.578,4.6323,4.7001,4.7689,0.0,0.0,0.0,0.0,0.0,0.0,0.0,0.0,0.0,0.0,0.0,0.0,0.0,0.0,2.3769,2.3504,2.3466,2.3466,2.3466,2.3998,2.4339,2.4339,2.4883,2.5191,2.5191,2.4921,2.4921,2.5191,2.5191,2.5912,2.724,2.778,2.8963,3.0553,2.9674,2.9944,3.0893,2.8897,2.7902,2.7554,2.6463,2.6011,2.6043,2.626,2.6504,2.6744,2.6836,2.7172,2.765,2.7951,2.6624,2.5012,0.0,0.0,0.0,0.0,2.3883,2.4347,2.4347,2.5147,2.6252,2.7393,2.9133,3.0909,3.2313,3.4871,3.7258,3.8304,3.976,4.0829,4.0761,4.0979,4.1199,4.1318,4.1193,4.1021,4.0939,4.0471,4.0324,4.0873,4.0603,4.055,4.0909,4.0859,4.0763,4.0739,4.045,0.0,4.0174,4.0138,4.0121,4.0121,3.9876,3.9976,4.0474,4.0519,4.1026,4.2112,4.2638,4.2892,4.2892,4.2892,4.2892,4.2892,4.2892,4.2892,4.2892,4.2892,4.2892,4.2964,4.3797,4.4594,4.5381,4.6214,4.7001,4.7689,0.0,0.0,0.0,0.0,0.0,0.0,0.0,0.0,0.0,0.0,0.0,0.0,0.0,0.0,0.0,2.5382,2.5306,2.5268,2.5268,2.5268,2.5268,2.5268,0.0,0.0,0.0,2.4377,2.4377,2.5229,2.5229,2.6482,2.8876,2.8911,2.9813,3.1321,3.0514,3.1051,3.2492,3.1599,3.0784,2.9927,2.828,2.7646,2.7705,2.8381,2.9103,2.9674,2.8745,2.8386,2.8203,2.7484,2.5128,2.2977,0.0,0.0,0.0,0.0,0.0,0.0,0.0,0.0,0.0,2.5191,2.7014,2.906,2.9841,3.1962,3.4183,3.5617,3.7379,3.8778,3.9133,3.9406,3.9896,4.0761,4.0485,4.0303,4.0673,3.9394,3.8992,4.0533,4.0042,3.9859,4.0642,4.0715,4.0743,4.0743,3.9938,3.9487,3.9487,3.9393,3.9369,3.9369,3.8617,3.8934,4.0447,4.0519,4.1316,4.2855,4.2892,4.2892,4.2892,4.2892,4.2892,4.2892,4.2892,4.2892,4.2892,4.2892,4.2892,4.2964,4.3797,4.4594,4.5381,4.6214,4.7001,4.7689,0.0,0.0,0.0,0.0,0.0,0.0,0.0,0.0,0.0,0.0,0.0,0.0,0.0,0.0,2.8125,2.7889,2.7358,2.7014,2.7014,2.6405,2.6367,2.6975,2.6405,2.6064,2.6064,2.5262,2.5224,2.6064,2.6064,2.6746,2.8077,2.9202,3.0026,3.0505,3.1352,3.1712,3.1567,3.0106,2.9353,2.9102,2.851,2.824,2.8338,2.9009,2.9392,2.9701,3.0464,3.1121,3.1678,3.2063,3.0499,2.8129,0.0,0.0,0.0,0.0,0.0,0.0,2.3728,0.0,0.0,0.0,0.0,0.0,2.8113,2.9607,3.136,3.318,3.4751,3.5996,3.6537,3.7174,3.7714,3.8123,3.8764,3.9157,3.8996,3.8603,3.8493,3.893,3.8771,3.8682,3.8958,3.8953,3.9173,0.0,3.903,3.8804,3.9421,3.8851,3.8544,3.8544,3.8871,3.9269,3.9695,4.0809,4.1596,4.204,4.2629,4.2892,4.2892,4.2892,4.2892,4.2892,4.2892,4.2892,4.2892,4.2892,4.2892,4.2964,4.3797,4.4594,4.5381,4.6214,4.7001,4.7689,0.0,0.0,0.0,0.0,0.0,0.0,0.0,0.0,0.0,0.0,0.0,0.0,0.0,0.0,2.9803,2.9456,2.8997,2.8466,2.7736,2.7205,2.7166,2.766,2.7205,2.6937,2.6937,2.6141,2.6103,2.6937,2.6596,2.7014,2.823,0.0,2.977,3.0155,3.1022,3.1176,3.069,2.9683,2.942,2.9645,2.9258,2.9297,2.9635,3.0662,3.1233,3.1678,3.2723,3.3609,3.4286,3.4109,3.2714,3.0365,0.0,0.0,0.0,0.0,0.0,0.0,0.0,0.0,0.0,0.0,0.0,0.0,2.653,2.8006,2.9754,3.1212,3.2444,3.3528,3.4453,3.4729,3.5008,3.5601,3.6245,3.7044,3.8125,3.8249,3.8249,3.8249,3.8216,3.8207,3.8249,3.8216,3.8544,3.9341,3.8653,3.84,3.8871,3.8436,3.8182,3.8182,3.8979,3.955,3.9876,4.1098,4.185,4.2221,4.2674,4.2892,4.2892,4.2892,4.2892,4.2892,4.2892,4.2892,4.2892,4.2892,4.2892,4.3,4.416,4.4874,4.5454,4.6576,4.729,4.7689,0.0,0.0,0.0,0.0,0.0,0.0,0.0,0.0,0.0,0.0,0.0,0.0,0.0,0.0,0.0,0.0,3.0418,2.9726,2.8233,2.7927,2.7889,2.7966,2.7889,2.7813,2.7813,2.6975,2.6975,2.7813,2.7052,2.7507,0.0,0.0,0.0,0.0,0.0,3.0049,3.0003,2.9917,3.0338,3.0998,3.0452,3.0671,3.1549,3.2906,3.3824,3.456,3.5068,3.5782,3.617,3.4462,3.2982,3.0889,2.5353,0.0,0.0,0.0,2.3119,0.0,0.0,0.0,0.0,0.0,2.5371,0.0,2.5447,2.702,2.8874,2.9574,3.0358,3.1284,3.2503,3.2262,3.221,3.3276,3.3609,3.4673,3.7527,3.8001,3.8082,3.8082,3.8146,3.8182,3.8182,3.8182,3.8544,3.9341,3.8726,3.8291,3.8182,3.8182,3.8182,3.8182,3.9052,3.984,4.0474,4.1388,4.2185,4.2892,4.2892,4.2892,4.2892,4.2892,4.2892,4.2892,4.2892,4.2892,4.2892,4.2892,4.2892,4.3036,4.4584,4.5236,4.549,4.7001,4.7616,4.7689,0.0,0.0,0.0,0.0,0.0,0.0,0.0,0.0,0.0,0.0,0.0,0.0,0.0,0.0,0.0,0.0,3.1633,3.1102,3.0796,2.9452,2.8994,2.9692,2.9032,2.8685,2.8685,2.7851,2.7851,2.8685,2.8494,2.8956,0.0,0.0,0.0,0.0,3.0053,3.0014,3.0003,2.9917,3.0678,3.1929,3.1641,3.2451,3.3896,3.445,3.476,3.5084,3.6486,3.7118,3.6963,3.4946,3.3712,3.262,3.0441,2.9126,2.8263,2.781,0.0,0.0,0.0,0.0,0.0,0.0,2.6708,0.0,2.6359,2.7006,2.7847,2.7967,2.8643,2.9229,2.9275,3.025,3.124,3.1903,3.2971,3.4293,3.6032,3.6842,3.7249,3.7249,3.7828,3.8182,3.8182,3.8182,3.8544,3.9341,3.9269,3.8871,3.8218,3.8182,3.8182,3.8182,3.955,4.0338,4.0519,4.194,4.2747,4.2892,4.2892,4.2892,4.2892,4.2892,4.2892,4.2892,4.2892,4.2892,4.2892,4.2892,4.2892,4.3,4.3978,4.4729,4.5417,4.6395,4.7145,4.7689,0.0,0.0,0.0,0.0,0.0,0.0,0.0,0.0,0.0,3.1328,3.1828,3.2405,0.0,0.0,0.0,0.0,0.0,0.0,0.0,3.0866,3.0372,3.0835,2.999,2.9761,3.0178,2.9383,2.9344,3.0216,2.9761,2.9765,3.0188,0.0,0.0,2.9514,2.9878,2.9802,2.9475,3.0674,3.2088,3.3323,3.1962,3.2377,3.385,3.4369,3.4565,3.481,3.6787,3.7492,3.7103,3.4532,3.369,3.3379,3.161,3.0263,2.9353,2.928,2.7933,2.6517,0.0,0.0,0.0,2.6995,2.7335,0.0,0.0,2.6671,2.7062,2.7409,2.7153,2.7066,2.7758,2.8232,2.8832,2.9792,3.0924,3.2139,3.3546,3.5299,3.6399,3.6399,3.6761,3.7168,3.7566,3.7611,3.7937,3.8726,3.916,3.9052,3.8255,3.8182,3.8182,3.8182,3.9695,4.0519,4.0519,4.1714,4.2484,4.2892,4.2484,4.252,4.2892,4.2892,4.2892,4.2892,4.2892,4.2892,4.2892,4.2892,4.2892,4.2964,4.3797,4.4594,4.5381,4.6214,4.7001,4.7689,0.0,0.0,0.0,0.0,0.0,0.0,0.0,0.0,0.0,3.2737,3.3433,3.4044,3.4885,3.4541,3.4354,0.0,0.0,0.0,0.0,3.2317,3.1595,3.1484,3.0987,3.0911,3.1484,3.0949,3.1026,3.1748,3.0873,3.0414,3.0445,3.0254,2.9813,2.9164,2.9813,2.9897,2.9642,3.1615,3.3417,3.4752,3.2625,3.2564,3.3933,3.4679,3.4794,3.4844,3.697,3.7639,3.7081,3.4479,3.4025,3.4161,3.1874,3.0738,3.0181,2.9815,2.8745,0.0,0.0,0.0,0.0,0.0,0.0,2.7816,0.0,0.0,0.0,2.7194,2.6163,2.5594,2.6808,2.658,2.6518,2.7503,2.8609,2.9765,3.0894,3.3193,3.4862,3.5204,3.5386,3.5771,3.6531,3.6693,3.7176,3.811,3.8653,3.8726,3.8218,3.8182,3.8182,3.8182,3.955,4.0302,4.0302,4.1234,4.1967,4.2411,4.2076,4.2185,4.2674,4.2819,4.2892,4.2892,4.2892,4.2892,4.2892,4.2892,4.2892,4.2964,4.3616,4.4367,4.5164,4.5961,4.6783,4.7471,3.1378,3.2077,0.0,0.0,0.0,0.0,0.0,0.0,3.2779,3.3742,3.3276,3.32,3.4048,3.4694,3.5649,3.7143,3.5271,3.4579,3.5984,3.3845,3.2241,3.1522,3.2088,3.2088,3.1442,3.2088,3.247,3.2546,3.1706,3.1275,3.1253,3.0478,3.0075,2.9969,3.0,3.0794,3.2184,3.2133,3.3564,3.5797,3.5082,3.5473,3.6576,3.7733,3.7366,3.6435,3.7993,3.8109,3.7331,3.6346,3.6095,3.586,3.3741,3.2518,3.1596,3.04,2.8878,2.7754,0.0,0.0,0.0,0.0,2.9238,0.0,2.7742,0.0,2.81,2.6663,0.0,2.5894,2.5363,0.0,0.0,2.5446,2.709,2.8493,2.8652,3.0033,3.1542,3.3032,3.3844,3.4535,3.5073,3.5633,3.658,3.8074,3.7611,3.7538,3.8182,3.8182,3.8182,3.8182,3.9052,3.9514,3.9514,4.0954,4.1379,4.0809,4.2122,4.2448,4.1859,4.2556,4.2892,4.2892,4.2892,4.2892,4.2892,4.2892,4.2892,4.2892,4.3,4.3544,4.4331,4.5128,4.5961,4.6747,3.2164,3.2856,0.0,0.0,0.0,0.0,0.0,0.0,3.3738,3.4579,3.5229,3.6141,3.7521,3.7517,3.8094,3.978,3.8056,3.7215,3.7899,3.511,0.0,3.4384,3.2856,3.2283,3.2898,3.2283,3.1973,3.2015,3.1076,3.0638,3.0624,3.0262,3.0076,3.0076,3.054,3.1415,3.267,3.4551,3.5589,3.6158,3.7899,3.7903,3.6883,3.718,3.7169,3.6963,3.7079,3.7517,3.7833,0.0,3.6229,0.0,0.0,3.3978,3.2125,3.2364,3.0811,2.9277,0.0,0.0,0.0,0.0,0.0,0.0,2.854,0.0,2.796,0.0,0.0,0.0,0.0,0.0,0.0,0.0,2.7221,2.7842,2.7842,2.8331,2.9415,3.1219,3.2203,0.0,3.4096,3.4564,3.524,3.6265,3.6039,3.6177,3.7009,3.7346,3.772,3.8191,3.8979,3.9414,3.9414,4.0483,4.1053,4.1198,4.1895,4.2266,4.2411,4.2747,4.2892,4.2892,4.2892,4.2892,4.2892,4.2892,4.2892,4.2892,4.2892,4.3399,4.4196,4.4983,4.5816,4.6613,3.3005,0.0,0.0,0.0,3.4384,0.0,0.0,3.3127,3.4082,3.5377,3.6604,3.84,4.1031,4.0764,4.1342,4.3711,4.1953,4.0616,4.0382,3.7016,3.5331,3.6099,3.3803,3.2852,3.3624,3.2856,3.2244,3.1824,3.0909,3.0464,3.0414,3.019,3.0034,3.0025,3.0896,3.1944,3.3263,3.597,3.7003,3.7006,3.9358,3.9074,3.7212,3.6813,3.7037,3.7523,3.6877,3.7416,3.8226,3.7049,3.6688,0.0,3.6833,3.5158,3.3311,3.3907,3.2729,3.1402,3.2386,0.0,0.0,0.0,0.0,0.0,0.0,0.0,0.0,0.0,0.0,0.0,0.0,0.0,0.0,0.0,0.0,2.7073,2.6846,2.6997,2.7753,2.9416,3.0485,3.1607,0.0,3.3247,3.363,3.4023,3.4104,3.4512,3.5445,3.6103,3.685,3.7828,3.8653,3.9052,3.9052,4.0012,4.0691,4.1098,4.1714,4.223,4.2592,4.2819,4.2892,4.2892,4.2892,4.2892,4.2892,4.2892,4.2892,4.2892,4.2892,4.3399,4.4196,4.4983,4.5671,4.6323,3.378,3.4617,0.0,3.511,3.5148,3.5186,3.5072,3.3731,3.3654,3.6137,3.6519,3.8391,4.3357,4.3854,4.5501,4.9671,4.6997,4.4743,4.3892,3.9929,3.6871,3.5301,3.5123,3.4356,3.2772,3.4269,3.4269,3.2657,3.1794,3.1337,3.1256,3.041,2.9983,2.9934,3.081,3.2495,3.4682,3.5377,3.6887,3.8785,3.8624,3.8483,3.829,3.7743,3.7889,3.8344,3.8336,0.0,0.0,3.8267,3.8234,0.0,0.0,0.0,0.0,0.0,0.0,0.0,0.0,0.0,0.0,3.3715,0.0,0.0,0.0,0.0,2.9673,0.0,0.0,0.0,0.0,0.0,0.0,0.0,0.0,0.0,0.0,2.5743,2.6573,2.7475,2.8829,3.0001,3.081,3.1427,3.1752,3.1698,3.1767,3.239,3.3707,3.4515,3.5593,3.7003,3.7828,3.8255,3.8255,3.9722,4.0157,3.9486,4.1769,4.2484,4.1741,4.252,4.2892,4.2892,4.2892,4.2892,4.2892,4.2892,4.2892,4.2892,4.2892,4.3399,4.4196,4.4983,4.5309,4.5562,0.0,0.0,0.0,3.4503,3.443,3.4579,3.511,3.522,3.671,4.0912,4.2445,4.5043,5.0124,4.9704,5.0277,5.341,5.0588,4.8258,4.7417,4.4465,4.2206,4.1065,3.9456,3.7504,3.5259,3.5224,3.3799,3.0982,3.0685,3.0495,3.0448,3.0097,3.0216,3.081,3.1678,3.3441,3.5899,3.6987,3.7899,3.8552,3.8633,3.8691,3.8744,3.8237,3.8182,3.8348,3.829,3.8274,0.0,3.8232,3.8224,3.8168,3.7645,3.6848,3.6018,3.556,3.479,0.0,0.0,0.0,3.4843,3.5308,0.0,0.0,0.0,0.0,0.0,0.0,0.0,0.0,0.0,0.0,0.0,0.0,0.0,0.0,0.0,2.5553,2.5936,2.7339,2.7426,2.7805,2.9041,2.8995,2.9088,2.9467,2.9392,3.0203,3.2273,3.3339,3.4868,3.6922,3.7784,3.8182,3.8182,3.9731,4.0374,4.0157,4.2013,4.2747,4.2484,4.2783,4.2892,4.2892,4.2892,4.2892,4.2892,4.2892,4.2892,4.2892,4.2892,4.3399,4.4196,4.4983,4.5635,4.625,3.4312,3.4846,3.5033,3.4503,3.443,3.4694,3.553,3.7135,3.9656,4.351,4.5998,4.9251,5.4027,5.3601,5.3983,5.6504,5.418,5.1775,4.9928,4.7514,4.5453,4.3874,4.2113,3.9981,3.7436,3.6523,3.4567,3.1485,3.1169,3.0974,3.0904,3.0839,3.1071,3.1644,3.2551,3.4149,3.6277,3.7363,3.807,3.8477,3.8301,3.8471,3.8752,3.8199,3.8217,3.8523,0.0,3.8328,3.8348,3.8224,3.8182,3.8182,3.8182,3.758,3.6848,3.6848,3.6238,3.5752,3.6602,3.6478,0.0,3.6725,3.5655,0.0,3.3603,0.0,3.2773,0.0,0.0,0.0,0.0,0.0,0.0,0.0,0.0,0.0,0.0,2.6239,2.6277,2.7376,2.6732,2.6651,2.7806,2.7667,2.7403,2.7135,2.7277,2.8385,3.0724,3.2013,3.3858,3.648,3.7639,3.8182,3.8182,3.9731,4.0519,4.051,4.2122,4.2892,4.2892,4.2892,4.2892,4.2892,4.2892,4.2892,4.2892,4.2892,4.2892,4.2892,4.2892,4.358,4.4594,4.5091,4.5997,4.7001,3.5148,3.5224,3.5263,3.5263,3.5224,3.5492,3.6405,3.9393,4.2221,4.4083,4.7302,5.1053,5.5244,5.5702,5.6657,5.9064,5.7734,5.5228,5.1678,4.9334,4.6827,4.3994,4.3384,4.1874,3.9294,3.8306,3.6557,3.4048,3.3086,3.2589,3.258,3.245,3.2406,3.2444,3.3316,3.4508,3.5921,3.6416,3.7479,3.8677,3.791,3.8048,3.8598,3.7917,3.8243,3.9064,3.8736,3.865,3.864,3.8363,3.8263,3.8255,3.8218,3.8218,3.8263,3.8263,3.8291,3.8291,3.8291,3.7353,3.6646,3.7922,3.6787,0.0,0.0,0.0,3.6013,0.0,0.0,0.0,0.0,0.0,0.0,0.0,0.0,0.0,0.0,0.0,2.7528,2.7555,2.6793,2.6469,2.7077,2.7271,2.6649,2.491,2.5503,2.6894,2.9125,3.0543,3.268,3.5639,3.7385,3.8263,3.8263,3.9795,4.0555,4.0591,4.2158,4.2892,4.2892,4.2892,4.2892,4.2892,4.2892,4.2892,4.2892,4.2892,4.2892,4.2892,4.2928,4.3942,4.5345,4.5381,4.6395,4.7689,3.4315,3.5301,3.6175,3.6175,3.5645,3.5683,3.7177,4.0272,4.3978,4.8138,5.2193,5.6059,5.9606,6.0026,6.0523,6.1815,5.979,5.7821,5.6265,5.4714,5.2409,4.9225,4.8711,4.6554,4.2412,4.0306,3.7846,3.489,3.3335,3.2563,3.253,3.2505,3.2458,3.2492,3.3329,3.432,3.5349,3.578,3.7323,3.9515,4.0274,4.0872,4.1246,0.0,4.0904,4.063,3.9569,3.9534,3.9917,3.9295,3.9088,3.8979,3.84,3.8617,3.9088,3.9088,3.9478,3.9903,3.9903,3.9666,3.9346,3.9141,3.7919,3.6655,0.0,0.0,0.0,0.0,0.0,0.0,0.0,0.0,0.0,0.0,0.0,0.0,0.0,0.0,2.7668,2.8127,2.7387,2.6693,2.6263,2.5739,2.5189,2.4617,2.4729,2.581,2.8075,0.0,3.2397,3.4842,3.7631,3.9088,3.9088,4.0628,4.1379,4.1415,4.2411,4.2892,4.2892,4.2892,4.2892,4.2892,4.2892,4.2892,4.2892,4.2892,4.2892,4.2964,4.3544,4.4765,4.625,4.6856,4.7363,4.7689,3.5037,3.6447,3.7593,3.7593,3.8395,3.9389,4.0306,4.3018,4.6538,5.0818,5.4753,5.7886,5.9797,6.0637,6.1402,6.228,6.0714,5.9099,5.7766,5.7168,5.5242,5.1722,5.1043,4.9013,4.5281,4.238,3.9521,3.6696,3.5051,3.4069,3.368,3.3659,3.3646,3.3646,3.4091,3.4783,3.568,3.6706,3.7792,3.895,4.0439,4.1368,0.0,4.1607,4.1858,4.2115,4.1036,4.0664,4.0621,4.0074,3.9876,3.9767,3.8979,3.926,3.9804,3.9486,3.9912,4.0519,4.0519,4.0519,4.0338,3.9586,3.9053,3.8397,3.7283,3.7042,3.6861,0.0,3.5749,3.5283,0.0,0.0,0.0,0.0,0.0,0.0,0.0,0.0,2.8416,2.875,2.8012,2.7303,2.6786,2.5732,2.5061,2.4952,2.451,2.5465,0.0,0.0,3.1342,3.4009,3.7196,3.8363,3.7305,4.0564,4.1714,4.07,4.2203,4.2892,4.2892,4.2892,4.2892,4.2892,4.2892,4.2892,4.2892,4.2892,4.3109,4.3544,4.4693,4.5707,4.6613,4.7399,4.7689,4.7761,3.6481,3.809,3.9317,3.9326,4.2106,4.4546,4.5239,4.7221,4.9742,5.2887,5.6173,5.823,5.823,5.9613,6.0874,6.1707,6.095,5.9674,5.7909,5.7804,5.6259,5.2716,5.1757,5.013,4.7673,4.4178,4.1239,3.8822,3.7186,3.6001,3.52,3.5123,3.5101,3.5101,3.5048,3.5462,3.6386,3.8226,3.8584,3.8141,3.986,4.0984,4.1562,4.1141,4.195,4.3245,4.2557,4.1844,4.119,4.0807,4.0655,4.0519,3.9767,4.0048,4.0519,3.9876,4.0238,4.0809,4.0691,4.0736,4.0591,3.9767,4.0121,4.0266,3.8834,3.9052,3.9305,3.8508,3.7389,3.6427,0.0,0.0,0.0,0.0,0.0,0.0,0.0,0.0,2.9667,2.9418,2.8841,0.0,2.7948,2.6563,2.5675,2.5606,2.488,0.0,0.0,0.0,3.0153,3.314,3.648,3.7277,3.5377,4.0392,4.1913,4.003,4.1986,4.2892,4.2892,4.2892,4.2892,4.2892,4.2892,4.2964,4.3073,4.3073,4.358,4.4548,4.5961,4.6566,4.6747,4.7435,4.7761,4.7978,3.733,3.9431,4.1093,4.114,4.3856,4.7505,5.1756,5.2759,5.3683,5.5677,5.8275,5.9957,5.9957,6.0835,6.1745,6.2579,6.1287,6.0241,5.9893,5.8303,5.6359,5.4058,5.2871,5.1211,4.8927,4.4918,4.1913,4.002,3.7639,3.6035,3.52,3.5191,3.5187,3.5187,3.5061,3.5371,3.6104,3.8085,3.9135,3.9685,4.1636,4.2496,4.265,4.254,4.2705,4.2958,4.2813,4.2704,4.2468,4.1732,4.1488,4.1343,4.0555,4.0845,4.1451,4.1352,4.1868,4.2339,4.1678,4.1977,4.2122,4.0664,4.0917,4.1234,4.0302,4.0193,4.0085,3.9341,3.8977,3.8242,3.6435,0.0,0.0,0.0,0.0,0.0,0.0,0.0,3.1706,3.0134,3.0392,3.0149,2.8621,2.7169,2.6277,2.6106,2.6061,0.0,0.0,0.0,3.0644,0.0,3.619,0.0,0.0,0.0,4.3036,4.3281,4.3036,4.2892,4.2892,4.2892,4.2892,4.2892,4.2892,4.329,4.3906,4.3906,4.4729,4.6106,4.6395,4.6892,4.7508,4.7652,4.8123,4.8703,4.0196,4.1342,4.2574,4.3899,4.7275,5.1111,5.4923,5.7315,5.8659,5.8588,5.9262,5.972,5.972,6.0485,6.1325,6.2159,6.1478,6.0637,5.9797,5.8778,5.7407,5.5557,5.334,5.1744,5.0892,4.6428,4.2998,4.0695,0.0,0.0,0.0,3.5196,3.5196,3.5225,3.5429,3.5881,3.6605,3.8568,0.0,4.0586,4.241,4.316,4.3178,4.3335,4.3328,4.316,4.316,4.3069,4.2855,4.2448,4.2339,4.2185,4.1388,4.1678,4.2221,4.1813,4.2266,4.2819,4.2411,4.2602,4.2602,4.1424,4.1415,4.1488,4.0691,4.0519,4.041,4.0048,3.9659,3.8832,3.6908,3.5718,0.0,0.0,0.0,0.0,0.0,0.0,3.2198,3.1319,3.1154,3.078,2.9929,2.8488,2.7397,2.6915,2.6554,2.6851,0.0,0.0,2.9772,0.0,0.0,0.0,3.6826,0.0,4.2674,4.1044,4.2312,4.2892,4.2892,4.2892,4.3109,4.3507,4.3507,4.3978,4.4729,4.5164,4.5816,4.653,4.6964,4.7363,4.7689,4.7689,4.8196,4.8956,4.4521,4.4855,4.5648,4.7761,5.1396,5.4794,5.7175,6.0813,6.2738,6.1176,6.0339,5.9752,5.9408,6.0141,6.0905,6.1554,6.144,6.079,5.9446,5.9026,5.8127,5.6545,5.3558,5.1971,5.2113,4.7635,4.4029,0.0,0.0,0.0,0.0,3.5242,3.5348,3.5665,3.6262,3.6938,0.0,0.0,4.0553,4.1264,4.2751,4.3355,4.3363,4.3644,4.3532,4.3302,4.3302,4.3114,4.2892,4.2892,4.2892,4.2783,4.2148,4.2375,4.2783,4.2148,4.2411,4.2855,4.271,4.2783,4.271,4.1886,4.1823,4.1786,4.1135,4.1026,4.0954,4.08,4.0157,3.9269,3.7965,3.7611,0.0,0.0,0.0,0.0,0.0,0.0,3.285,3.2495,3.1915,3.1372,3.1009,2.9547,2.8359,2.7792,2.7109,2.7357,2.885,0.0,0.0,0.0,0.0,3.5719,3.4697,0.0,4.2013,3.9486,4.1805,4.2892,4.2892,4.3073,4.3507,4.4123,4.4258,4.4802,4.5635,4.6421,4.6747,4.683,4.7435,4.7797,4.7978,4.7978,4.8558,4.9499,5.062,5.1497,5.2311,5.3397,5.5744,5.8145,5.9952,6.2534,6.3887,6.2891,6.2629,6.1967,6.0453,6.0981,6.1516,6.1593,6.095,6.0453,6.03,5.8842,5.7472,5.6208,5.3639,5.1897,5.1133,4.7753,4.477,0.0,0.0,3.7942,0.0,0.0,0.0,0.0,0.0,0.0,0.0,4.0677,4.1405,4.1966,4.2868,4.3178,4.3141,4.3142,4.3087,4.2948,4.2948,4.2929,4.2892,4.2892,4.2892,4.2892,4.2819,4.2855,4.2892,4.2819,4.2855,4.2747,4.2004,4.2339,4.271,4.1886,4.2266,4.2783,4.2674,4.2674,4.2484,4.175,4.0945,4.0338,4.0193,3.9623,3.8653,0.0,0.0,0.0,0.0,0.0,3.4906,3.3458,3.3212,3.2596,3.1154,2.9547,2.8563,2.8497,2.8419,2.8751,0.0,0.0,0.0,3.2125,3.3212,3.5385,3.8798,4.0166,4.1759,4.3544,4.3109,4.2892,4.2928,4.3652,4.4051,4.415,4.4874,4.5635,4.6468,4.7254,4.758,4.7616,4.7652,4.8159,4.8775,4.8775,4.9764,5.1079,5.4352,5.4647,5.5101,5.6998,5.8583,6.0175,6.1908,6.4293,6.5601,6.4684,6.3618,6.2675,6.1982,6.1287,6.0874,6.0874,6.0606,6.0186,5.9644,5.8536,5.7686,5.7194,5.4551,5.3011,5.2855,4.9198,4.6265,0.0,0.0,0.0,0.0,0.0,0.0,0.0,0.0,4.0,4.0834,4.1507,4.2167,4.2722,4.3032,4.3132,4.3095,4.3003,4.2965,4.2892,4.2892,4.2892,4.2892,4.2892,4.2892,4.2892,4.2892,4.2892,4.2892,4.2892,4.2892,4.2819,4.252,4.2674,4.2819,4.2484,4.2674,4.2892,4.2892,4.2892,4.2819,4.2484,4.1786,4.1053,4.0583,4.0664,4.013,3.8037,0.0,0.0,0.0,0.0,0.0,3.4291,3.411,3.3864,3.3212,3.0822,2.9735,3.067,2.9432,0.0,0.0,0.0,0.0,3.4255,0.0,3.6327,3.9378,4.0121,4.1243,4.2655,4.3317,4.387,4.4341,4.4657,4.5091,4.5599,4.6395,4.6928,4.7254,4.758,4.7978,4.8413,4.8413,4.892,4.9619,4.9619,5.0307,5.1296,5.8581,5.8389,5.8454,6.0482,6.1364,6.2196,6.3393,6.5279,6.6427,6.5994,6.4228,6.2978,6.2892,6.1631,6.0644,6.0415,6.0415,6.0148,5.9522,5.8498,5.7886,5.7886,5.523,0.0,5.3722,5.0344,4.7548,4.5434,4.2902,0.0,0.0,0.0,0.0,0.0,4.0664,4.1295,4.1964,4.2379,4.281,4.3205,4.3205,4.3151,4.3086,4.2994,4.291,4.2892,4.2892,4.2892,4.2892,4.2892,4.2892,4.2892,4.2892,4.2892,4.2892,4.2892,4.2892,4.2892,4.2892,4.2892,4.2892,4.2892,4.2892,4.2892,4.2892,4.2892,4.2892,4.2892,4.2448,4.1895,4.1316,4.1678,4.1352,3.9224,0.0,0.0,0.0,3.6335,0.0,3.4834,3.4617,3.4617,3.4617,3.2125,3.0973,3.2096,3.0634,0.0,0.0,0.0,0.0,0.0,0.0,0.0,3.9015,3.9795,4.0917,4.2438,4.3788,4.4729,4.5309,4.5526,4.6106,4.6892,4.7435,4.7689,4.7725,4.7978,4.8377,4.892,4.9173,4.9727,5.0463,5.0463,5.097,5.1658,6.4,6.3764,6.338,6.4264,6.4462,6.4436,6.4394,6.5209,6.6047,6.6703,6.4575,6.2978,6.2892,6.212,6.1287,6.0453,6.0415,6.0415,6.0377,5.8803,5.7886,0.0,0.0,5.3683,5.2849,5.083,4.8445,4.5714,0.0,0.0,4.0678,0.0,4.118,4.143,4.2269,4.291,4.3375,4.3463,4.3356,4.3214,4.3359,4.3278,4.3095,4.3095,4.3003,4.2892,4.2892,4.2892,4.2892,4.2892,4.2892,4.2892,4.2892,4.2892,4.2892,4.2892,4.2892,4.2892,4.2892,4.2892,4.2892,4.2892,4.2892,4.2892,4.2892,4.2892,4.2892,4.2892,4.2892,4.2892,4.2855,4.2892,4.2348,4.0736,0.0,0.0,0.0,3.716,0.0,3.487,3.4617,3.4617,3.4617,3.314,3.2169,3.2198,0.0,0.0,0.0,0.0,0.0,3.3393,3.2669,0.0,3.8182,3.8934,4.0926,4.4087,4.491,4.5273,4.5345,4.6106,4.6928,4.7689,4.7689,4.7689,4.7761,4.8558,4.8873,4.8992,4.9775,5.0572,5.1296,5.1296,5.1792,5.2491,6.5077,6.5692,6.5756,6.5487,6.5871,6.6024,6.546,6.5998,6.677,6.7523,6.6399,6.5283,6.4688,6.2319,6.0683,6.0415,6.0415,6.0415,0.0,5.8842,5.7886,5.7886,5.6014,5.46,5.3722,5.1923,5.0323,4.8852,0.0,0.0,0.0,4.3324,4.3286,4.284,4.3106,4.3334,4.3463,4.3497,4.3437,4.3359,4.3394,4.3323,4.3151,4.3123,4.3077,4.3012,4.291,4.2892,4.2892,4.2892,4.2892,4.2892,4.2892,4.2892,4.2892,4.2892,4.2892,4.2892,4.2892,4.2892,4.2892,4.2892,4.2892,4.2892,4.2892,4.2892,4.2892,4.2892,4.2892,4.3073,4.3616,4.3254,4.2556,4.1497,4.0872,0.0,3.6979,0.0,3.6878,3.5558,3.5892,3.6443,3.6987,3.5602,0.0,0.0,0.0,0.0,0.0,0.0,0.0,0.0,3.7739,0.0,4.2203,4.1904,4.3099,4.5743,4.5997,4.6395,4.6928,4.7182,4.7471,4.7689,4.7689,4.7689,4.7761,4.8558,4.9209,4.9811,5.0608,5.1405,5.2129,5.2129,5.2263,5.248,6.5737,6.6558,6.6853,6.6019,6.6249,6.6356,6.5764,6.6057,6.6589,6.7393,6.6736,6.5987,6.5452,6.2968,0.0,6.0453,6.0415,6.0415,6.0415,5.9109,5.823,5.7925,5.6587,5.5236,5.3949,5.2775,0.0,5.0404,4.8025,4.6162,4.4838,4.5188,4.4979,4.4387,4.4093,4.3938,4.3938,4.3616,4.3454,4.3403,4.3403,4.3304,4.3205,4.3142,4.3151,4.3141,4.3059,4.3012,4.2975,4.2975,4.2956,4.2892,4.2892,4.2892,4.2892,4.2892,4.2892,4.2892,4.2892,4.2892,4.2892,4.2892,4.2892,4.2892,4.2892,4.2892,4.2892,4.2892,4.3145,4.3507,4.4015,4.3689,4.3181,4.2692,4.1678,4.0229,3.8182,0.0,3.7385,0.0,0.0,0.0,0.0,3.7377,3.7232,0.0,0.0,0.0,0.0,0.0,0.0,3.9341,4.0121,4.1497,4.3616,4.3435,4.4403,4.6504,4.7109,4.7833,4.8605,4.8605,4.8605,4.8605,4.8605,4.8605,4.8677,4.9474,5.009,5.0644,5.1441,5.2045,5.248,5.248,5.248,5.248,6.6058,6.6513,6.6756,6.596,6.5787,6.5733,6.5523,6.5494,6.5771,6.6606,6.5987,6.5452,6.5413,6.3962,6.2319,6.0644,0.0,0.0,6.0415,5.9568,5.8758,5.8001,5.7091,5.5704,5.3857,5.339,5.2349,5.0678,4.9062,4.7685,4.6533,4.6454,4.6231,4.5883,4.5104,4.4773,4.4737,4.3901,4.3527,4.3476,4.3448,4.3313,4.3224,4.3224,4.3224,4.3224,4.3214,4.3151,4.3104,4.3104,4.3012,4.2901,4.2901,4.2901,4.2892,4.2892,4.2892,4.2892,4.2892,4.2892,4.2892,4.2892,4.2928,4.3,4.3036,4.3073,4.3073,4.3073,4.3652,4.4196,4.4258,4.4196,4.4087,4.4087,4.2692,4.1098,3.9523,3.9305,3.85,0.0,0.0,0.0,3.7393,3.8726,3.9305,0.0,0.0,0.0,0.0,0.0,3.9052,3.9631,4.0519,4.1714,4.3218,4.4087,4.5273,4.6757,4.8268,4.9365,5.0101,5.0101,5.0101,5.0101,5.0101,5.0101,5.0173,5.097,5.1296,5.1368,5.219,5.248,5.248,5.248,5.248,5.248,0.0,0.0,6.6044,6.5832,6.5667,6.5537,6.5509,6.5443,6.5742,6.6598,6.6514,6.6139,6.5452,6.4504,6.3205,6.1478,6.0759,6.0415,6.0415,5.9568,5.9026,5.8835,5.739,5.637,5.5883,5.4558,5.3084,5.1518,5.0482,4.9276,4.7859,4.7215,4.6544,4.5883,4.57,4.5626,4.5553,4.4745,4.439,4.4272,4.3702,4.3419,4.3368,4.3368,4.3368,4.3359,4.3242,4.3196,4.3178,4.3178,4.3114,4.3067,4.3067,4.2984,4.2892,4.2892,4.2892,4.2892,4.2892,4.2892,4.2892,4.2892,4.3363,4.3978,4.4594,4.4729,4.4729,4.4729,4.4874,4.52,4.5816,4.4947,4.4087,4.4087,4.2221,4.0247,3.8766,3.8514,3.828,0.0,3.9585,4.0809,4.0591,4.1506,4.1732,0.0,0.0,4.07,4.0266,4.2991,4.3788,4.2131,4.4621,4.6168,4.6566,4.7963,4.8869,4.9267,4.963,4.9919,5.0101,5.0101,5.0101,5.0101,5.0101,5.0101,5.0173,5.097,5.1296,5.1368,5.219,5.248,5.248,5.248,5.248,5.248,6.5981,6.6179,6.6249,6.5792,6.5639,6.5523,6.5457,6.5405,6.5566,6.6025,6.6445,6.6514,6.6063,6.5261,6.4236,6.2899,6.1332,6.0415,6.0415,5.995,5.9529,5.9102,5.7886,5.6954,5.6366,5.5095,5.376,5.2365,5.2139,5.1003,4.9049,4.8502,4.7792,4.6985,4.6608,4.6461,4.6388,4.5581,4.5223,4.515,4.4361,4.4022,4.3932,4.3574,4.3465,4.3419,4.3366,4.3322,4.3277,4.3277,4.3214,4.3205,4.3579,4.3651,4.365,4.4049,4.3547,4.2964,4.3363,4.3435,4.3544,4.3906,4.4341,4.4765,4.52,4.5309,4.5309,4.5309,4.5599,4.5997,4.6421,4.5164,4.4087,4.4087,4.1497,3.922,3.8399,3.8266,3.8403,3.8807,4.0863,4.2266,4.2266,4.3317,4.3643,4.2882,4.28,0.0,4.3778,4.5516,4.5743,4.4051,4.712,4.8786,4.8786,4.9666,5.0282,5.0644,5.0644,5.0825,5.1187,5.1187,5.1187,5.1187,5.1187,5.1187,5.1224,5.1658,5.1839,5.19,5.2335,5.248,5.248,5.248,5.248,5.248,6.6096,6.6545,6.6769,6.5782,6.5594,6.5537,6.5436,6.5413,6.5413,6.5413,6.6025,6.6522,6.6522,6.5605,6.4764,6.4045,6.1791,6.0415,6.0415,6.0415,6.0071,5.9331,5.8383,5.7434,5.6383,5.5322,5.4261,5.3182,5.3413,5.2419,5.0305,4.994,4.938,4.8663,4.7966,4.759,4.7416,4.6617,4.6177,4.5993,4.5214,4.4883,4.481,4.413,4.3873,4.3873,4.3873,4.3821,4.3787,4.3787,4.3688,4.3707,4.4418,4.4592,4.4719,4.5403,4.4524,4.3446,4.4126,4.4307,4.4505,4.5302,4.55,4.5526,4.5635,4.5671,4.5671,4.5671,4.6214,4.6675,4.6675,4.5381,4.4196,4.3998,4.0862,3.8452,3.8315,0.0,3.8989,3.9925,4.225,4.3797,4.3797,4.5164,4.5743,4.5065,4.4884,4.5671,4.7616,4.7409,4.6794,4.5888,4.8724,5.0354,5.0463,5.0463,5.0825,5.1477,5.1477,5.1839,5.248,5.248,5.248,5.248,5.248,5.248,5.248,5.248,5.248,5.248,5.248,5.248,5.248,5.248,5.248,5.248,6.6205,6.6506,6.6708,6.5768,6.5552,6.5479,6.5429,6.5413,6.5413,6.5413,6.5528,6.5605,6.5605,6.4222,6.3228,6.3121,6.1447,6.0415,6.0415,6.0415,6.0339,6.0186,5.8727,5.779,5.7634,5.5781,5.4563,5.41,5.3142,5.2333,5.1674,5.0942,5.0545,5.0398,5.0278,4.9848,4.916,4.8306,4.7526,4.6828,4.603,4.57,4.57,4.559,4.5516,4.5516,4.5516,4.5507,4.5498,4.5498,4.5471,4.5425,4.5534,4.5515,4.5439,4.5548,4.542,4.5219,4.5318,4.5334,4.5484,4.6283,4.6394,4.6494,4.7182,4.7327,4.7327,4.7327,4.7435,4.7508,4.7508,4.6214,4.4723,4.3467,4.1051,3.9087,3.8462,0.0,4.0861,4.2296,4.5711,4.7978,4.7978,4.8822,4.9304,4.9195,4.8532,4.8015,4.7725,4.951,4.9872,4.8377,5.0126,5.1441,5.2129,5.2129,5.219,5.2299,5.2299,5.2371,5.248,5.248,5.248,5.248,5.248,5.248,5.248,5.248,5.248,5.248,5.248,5.248,5.248,5.248,5.248,5.248,6.7398,6.7108,6.6848,6.6382,6.5851,6.5472,6.5429,6.5413,6.5413,6.5413,6.5413,6.5566,6.6063,6.4993,6.4076,6.3656,6.2471,6.1363,6.0453,6.0415,6.0415,6.0415,5.9224,5.8047,5.694,5.5768,5.4769,5.398,5.3659,5.2991,5.1987,5.162,5.1206,5.0802,5.0802,5.0372,4.9574,4.916,4.8526,4.7672,4.6865,4.6535,4.6498,4.6067,4.5883,4.5883,4.5883,4.5883,4.5883,4.5883,4.5893,4.5929,4.636,4.6478,4.6504,4.6916,4.6657,4.6232,4.6232,4.653,4.6938,4.7302,4.7662,4.8047,4.8384,4.9136,4.9731,4.963,4.9655,4.951,4.9075,4.6975,4.495,4.3931,4.1351,0.0,3.9689,4.1359,4.3186,4.4764,4.7669,4.9727,5.0162,5.0137,5.0101,5.0101,4.9764,4.9764,5.0271,5.0934,5.1538,5.2106,5.2009,5.2129,5.248,5.248,5.248,5.248,5.248,5.248,5.248,5.248,5.248,5.248,5.248,5.248,5.248,5.248,5.248,5.248,5.248,5.248,5.248,5.248,5.248,5.248,6.8468,6.7953,6.7501,6.7233,6.6586,6.6,6.5727,6.5719,6.5643,6.5413,6.5413,6.5643,6.633,6.5643,6.4886,6.4236,6.3236,6.2051,6.0759,6.0492,6.0415,6.0415,5.9568,5.8244,5.6414,5.5798,5.5003,5.3961,5.4059,5.3482,5.227,5.227,5.194,5.1342,5.1342,5.0912,5.0161,5.0161,4.9564,4.8563,4.7929,4.7562,4.7305,4.6682,4.6581,4.6737,4.6544,4.6581,4.6774,4.6774,4.6774,4.6911,4.7709,4.7966,4.8076,4.87,4.8336,4.7697,4.7514,4.7869,4.8407,4.8808,4.9325,4.9784,4.9907,5.0748,5.1467,5.1319,5.1151,5.0825,5.0209,4.7916,4.5846,4.4985,0.0,0.0,0.0,4.3559,4.5428,4.7213,4.9336,5.097,5.1767,5.1477,5.1151,5.0934,5.1115,5.1647,5.2733,5.2371,5.2987,5.4822,5.3711,5.2987,5.277,5.2951,5.3059,5.3059,5.3059,5.3059,5.3059,5.2842,5.277,5.277,5.2589,5.248,5.248,5.248,5.248,5.2516,5.2697,5.2661,5.2552,5.2915,5.2951,5.2806,6.8699,6.8876,6.9075,6.8237,6.7958,6.7523,6.672,6.659,6.633,6.549,6.5413,6.5413,6.549,6.4771,6.4275,6.4198,6.2662,6.1631,6.1516,6.0797,6.0415,6.0415,5.9568,5.8504,5.7254,5.6107,5.5283,5.4815,5.3801,5.3214,5.3104,5.3104,5.3067,5.3031,5.3031,5.2601,5.1803,5.1803,5.0922,4.95,4.9454,4.894,4.8223,4.8159,4.86,4.9233,4.8416,4.8636,4.9317,4.9317,4.9317,4.9454,5.0288,5.0545,5.0545,5.0618,5.0562,5.0342,4.9581,4.9355,4.9631,5.1151,5.1469,5.1606,5.2272,5.1958,5.1453,5.1319,5.0716,5.0173,5.0101,4.9293,4.8144,4.6678,0.0,0.0,4.5038,4.5863,4.7285,4.9579,5.1296,5.2625,5.3458,5.4146,5.4255,5.3494,5.4146,5.4291,5.3639,5.4255,5.4725,5.4894,5.4786,5.4363,5.3639,5.4363,5.4713,5.4713,5.4713,5.4713,5.4677,5.3965,5.3603,5.3566,5.2806,5.248,5.248,5.248,5.248,5.2552,5.3313,5.3168,5.2661,5.4182,5.4255,5.3711,7.0029,6.9651,6.9311,6.8961,6.8342,6.7821,6.7485,6.7018,6.6598,6.6254,6.5757,6.5413,6.5413,6.5146,6.4733,6.4236,6.3083,6.2166,6.1631,6.0835,6.0415,6.0415,5.9568,5.8778,5.812,5.6861,5.6187,5.6098,5.5137,5.4807,5.504,5.4281,5.3948,5.3922,5.3434,5.2747,5.1987,5.1987,5.1363,5.0325,5.0325,5.0141,4.9838,4.9838,5.0068,5.0288,4.9958,5.0068,5.0325,5.0325,5.0325,5.0398,5.0692,5.0802,5.0802,5.0802,5.0802,5.0839,5.1032,5.0698,5.0411,5.1035,5.1465,5.1787,5.197,5.2476,5.2895,5.2804,5.2552,5.219,5.1695,5.0524,4.9289,4.825,0.0,4.7037,4.757,4.8726,5.0231,5.2129,5.3313,5.4291,5.5051,5.4979,5.475,5.4472,5.4713,5.4762,5.4472,5.516,5.5377,5.4894,5.5848,5.574,5.4472,5.475,5.4894,5.4894,5.4894,5.4894,5.4894,5.4569,5.4436,5.4399,5.3603,5.3241,5.3204,5.2697,5.277,5.3277,5.3566,5.382,5.4074,5.4677,5.4725,5.4508,7.0801,7.0246,6.9766,6.9712,6.9137,6.8585,6.8363,6.7859,6.74,6.7095,6.633,6.5796,6.5796,6.5566,6.5184,6.4619,6.3809,6.3045,6.2471,6.1409,6.0644,6.0415,5.9835,5.935,5.8962,5.7884,5.7244,5.7194,5.6223,5.5786,5.582,5.4844,5.4289,5.3995,5.3434,5.2884,5.238,5.238,5.1903,5.1169,5.1169,5.1022,5.0802,5.0802,5.0949,5.1132,5.0875,5.0949,5.1169,5.1169,5.1169,5.1206,5.1453,5.1563,5.1563,5.1563,5.172,5.205,5.2601,5.2527,5.2223,5.1925,5.2218,5.2561,5.2638,5.3447,5.4154,5.4097,5.4074,5.3929,5.3349,5.2335,5.1344,5.0613,5.0195,5.0064,5.0431,5.162,5.2842,5.3965,5.4581,5.5088,5.5595,5.5414,5.516,5.4931,5.5341,5.5631,5.5631,5.6102,5.6138,5.5631,5.6645,5.6681,5.5631,5.5631,5.5631,5.5631,5.5631,5.5631,5.5631,5.5377,5.5269,5.5196,5.4436,5.4074,5.4037,5.3494,5.3566,5.411,5.4327,5.4617,5.4979,5.545,5.545,5.5269,7.0794,7.07,7.0615,7.0615,7.0506,7.0143,6.9311,6.9196,6.889,6.802,6.7209,6.6705,6.6705,6.5948,6.5413,6.5413,6.4657,6.4198,6.4198,6.2548,6.1249,6.0453,6.0415,6.0196,5.9826,5.903,5.8421,5.8021,5.6816,5.5793,5.5022,5.4596,5.3985,5.3214,5.3214,5.3214,5.3214,5.3214,5.2747,5.2024,5.2024,5.1536,5.0839,5.0839,5.1316,5.1914,5.1096,5.1353,5.2024,5.2024,5.2024,5.2171,5.2957,5.3214,5.3214,5.3214,5.3775,5.4399,5.4399,5.4987,5.5368,5.443,5.4213,5.4329,5.4891,5.5014,5.4978,5.4931,5.4894,5.4894,5.4894,5.4894,5.4653,5.3856,5.4399,5.4617,5.382,5.4399,5.4894,5.4907,5.4907,5.4907,5.4931,5.5595,5.5716,5.4967,5.6355,5.7188,5.7188,5.7188,5.7188,5.7188,5.7188,5.7188,5.7188,5.7188,5.7188,5.7188,5.7188,5.7188,5.7152,5.6355,5.6005,5.5969,5.5233,5.4907,5.4907,5.4894,5.4894,5.4979,5.5703,5.5558,5.5112,5.6645,5.6681,5.6114,7.0721,7.0655,7.0561,7.0459,7.0427,7.0334,7.0067,6.9578,6.912,6.8852,6.805,6.7324,6.6743,6.6476,6.6063,6.5452,6.4657,6.3931,6.335,6.2242,6.1784,6.2128,6.1027,6.0335,6.0203,5.9709,5.951,5.9688,5.8466,5.7903,5.7913,5.6689,5.5967,5.5673,5.4546,5.4363,5.484,5.4289,5.4216,5.452,5.452,5.4043,5.3371,5.3959,5.3628,5.2884,5.3225,5.3115,5.2847,5.2847,5.2847,5.2957,5.3812,5.4436,5.4876,5.4876,5.506,5.5254,5.5254,5.5438,5.5537,5.5247,5.5029,5.4955,5.5093,5.5014,5.4907,5.4907,5.4894,5.4894,5.4894,5.4894,5.4822,5.4569,5.4762,5.4822,5.4581,5.475,5.5088,5.5595,5.5667,5.5884,5.6464,5.6717,5.6754,5.6536,5.6935,5.7188,5.7188,5.7188,5.7188,5.7188,5.7188,5.7188,5.7188,5.7188,5.7188,5.7188,5.7188,5.7188,5.7188,5.6935,5.6826,5.6802,5.5993,5.5667,5.5631,5.5124,5.5196,5.5703,5.5933,5.6223,5.6573,5.7043,5.7043,5.6862,7.0768,7.0915,7.0936,7.0465,7.0411,7.0411,7.0411,6.999,6.9655,6.9655,6.8929,6.8088,6.7286,6.6904,6.6369,6.549,6.4955,6.4466,6.3923,6.3083,6.2853,6.3388,6.1784,6.0874,6.0874,6.0304,6.0151,6.0415,5.952,5.9037,5.8942,5.7784,5.7089,5.6755,5.5765,5.5616,5.6014,5.5385,5.5376,5.5808,5.5662,5.5328,5.4913,5.5401,5.4997,5.4216,5.4693,5.4546,5.4142,5.4142,5.4142,5.4179,5.4363,5.4961,5.5585,5.5585,5.5842,5.6051,5.6051,5.6308,5.6539,5.6539,5.5871,5.5201,5.5143,5.5232,5.5341,5.5341,5.5595,5.5812,5.5812,5.5812,5.5812,5.5812,5.5812,5.5812,5.5812,5.5812,5.5993,5.6428,5.6464,5.6681,5.7152,5.7188,5.7188,5.7188,5.7188,5.7188,5.7188,5.7188,5.7188,5.7188,5.7188,5.7188,5.7188,5.7188,5.7188,5.7188,5.7188,5.7188,5.7188,5.7188,5.7188,5.7152,5.6681,5.6464,5.6428,5.5993,5.6066,5.6464,5.6464,5.6754,5.7188,5.7188,5.7188,5.7188,7.106,7.1436,7.1625,7.0694,7.0525,7.0487,7.0411,7.0411,7.0411,7.0411,6.9769,6.8967,6.8096,6.7362,6.656,6.5605,6.5375,6.5337,6.5413,6.4657,6.4236,6.4313,6.2624,6.1707,6.1707,6.0835,6.0415,6.0415,5.9984,5.9439,5.8688,5.8302,5.7712,5.7006,5.6931,5.6931,5.698,5.6526,5.634,5.6375,5.5991,5.5768,5.5732,5.5805,5.5732,5.5622,5.5695,5.5658,5.5585,5.5585,5.5658,5.5585,5.484,5.5181,5.5805,5.5805,5.6345,5.6921,5.6921,5.7446,5.7997,5.7997,5.6724,5.5408,5.5291,5.5716,5.6139,5.6126,5.6706,5.7201,5.7201,5.7188,5.7188,5.7188,5.7188,5.7188,5.7188,5.7188,5.7188,5.7188,5.7261,5.7261,5.7188,5.7188,5.7188,5.7188,5.7188,5.7188,5.7188,5.7188,5.7188,5.7188,5.7188,5.7188,5.7188,5.7188,5.7188,5.7188,5.7188,5.7188,5.7188,5.7188,5.7188,5.7188,5.7188,5.7188,5.7188,5.7188,5.7188,5.7188,5.7188,5.7188,5.7188,5.7188,5.7188,5.7188,7.2493,7.2688,7.2469,7.1573,7.1421,7.1183,7.0487,7.0411,7.0411,7.0411,7.0258,6.9846,6.9005,6.8776,6.805,6.656,6.5222,6.4733,6.5375,6.4657,6.4466,6.5108,6.3503,6.2617,6.2617,6.1179,6.0415,6.0415,5.9984,5.9704,5.9544,5.9142,5.884,5.8661,5.8003,5.8078,5.8596,5.7598,5.7492,5.8035,5.7648,5.7116,5.6602,5.7226,5.6686,5.5695,5.6308,5.6124,5.5585,5.5585,5.6025,5.6528,5.6334,5.6822,5.7494,5.7494,5.7593,5.774,5.774,5.7886,5.7997,5.7997,5.7636,5.7214,5.7191,5.723,5.7219,5.7121,5.7242,5.7313,5.7213,5.7188,5.7188,5.7188,5.7188,5.7188,5.7188,5.7188,5.7188,5.7188,5.7768,5.7876,5.7261,5.7188,5.7188,5.7188,5.7188,5.7188,5.7188,5.7188,5.7188,5.7188,5.7188,5.7188,5.7188,5.7188,5.7188,5.7188,5.7188,5.7188,5.7188,5.7188,5.7188,5.7188,5.7188,5.7188,5.7188,5.7188,5.7188,5.7188,5.7188,5.7188,5.7188,5.7188,5.7188,5.7188,7.312,7.3423,7.3382,7.2499,7.2338,7.2024,7.1145,7.103,7.0877,7.0449,7.0411,7.0105,6.9273,6.9196,6.8547,6.6858,6.591,6.5375,6.5413,6.4993,6.4955,6.5375,6.4191,6.3503,6.3503,6.186,6.0797,6.0415,6.0173,6.0091,6.0091,5.9874,5.9785,5.9747,5.9309,5.9384,5.9714,5.8672,5.8489,5.8841,5.8253,5.774,5.7409,5.785,5.7494,5.6796,5.7226,5.7116,5.6686,5.6308,5.6712,5.7299,5.6921,5.7336,5.7997,5.7997,5.7997,5.7997,5.7997,5.7997,5.7997,5.7997,5.7904,5.7871,5.8202,5.8166,5.814,5.8402,5.845,5.8424,5.836,5.8347,5.8202,5.784,5.7768,5.7768,5.7768,5.7768,5.7913,5.8311,5.8709,5.8818,5.8383,5.7985,5.7768,5.7768,5.7406,5.7188,5.7188,5.7188,5.7188,5.7188,5.7188,5.7188,5.7188,5.7188,5.7188,5.7188,5.7188,5.7188,5.7188,5.7188,5.7188,5.7188,5.7188,5.7188,5.7188,5.7188,5.7188,5.7188,5.7188,5.7188,5.7188,5.7188,5.7188,5.7188,7.3639,7.4082,7.4295,7.3378,7.3208,7.2864,7.1841,7.1688,7.1382,7.0525,7.0411,7.0143,6.9464,6.9273,6.8623,6.7247,6.6865,6.6407,6.5681,6.549,6.5413,6.5413,6.4619,6.4198,6.4198,6.2624,6.1402,6.0606,6.0453,6.0415,6.0415,6.0415,6.0415,6.0415,6.0415,6.0415,6.0342,5.9537,5.9206,5.914,5.8315,5.7997,5.7997,5.7997,5.7997,5.7997,5.7997,5.7997,5.7886,5.7226,5.7446,5.7886,5.7226,5.7446,5.7997,5.7997,5.7997,5.7997,5.7997,5.8107,5.8217,5.8194,5.8185,5.8396,5.9029,5.8893,5.8829,5.9486,5.9641,5.9641,5.9615,5.9602,5.9384,5.8709,5.8601,5.8601,5.8601,5.8601,5.8854,5.9529,5.9602,5.9638,5.9783,5.9072,5.8601,5.8601,5.7985,5.7623,5.7623,5.7478,5.7406,5.7406,5.7261,5.7188,5.7188,5.7188,5.7188,5.7188,5.7188,5.7188,5.7188,5.7188,5.7188,5.7188,5.7188,5.7188,5.7188,5.7188,5.7188,5.7188,5.7188,5.7188,5.7188,5.7188,5.7188,5.7188,7.5068,7.5259,7.5059,7.4201,7.404,7.3514,7.1956,7.1688,7.1382,7.0525,7.0411,7.0372,7.0258,6.9616,6.912,6.889,6.7553,6.6628,6.6522,6.5834,6.5413,6.5413,6.4619,6.4198,6.4198,6.3236,6.2319,6.144,6.0759,6.0415,6.0415,6.0415,6.0415,6.0415,6.0415,6.0415,6.0342,5.9537,5.9206,5.914,5.8315,5.7997,5.7997,5.7997,5.7997,5.7997,5.7997,5.7997,5.796,5.7886,5.7923,5.796,5.7886,5.7923,5.7997,5.7997,5.7997,5.7997,5.7997,5.851,5.9026,5.8882,5.9359,6.0017,6.0578,5.9694,5.8967,5.9628,5.9784,5.9745,5.9628,5.9602,5.9566,5.947,5.9434,5.9434,5.9434,5.9434,5.947,5.9579,5.9602,5.9855,6.0579,5.9891,5.9434,5.9434,5.9361,5.9289,5.9289,5.8637,5.8239,5.8239,5.755,5.7188,5.7188,5.7188,5.7188,5.7188,5.7188,5.7188,5.7188,5.7188,5.7188,5.7188,5.7188,5.7188,5.7188,5.7188,5.7188,5.7188,5.7188,5.7188,5.7188,5.7188,5.7188,5.7188,7.5433,7.5509,7.5395,7.5004,7.4927,7.4507,7.3284,7.2711,7.21,7.1221,7.0678,7.0411,7.0411,7.0067,6.9693,6.9234,6.8508,6.7897,6.74,6.6598,6.6139,6.6139,6.5299,6.4886,6.4886,6.4038,6.3427,6.3052,6.2204,6.1325,6.0415,6.0874,6.0835,6.0415,6.0415,6.0285,6.0045,5.945,5.9084,5.8821,5.8242,5.7997,5.7997,5.7997,5.7997,5.7997,5.7997,5.7997,5.7997,5.7997,5.7997,5.7997,5.7997,5.7997,5.7997,5.7997,5.8327,5.8634,5.8564,5.9163,5.9725,5.9578,5.9747,6.0145,6.084,6.0451,6.0134,6.0867,6.1035,6.1009,6.0955,6.0942,6.0797,6.0326,6.0254,6.0254,6.0254,6.0254,6.0435,6.0905,6.0942,6.1086,6.1448,6.0724,6.0254,6.0254,5.9855,5.9602,5.9602,5.8854,5.8383,5.8383,5.7623,5.7188,5.7188,5.7659,5.7623,5.7188,5.7659,5.7623,5.7188,5.7188,5.7188,5.7188,5.7188,5.7188,5.7188,5.7188,5.7188,5.7188,5.7188,5.7188,5.7188,5.7188,5.7188,5.7188]}]]